[[{"header":{"parameterUnit":"m.s-1","parameterCategory":1,"la1":31.0,"la2":29.5877,"lo1":-88.7671,"lo2":-86.6584,"dy":0.0162,"dx":0.0185,"nx":115,"ny":88,"refTime":"2023-03-20T12:00:00:Z","depth":0,"parameterNumber":2,"parameterNumberName":"U-component_of_WINDS"},"data":[0.0,0.0,0.0,0.0,0.0,0.0,0.0,0.0,0.0,0.0,0.0,0.0,0.0,0.0,0.0,0.0,0.0,0.0,0.0,0.0,0.0,0.0,0.0,0.0,0.0,0.0,0.0,0.0,0.0,0.0,0.0,0.0,0.0,0.0,0.0,0.0,0.0,0.0,0.0,0.0,0.0,0.0,0.0,0.0,0.0,0.0,0.0,0.0,0.0,0.0,0.0,0.0,0.0,0.0,0.0,0.0,0.0,0.0,0.0,0.0,0.0,0.0,0.0,0.0,0.0,0.0,0.0,0.0,0.0,0.0,0.0,0.0,0.0,0.0,0.0,0.0,0.0,0.0,0.0,0.0,0.0,0.0,0.0,0.0,0.0,0.0,0.0,0.0,0.0,0.0,0.0,0.0,0.0,0.0,0.0,0.0,0.0,0.0,0.0,0.0,0.0,0.0,0.0,0.0,0.0,0.0,0.0,0.0,0.0,0.0,0.0,0.0,0.0,0.0,0.0,0.0,0.0,0.0,0.0,0.0,0.0,0.0,0.0,0.0,0.0,0.0,0.0,0.0,0.0,0.0,0.0,0.0,0.0,0.0,0.0,0.0,0.0,0.0,0.0,0.0,0.0,0.0,0.0,0.0,0.0,0.0,0.0,0.0,0.0,0.0,0.0,0.0,0.0,0.0,0.0,0.0,0.0,0.0,0.0,0.0,0.0,0.0,0.0,0.0,0.0,0.0,0.0,0.0,0.0,0.0,0.0,0.0,0.0,0.0,0.0,0.0,0.0,0.0,0.0,0.0,0.0,0.0,0.0,0.0,0.0,0.0,0.0,0.0,0.0,0.0,0.0,0.0,0.0,0.0,0.0,0.0,0.0,0.0,0.0,0.0,0.0,0.0,0.0,0.0,0.0,0.0,0.0,0.0,0.0,0.0,0.0,0.0,0.0,0.0,0.0,0.0,0.0,0.0,0.0,0.0,0.0,0.0,0.0,0.0,0.0,0.0,0.0,0.0,0.0,0.0,0.0,0.0,0.0,0.0,0.0,0.0,0.0,0.0,0.0,0.0,0.0,0.0,0.0,0.0,0.0,0.0,0.0,0.0,0.0,0.0,0.0,0.0,0.0,0.0,0.0,0.0,0.0,0.0,0.0,0.0,0.0,0.0,0.0,0.0,0.0,0.0,0.0,0.0,0.0,0.0,0.0,0.0,0.0,0.0,0.0,0.0,0.0,0.0,0.0,0.0,0.0,0.0,0.0,0.0,0.0,0.0,0.0,0.0,0.0,0.0,0.0,0.0,0.0,0.0,0.0,0.0,0.0,0.0,0.0,0.0,0.0,0.0,0.0,0.0,0.0,0.0,0.0,0.0,0.0,0.0,0.0,0.0,0.0,0.0,0.0,0.0,0.0,0.0,0.0,0.0,0.0,0.0,0.0,0.0,0.0,0.0,0.0,0.0,0.0,0.0,0.0,0.0,0.0,0.0,0.0,0.0,0.0,0.0,0.0,0.0,0.0,0.0,0.0,0.0,0.0,0.0,0.0,0.0,0.0,0.0,0.0,0.0,0.0,0.0,0.0,0.0,0.0,0.0,0.0,0.0,0.0,0.0,0.0,0.0,0.0,0.0,0.0,0.0,0.0,0.0,0.0,0.0,0.0,0.0,0.0,0.0,0.0,0.0,0.0,0.0,0.0,0.0,0.0,0.0,0.0,0.0,0.0,0.0,0.0,0.0,0.0,0.0,0.0,0.0,0.0,0.0,0.0,0.0,0.0,0.0,0.0,0.0,0.0,0.0,0.0,0.0,0.0,0.0,0.0,0.0,0.0,0.0,0.0,0.0,0.0,0.0,0.0,0.0,0.0,0.0,0.0,0.0,0.0,0.0,0.0,0.0,0.0,0.0,0.0,0.0,0.0,0.0,0.0,0.0,0.0,0.0,0.0,0.0,0.0,0.0,0.0,0.0,0.0,0.0,0.0,0.0,0.0,0.0,0.0,0.0,0.0,0.0,0.0,0.0,0.0,0.0,0.0,0.0,0.0,0.0,0.0,0.0,0.0,0.0,0.0,0.0,0.0,0.0,0.0,0.0,0.0,0.0,0.0,0.0,0.0,0.0,0.0,0.0,0.0,0.0,0.0,0.0,0.0,0.0,0.0,0.0,0.0,0.0,0.0,0.0,0.0,0.0,0.0,0.0,0.0,0.0,0.0,0.0,0.0,0.0,0.0,0.0,0.0,0.0,0.0,0.0,0.0,0.0,0.0,0.0,0.0,0.0,0.0,0.0,0.0,0.0,0.0,0.0,0.0,0.0,0.0,0.0,0.0,0.0,0.0,0.0,0.0,0.0,0.0,0.0,0.0,0.0,0.0,0.0,0.0,0.0,0.0,0.0,0.0,0.0,0.0,0.0,0.0,0.0,0.0,0.0,0.0,0.0,0.0,0.0,0.0,0.0,0.0,0.0,0.0,0.0,0.0,0.0,0.0,0.0,0.0,0.0,0.0,0.0,0.0,0.0,0.0,0.0,0.0,0.0,0.0,0.0,0.0,0.0,0.0,0.0,0.0,0.0,0.0,0.0,0.0,0.0,0.0,0.0,0.0,0.0,0.0,0.0,0.0,0.0,0.0,0.0,0.0,0.0,0.0,0.0,0.0,0.0,0.0,0.0,0.0,0.0,0.0,0.0,0.0,0.0,0.0,0.0,0.0,0.0,0.0,0.0,0.0,0.0,0.0,0.0,0.0,0.0,0.0,0.0,0.0,0.0,0.0,0.0,0.0,0.0,0.0,0.0,0.0,0.0,0.0,0.0,0.0,0.0,0.0,0.0,0.0,0.0,0.0,0.0,0.0,0.0,0.0,0.0,0.0,0.0,0.0,0.0,0.0,0.0,0.0,0.0,0.0,0.0,0.0,0.0,0.0,0.0,0.0,0.0,0.0,0.0,0.0,0.0,0.0,0.0,0.0,0.0,0.0,0.0,0.0,0.0,0.0,0.0,0.0,0.0,0.0,0.0,0.0,0.0,0.0,0.0,0.0,0.0,0.0,0.0,0.0,0.0,0.0,0.0,0.0,0.0,0.0,0.0,0.0,0.0,0.0,0.0,0.0,0.0,0.0,0.0,0.0,0.0,0.0,0.0,0.0,0.0,0.0,0.0,0.0,0.0,0.0,0.0,0.0,0.0,0.0,0.0,0.0,0.0,0.0,0.0,0.0,0.0,0.0,0.0,0.0,0.0,0.0,0.0,0.0,0.0,0.0,0.0,0.0,0.0,0.0,0.0,0.0,0.0,0.0,0.0,0.0,0.0,0.0,0.0,0.0,0.0,0.0,0.0,0.0,0.0,0.0,0.0,0.0,0.0,0.0,0.0,0.0,0.0,0.0,0.0,0.0,0.0,0.0,0.0,0.0,0.0,0.0,0.0,0.0,0.0,0.0,0.0,0.0,0.0,0.0,0.0,0.0,0.0,0.0,0.0,0.0,0.0,0.0,0.0,0.0,0.0,0.0,0.0,0.0,0.0,0.0,0.0,0.0,0.0,0.0,0.0,0.0,0.0,0.0,0.0,0.0,0.0,0.0,0.0,0.0,0.0,0.0,0.0,0.0,0.0,0.0,0.0,0.0,0.0,0.0,0.0,0.0,0.0,0.0,0.0,0.0,0.0,0.0,0.0,0.0,0.0,0.0,0.0,0.0,0.0,0.0,0.0,0.0,0.0,0.0,0.0,0.0,0.0,0.0,0.0,0.0,0.0,0.0,0.0,0.0,0.0,0.0,0.0,0.0,0.0,0.0,0.0,0.0,0.0,0.0,0.0,0.0,0.0,0.0,0.0,0.0,0.0,0.0,0.0,0.0,0.0,0.0,0.0,0.0,0.0,0.0,0.0,0.0,0.0,0.0,0.0,0.0,0.0,0.0,0.0,0.0,0.0,0.0,0.0,0.0,0.0,0.0,0.0,0.0,0.0,0.0,0.0,0.0,0.0,0.0,0.0,0.0,0.0,0.0,0.0,0.0,0.0,0.0,0.0,0.0,0.0,0.0,0.0,0.0,0.0,0.0,0.0,0.0,0.0,0.0,0.0,0.0,0.0,0.0,0.0,0.0,0.0,0.0,0.0,0.0,0.0,0.0,0.0,0.0,0.0,0.0,0.0,0.0,0.0,0.0,0.0,0.0,0.0,0.0,0.0,0.0,0.0,0.0,0.0,0.0,0.0,0.0,0.0,0.0,0.0,0.0,0.0,0.0,0.0,0.0,0.0,0.0,0.0,0.0,0.0,0.0,0.0,0.0,0.0,4.1988,0.0,0.0,0.0,0.0,0.0,0.0,0.0,0.0,0.0,0.0,0.0,0.0,0.0,0.0,0.0,0.0,0.0,0.0,0.0,0.0,0.0,0.0,0.0,0.0,0.0,0.0,0.0,0.0,0.0,0.0,0.0,0.0,0.0,0.0,0.0,0.0,0.0,0.0,0.0,0.0,0.0,0.0,0.0,0.0,0.0,0.0,0.0,0.0,0.0,0.0,0.0,0.0,0.0,0.0,0.0,0.0,0.0,0.0,0.0,0.0,0.0,0.0,0.0,0.0,0.0,0.0,0.0,0.0,0.0,0.0,0.0,0.0,0.0,0.0,0.0,0.0,0.0,0.0,0.0,0.0,0.0,0.0,0.0,0.0,0.0,0.0,0.0,0.0,0.0,0.0,0.0,0.0,0.0,0.0,0.0,0.0,0.0,0.0,0.0,0.0,0.0,0.0,0.0,0.0,0.0,0.0,0.0,0.0,0.0,0.0,4.3896,4.35,4.276,4.2366,4.2379,0.0,0.0,0.0,0.0,0.0,0.0,0.0,0.0,0.0,0.0,0.0,0.0,0.0,0.0,0.0,0.0,0.0,0.0,0.0,0.0,0.0,0.0,0.0,0.0,0.0,0.0,0.0,0.0,0.0,0.0,0.0,0.0,0.0,0.0,0.0,0.0,0.0,0.0,0.0,0.0,0.0,0.0,0.0,0.0,0.0,0.0,0.0,0.0,0.0,0.0,0.0,0.0,0.0,0.0,0.0,0.0,0.0,0.0,0.0,0.0,0.0,0.0,0.0,0.0,0.0,0.0,0.0,0.0,0.0,0.0,0.0,0.0,0.0,0.0,0.0,0.0,0.0,0.0,0.0,0.0,0.0,0.0,0.0,0.0,0.0,0.0,0.0,0.0,0.0,0.0,0.0,0.0,0.0,0.0,0.0,0.0,0.0,0.0,0.0,0.0,0.0,0.0,0.0,0.0,0.0,0.0,0.0,0.0,0.0,0.0,0.0,0.0,4.3389,4.2783,4.2375,0.0,0.0,0.0,0.0,0.0,0.0,0.0,0.0,0.0,0.0,0.0,0.0,0.0,0.0,0.0,0.0,0.0,0.0,0.0,0.0,0.0,0.0,0.0,0.0,0.0,0.0,0.0,0.0,0.0,0.0,0.0,0.0,0.0,0.0,0.0,0.0,0.0,0.0,0.0,0.0,0.0,0.0,0.0,0.0,0.0,0.0,0.0,0.0,0.0,0.0,0.0,0.0,0.0,0.0,0.0,0.0,0.0,0.0,0.0,0.0,0.0,0.0,0.0,0.0,0.0,0.0,0.0,0.0,0.0,0.0,0.0,0.0,0.0,0.0,0.0,0.0,0.0,0.0,0.0,0.0,0.0,0.0,0.0,0.0,0.0,0.0,0.0,0.0,0.0,0.0,0.0,0.0,0.0,0.0,0.0,0.0,0.0,0.0,0.0,0.0,0.0,0.0,0.0,0.0,0.0,0.0,0.0,0.0,0.0,0.0,4.5859,4.5774,4.5053,0.0,4.2449,0.0,0.0,0.0,0.0,0.0,0.0,0.0,0.0,0.0,0.0,0.0,0.0,0.0,0.0,0.0,0.0,0.0,0.0,0.0,0.0,0.0,0.0,0.0,0.0,0.0,0.0,0.0,0.0,0.0,0.0,0.0,0.0,0.0,0.0,0.0,0.0,0.0,0.0,0.0,0.0,0.0,0.0,0.0,0.0,0.0,0.0,0.0,0.0,0.0,0.0,0.0,0.0,0.0,0.0,0.0,0.0,0.0,0.0,0.0,0.0,0.0,0.0,0.0,0.0,0.0,0.0,0.0,0.0,0.0,0.0,0.0,0.0,0.0,0.0,0.0,0.0,0.0,0.0,0.0,0.0,0.0,0.0,0.0,0.0,0.0,0.0,0.0,0.0,0.0,0.0,0.0,0.0,0.0,0.0,0.0,0.0,0.0,0.0,0.0,0.0,0.0,0.0,0.0,0.0,0.0,0.0,0.0,0.0,0.0,0.0,4.6035,4.6143,4.4826,4.3537,0.0,0.0,0.0,0.0,0.0,0.0,0.0,0.0,0.0,0.0,0.0,0.0,0.0,0.0,0.0,0.0,0.0,0.0,0.0,0.0,0.0,0.0,0.0,0.0,0.0,0.0,0.0,0.0,0.0,0.0,0.0,0.0,0.0,0.0,0.0,0.0,0.0,0.0,0.0,0.0,0.0,0.0,0.0,0.0,0.0,0.0,0.0,0.0,0.0,0.0,0.0,0.0,0.0,0.0,0.0,0.0,0.0,0.0,0.0,0.0,0.0,0.0,0.0,0.0,0.0,0.0,0.0,0.0,0.0,0.0,0.0,0.0,0.0,0.0,0.0,0.0,0.0,0.0,0.0,0.0,0.0,0.0,0.0,0.0,0.0,0.0,0.0,0.0,0.0,0.0,0.0,0.0,0.0,0.0,0.0,0.0,0.0,0.0,0.0,0.0,0.0,0.0,0.0,0.0,0.0,0.0,0.0,0.0,0.0,0.0,4.598,4.6056,4.6107,4.4967,4.3735,4.2612,0.0,0.0,0.0,0.0,0.0,0.0,0.0,0.0,0.0,0.0,0.0,0.0,0.0,0.0,0.0,0.0,0.0,0.0,0.0,0.0,0.0,0.0,0.0,0.0,0.0,0.0,0.0,0.0,0.0,0.0,0.0,0.0,0.0,0.0,0.0,0.0,0.0,0.0,0.0,0.0,0.0,0.0,0.0,0.0,0.0,0.0,0.0,0.0,0.0,0.0,0.0,0.0,0.0,0.0,0.0,0.0,0.0,0.0,0.0,0.0,0.0,0.0,0.0,0.0,0.0,0.0,0.0,0.0,0.0,0.0,0.0,0.0,0.0,0.0,0.0,0.0,0.0,0.0,0.0,0.0,0.0,0.0,0.0,0.0,0.0,0.0,0.0,0.0,0.0,0.0,0.0,0.0,0.0,0.0,0.0,0.0,0.0,0.0,0.0,0.0,0.0,0.0,0.0,0.0,0.0,0.0,0.0,0.0,4.5814,4.5917,4.6017,4.6107,4.6013,4.5201,0.0,0.0,0.0,0.0,0.0,0.0,0.0,0.0,0.0,0.0,0.0,0.0,0.0,0.0,0.0,0.0,0.0,0.0,0.0,0.0,0.0,0.0,0.0,0.0,0.0,0.0,0.0,0.0,0.0,0.0,0.0,0.0,0.0,0.0,0.0,0.0,0.0,0.0,0.0,0.0,0.0,0.0,0.0,0.0,0.0,0.0,0.0,0.0,0.0,0.0,0.0,0.0,0.0,0.0,0.0,0.0,0.0,0.0,0.0,0.0,0.0,0.0,0.0,0.0,0.0,0.0,0.0,0.0,0.0,0.0,0.0,0.0,0.0,0.0,0.0,0.0,0.0,0.0,0.0,0.0,0.0,0.0,0.0,0.0,0.0,0.0,0.0,0.0,0.0,0.0,0.0,0.0,0.0,0.0,0.0,0.0,0.0,0.0,0.0,0.0,0.0,0.0,0.0,0.0,0.0,0.0,0.0,0.0,0.0,4.588,4.6017,4.6122,4.6091,4.5098,4.4224,0.0,0.0,0.0,0.0,0.0,0.0,0.0,0.0,0.0,0.0,0.0,0.0,0.0,0.0,0.0,0.0,0.0,0.0,0.0,0.0,0.0,0.0,0.0,0.0,0.0,0.0,0.0,0.0,0.0,0.0,0.0,0.0,0.0,0.0,0.0,0.0,0.0,0.0,0.0,0.0,0.0,0.0,0.0,0.0,0.0,0.0,0.0,0.0,0.0,0.0,0.0,0.0,0.0,0.0,0.0,0.0,0.0,0.0,0.0,0.0,0.0,0.0,0.0,0.0,0.0,0.0,0.0,0.0,0.0,0.0,0.0,0.0,0.0,0.0,0.0,0.0,0.0,0.0,0.0,0.0,0.0,0.0,0.0,0.0,0.0,0.0,0.0,0.0,0.0,0.0,0.0,0.0,0.0,0.0,0.0,0.0,0.0,0.0,0.0,0.0,0.0,0.0,0.0,0.0,0.0,0.0,0.0,0.0,0.0,4.5905,0.0,4.613,4.6052,4.478,4.3903,0.0,0.0,0.0,0.0,0.0,0.0,0.0,0.0,0.0,0.0,0.0,0.0,0.0,0.0,0.0,0.0,0.0,0.0,0.0,0.0,0.0,0.0,0.0,0.0,0.0,0.0,0.0,0.0,0.0,0.0,0.0,0.0,0.0,0.0,0.0,0.0,0.0,0.0,0.0,0.0,0.0,0.0,0.0,0.0,0.0,0.0,0.0,0.0,0.0,0.0,0.0,0.0,0.0,0.0,0.0,0.0,0.0,0.0,0.0,0.0,0.0,0.0,0.0,0.0,0.0,0.0,0.0,0.0,0.0,0.0,0.0,0.0,0.0,0.0,0.0,0.0,0.0,0.0,0.0,0.0,0.0,0.0,0.0,0.0,0.0,0.0,0.0,0.0,0.0,0.0,0.0,0.0,0.0,0.0,0.0,0.0,0.0,0.0,0.0,0.0,0.0,0.0,0.0,0.0,0.0,0.0,0.0,0.0,4.5742,4.5905,4.5941,4.6056,4.6099,4.5296,4.4462,0.0,0.0,0.0,0.0,0.0,0.0,0.0,0.0,0.0,0.0,0.0,0.0,0.0,0.0,0.0,0.0,0.0,0.0,0.0,0.0,0.0,0.0,0.0,0.0,0.0,0.0,0.0,0.0,0.0,0.0,0.0,0.0,0.0,0.0,0.0,0.0,0.0,0.0,0.0,0.0,0.0,0.0,0.0,0.0,0.0,0.0,0.0,0.0,0.0,0.0,0.0,0.0,0.0,0.0,0.0,0.0,0.0,0.0,0.0,0.0,0.0,0.0,0.0,0.0,0.0,0.0,0.0,0.0,0.0,0.0,0.0,0.0,0.0,0.0,0.0,0.0,0.0,0.0,0.0,0.0,0.0,0.0,0.0,0.0,0.0,0.0,0.0,0.0,0.0,0.0,0.0,0.0,0.0,0.0,0.0,0.0,0.0,0.0,0.0,0.0,0.0,0.0,0.0,0.0,0.0,0.0,0.0,0.0,0.0,4.6035,4.6035,4.6279,4.6834,4.5025,4.413,0.0,0.0,0.0,0.0,0.0,0.0,0.0,0.0,0.0,0.0,0.0,0.0,0.0,0.0,0.0,0.0,0.0,0.0,0.0,0.0,0.0,0.0,0.0,0.0,0.0,0.0,0.0,0.0,0.0,0.0,0.0,0.0,0.0,0.0,0.0,0.0,0.0,0.0,0.0,0.0,0.0,0.0,0.0,0.0,0.0,0.0,0.0,0.0,0.0,0.0,0.0,0.0,0.0,0.0,0.0,0.0,0.0,0.0,0.0,0.0,0.0,0.0,0.0,0.0,0.0,0.0,0.0,0.0,0.0,0.0,0.0,0.0,0.0,0.0,0.0,0.0,0.0,0.0,0.0,0.0,0.0,0.0,0.0,0.0,0.0,0.0,0.0,0.0,0.0,0.0,0.0,0.0,0.0,0.0,0.0,0.0,0.0,0.0,0.0,0.0,0.0,0.0,0.0,0.0,0.0,0.0,0.0,0.0,0.0,4.6445,4.6457,4.6713,4.7271,4.517,4.4143,4.4324,0.0,0.0,0.0,0.0,0.0,0.0,0.0,0.0,0.0,0.0,0.0,0.0,0.0,0.0,0.0,0.0,0.0,0.0,0.0,0.0,0.0,0.0,0.0,0.0,0.0,0.0,0.0,0.0,0.0,0.0,0.0,0.0,0.0,0.0,0.0,0.0,0.0,0.0,0.0,0.0,0.0,0.0,0.0,0.0,0.0,0.0,0.0,0.0,0.0,0.0,0.0,0.0,0.0,0.0,0.0,0.0,0.0,0.0,0.0,0.0,0.0,0.0,0.0,0.0,0.0,0.0,0.0,0.0,0.0,0.0,0.0,0.0,0.0,0.0,0.0,0.0,0.0,0.0,0.0,0.0,0.0,0.0,0.0,0.0,0.0,0.0,0.0,0.0,0.0,0.0,0.0,0.0,0.0,0.0,0.0,0.0,0.0,0.0,0.0,0.0,0.0,0.0,0.0,0.0,0.0,0.0,0.0,0.0,4.7216,4.7323,4.7417,4.7416,4.5774,4.4559,0.0,0.0,0.0,0.0,0.0,0.0,0.0,0.0,0.0,0.0,0.0,0.0,0.0,0.0,0.0,0.0,0.0,0.0,0.0,0.0,0.0,0.0,0.0,0.0,0.0,0.0,0.0,0.0,0.0,0.0,0.0,0.0,0.0,0.0,0.0,0.0,0.0,0.0,0.0,0.0,0.0,0.0,0.0,0.0,0.0,0.0,0.0,0.0,0.0,0.0,0.0,0.0,0.0,0.0,0.0,0.0,0.0,0.0,0.0,0.0,0.0,0.0,0.0,0.0,0.0,0.0,0.0,0.0,0.0,0.0,0.0,0.0,0.0,0.0,0.0,0.0,0.0,0.0,0.0,0.0,0.0,0.0,0.0,0.0,0.0,0.0,0.0,0.0,0.0,0.0,0.0,0.0,0.0,0.0,0.0,0.0,0.0,0.0,0.0,0.0,0.0,0.0,0.0,0.0,0.0,0.0,0.0,0.0,0.0,4.8844,4.9353,4.9478,4.9033,4.6923,4.5685,0.0,0.0,0.0,0.0,0.0,0.0,0.0,0.0,0.0,0.0,0.0,0.0,0.0,0.0,0.0,0.0,0.0,0.0,0.0,0.0,0.0,0.0,0.0,0.0,0.0,0.0,0.0,0.0,0.0,0.0,0.0,0.0,0.0,0.0,0.0,0.0,0.0,0.0,0.0,0.0,0.0,0.0,0.0,0.0,0.0,0.0,0.0,0.0,0.0,0.0,0.0,0.0,0.0,0.0,0.0,0.0,0.0,0.0,0.0,0.0,0.0,0.0,0.0,0.0,0.0,0.0,0.0,0.0,0.0,0.0,0.0,0.0,0.0,0.0,0.0,0.0,0.0,0.0,0.0,0.0,0.0,0.0,0.0,0.0,0.0,0.0,0.0,0.0,0.0,0.0,0.0,0.0,0.0,0.0,0.0,0.0,0.0,0.0,0.0,0.0,0.0,0.0,0.0,0.0,0.0,0.0,0.0,0.0,4.8226,4.9259,5.0064,5.0394,5.0153,4.8188,4.6614,0.0,0.0,0.0,0.0,0.0,0.0,0.0,0.0,0.0,0.0,0.0,0.0,0.0,0.0,0.0,0.0,0.0,0.0,0.0,0.0,0.0,0.0,0.0,0.0,0.0,0.0,0.0,0.0,0.0,0.0,0.0,0.0,0.0,0.0,0.0,0.0,0.0,0.0,0.0,0.0,0.0,0.0,0.0,0.0,0.0,0.0,0.0,0.0,0.0,0.0,0.0,0.0,0.0,0.0,0.0,0.0,0.0,0.0,0.0,0.0,0.0,0.0,0.0,0.0,0.0,0.0,0.0,0.0,0.0,0.0,0.0,0.0,0.0,0.0,0.0,0.0,0.0,0.0,0.0,0.0,0.0,0.0,0.0,0.0,0.0,0.0,0.0,0.0,0.0,0.0,0.0,0.0,0.0,0.0,0.0,0.0,0.0,0.0,0.0,0.0,0.0,0.0,0.0,0.0,0.0,0.0,0.0,0.0,4.8448,4.9381,5.0336,5.0875,5.0906,4.9337,4.7416,0.0,0.0,0.0,0.0,0.0,0.0,0.0,0.0,0.0,0.0,0.0,0.0,0.0,0.0,0.0,0.0,0.0,0.0,0.0,0.0,0.0,0.0,0.0,0.0,0.0,0.0,0.0,0.0,0.0,0.0,0.0,0.0,0.0,0.0,0.0,0.0,0.0,0.0,0.0,0.0,0.0,0.0,0.0,0.0,0.0,0.0,0.0,0.0,0.0,0.0,0.0,0.0,0.0,0.0,0.0,0.0,0.0,0.0,0.0,0.0,0.0,0.0,0.0,0.0,0.0,0.0,0.0,0.0,0.0,0.0,0.0,0.0,0.0,0.0,0.0,0.0,0.0,0.0,0.0,0.0,0.0,0.0,0.0,0.0,0.0,0.0,0.0,0.0,0.0,0.0,0.0,0.0,0.0,0.0,0.0,0.0,0.0,0.0,0.0,0.0,0.0,0.0,0.0,0.0,0.0,0.0,0.0,0.0,5.0685,5.1904,5.2755,5.2746,5.1818,4.9648,4.7696,0.0,0.0,0.0,0.0,0.0,0.0,0.0,0.0,0.0,0.0,0.0,0.0,0.0,0.0,0.0,0.0,0.0,0.0,0.0,0.0,0.0,0.0,0.0,0.0,0.0,0.0,0.0,0.0,0.0,0.0,0.0,0.0,0.0,0.0,0.0,0.0,0.0,0.0,0.0,0.0,0.0,0.0,0.0,0.0,0.0,0.0,0.0,0.0,4.1907,0.0,0.0,0.0,0.0,0.0,0.0,0.0,0.0,0.0,0.0,0.0,0.0,0.0,0.0,0.0,0.0,0.0,0.0,0.0,0.0,0.0,0.0,0.0,0.0,0.0,0.0,0.0,0.0,0.0,0.0,0.0,0.0,0.0,0.0,0.0,0.0,0.0,0.0,0.0,0.0,0.0,0.0,0.0,0.0,0.0,0.0,0.0,0.0,0.0,0.0,0.0,0.0,0.0,0.0,0.0,0.0,0.0,0.0,0.0,5.09,5.2455,5.2691,5.2548,5.1945,5.0119,4.8175,0.0,0.0,0.0,0.0,0.0,0.0,0.0,0.0,0.0,0.0,0.0,0.0,0.0,0.0,0.0,0.0,0.0,0.0,0.0,0.0,0.0,0.0,0.0,0.0,0.0,0.0,0.0,0.0,0.0,0.0,0.0,0.0,0.0,0.0,0.0,0.0,0.0,0.0,0.0,0.0,0.0,0.0,0.0,0.0,0.0,0.0,0.0,0.0,0.0,0.0,0.0,0.0,0.0,0.0,0.0,0.0,0.0,0.0,0.0,0.0,0.0,0.0,0.0,0.0,0.0,0.0,0.0,0.0,0.0,0.0,0.0,0.0,0.0,0.0,0.0,0.0,0.0,0.0,0.0,0.0,0.0,0.0,0.0,0.0,0.0,0.0,0.0,0.0,0.0,0.0,0.0,0.0,0.0,0.0,0.0,0.0,0.0,0.0,0.0,0.0,0.0,0.0,0.0,0.0,0.0,0.0,0.0,4.8796,5.0529,5.25,5.2232,5.2043,5.2068,5.082,4.8837,4.6191,0.0,0.0,0.0,0.0,0.0,0.0,0.0,0.0,0.0,0.0,0.0,0.0,0.0,0.0,0.0,0.0,0.0,0.0,0.0,0.0,0.0,0.0,0.0,0.0,0.0,0.0,0.0,0.0,0.0,0.0,0.0,0.0,0.0,0.0,0.0,0.0,0.0,0.0,4.2826,4.4199,0.0,0.0,0.0,0.0,0.0,0.0,0.0,0.0,4.2476,0.0,0.0,0.0,0.0,0.0,0.0,0.0,0.0,0.0,0.0,0.0,0.0,0.0,0.0,0.0,0.0,0.0,0.0,0.0,0.0,0.0,0.0,0.0,0.0,0.0,0.0,0.0,0.0,0.0,0.0,0.0,0.0,0.0,0.0,0.0,0.0,0.0,0.0,0.0,0.0,0.0,0.0,0.0,0.0,0.0,0.0,0.0,0.0,0.0,0.0,0.0,0.0,0.0,0.0,0.0,0.0,4.9447,4.9745,5.1289,5.4107,5.4246,5.3849,5.2913,5.2121,4.9906,4.6174,0.0,0.0,0.0,0.0,0.0,0.0,0.0,0.0,0.0,0.0,0.0,0.0,0.0,0.0,0.0,0.0,0.0,0.0,0.0,0.0,0.0,0.0,0.0,0.0,0.0,0.0,0.0,0.0,0.0,0.0,0.0,0.0,0.0,0.0,0.0,0.0,0.0,0.0,0.0,4.6972,4.7603,0.0,0.0,0.0,0.0,0.0,0.0,0.0,0.0,4.263,0.0,0.0,0.0,0.0,0.0,0.0,0.0,0.0,0.0,0.0,0.0,0.0,0.0,0.0,0.0,0.0,0.0,0.0,0.0,0.0,0.0,0.0,0.0,0.0,0.0,0.0,0.0,0.0,0.0,0.0,0.0,0.0,0.0,0.0,0.0,0.0,0.0,0.0,0.0,0.0,0.0,0.0,0.0,0.0,0.0,0.0,0.0,0.0,0.0,0.0,0.0,0.0,0.0,0.0,0.0,4.9122,5.0527,5.2232,5.4322,5.4262,5.3807,5.2998,5.151,4.9164,0.0,0.0,0.0,0.0,0.0,0.0,0.0,0.0,0.0,0.0,0.0,0.0,0.0,0.0,0.0,0.0,0.0,0.0,0.0,0.0,0.0,0.0,0.0,0.0,0.0,0.0,0.0,0.0,0.0,0.0,0.0,0.0,0.0,0.0,0.0,0.0,0.0,0.0,0.0,0.0,4.7805,4.7727,4.6963,0.0,0.0,0.0,0.0,0.0,0.0,4.3261,4.2717,0.0,0.0,0.0,0.0,0.0,0.0,0.0,0.0,0.0,0.0,0.0,0.0,0.0,0.0,0.0,0.0,0.0,0.0,0.0,0.0,0.0,0.0,0.0,0.0,0.0,0.0,0.0,0.0,0.0,0.0,0.0,0.0,0.0,0.0,0.0,0.0,0.0,0.0,0.0,0.0,0.0,0.0,0.0,0.0,0.0,0.0,0.0,0.0,0.0,0.0,0.0,0.0,0.0,0.0,0.0,4.8935,5.1113,5.3013,5.4415,5.4056,5.3487,5.28,5.0891,4.8508,0.0,0.0,0.0,0.0,0.0,0.0,0.0,0.0,0.0,0.0,0.0,0.0,0.0,0.0,0.0,0.0,0.0,0.0,0.0,0.0,0.0,0.0,0.0,0.0,0.0,0.0,0.0,0.0,0.0,0.0,0.0,0.0,0.0,0.0,0.0,0.0,0.0,0.0,0.0,0.0,0.0,4.7805,4.7528,4.6151,0.0,0.0,0.0,0.0,4.4774,4.4117,0.0,0.0,0.0,0.0,0.0,0.0,0.0,0.0,0.0,0.0,0.0,0.0,0.0,0.0,0.0,0.0,0.0,0.0,0.0,0.0,0.0,0.0,0.0,0.0,0.0,0.0,0.0,0.0,0.0,0.0,0.0,0.0,0.0,0.0,0.0,0.0,0.0,0.0,0.0,0.0,0.0,0.0,0.0,0.0,0.0,0.0,0.0,0.0,0.0,0.0,0.0,0.0,0.0,0.0,0.0,0.0,5.0244,5.1511,5.3082,5.5025,5.4735,5.3838,5.2589,5.1759,4.952,0.0,0.0,0.0,0.0,0.0,0.0,0.0,0.0,0.0,0.0,0.0,0.0,0.0,0.0,0.0,0.0,0.0,0.0,0.0,0.0,0.0,0.0,0.0,0.0,0.0,0.0,0.0,0.0,0.0,0.0,0.0,0.0,0.0,0.0,0.0,0.0,0.0,0.0,0.0,0.0,0.0,4.9172,4.7679,4.667,4.5733,0.0,0.0,0.0,4.4994,4.6064,0.0,0.0,0.0,0.0,0.0,0.0,0.0,0.0,0.0,0.0,0.0,0.0,0.0,0.0,0.0,0.0,0.0,0.0,0.0,0.0,0.0,0.0,0.0,0.0,0.0,0.0,0.0,0.0,0.0,0.0,0.0,0.0,0.0,0.0,0.0,0.0,0.0,0.0,0.0,0.0,0.0,0.0,0.0,0.0,0.0,0.0,0.0,0.0,0.0,0.0,0.0,0.0,0.0,0.0,0.0,4.7979,4.9127,5.1899,5.3702,5.4466,5.4415,5.3805,5.2503,5.085,4.8448,0.0,0.0,0.0,0.0,0.0,0.0,0.0,0.0,0.0,0.0,0.0,0.0,0.0,0.0,0.0,0.0,0.0,0.0,0.0,0.0,0.0,0.0,0.0,0.0,0.0,0.0,0.0,0.0,0.0,0.0,0.0,0.0,0.0,0.0,0.0,0.0,0.0,0.0,0.0,0.0,0.0,0.0,4.905,4.8248,0.0,0.0,0.0,4.6083,4.6995,0.0,0.0,0.0,0.0,0.0,0.0,0.0,0.0,0.0,0.0,0.0,0.0,0.0,0.0,0.0,0.0,0.0,0.0,0.0,0.0,0.0,0.0,0.0,0.0,0.0,0.0,0.0,0.0,0.0,0.0,0.0,0.0,0.0,0.0,0.0,0.0,0.0,0.0,0.0,0.0,0.0,0.0,0.0,0.0,0.0,0.0,0.0,0.0,0.0,0.0,0.0,0.0,0.0,0.0,0.0,0.0,0.0,4.8726,5.2571,5.4386,5.4091,5.4128,5.3579,5.2243,5.0117,0.0,0.0,0.0,0.0,0.0,0.0,0.0,0.0,0.0,0.0,0.0,0.0,0.0,0.0,0.0,0.0,0.0,0.0,0.0,0.0,0.0,0.0,0.0,0.0,0.0,0.0,0.0,0.0,0.0,0.0,0.0,0.0,0.0,0.0,0.0,0.0,0.0,0.0,0.0,0.0,0.0,0.0,5.0012,4.9813,4.9411,4.9064,0.0,0.0,4.7613,4.8621,4.8311,4.733,0.0,0.0,0.0,0.0,0.0,0.0,0.0,0.0,0.0,0.0,0.0,0.0,0.0,0.0,0.0,0.0,0.0,0.0,0.0,0.0,0.0,0.0,0.0,0.0,0.0,0.0,0.0,0.0,0.0,0.0,0.0,0.0,0.0,0.0,0.0,0.0,0.0,0.0,0.0,0.0,0.0,0.0,0.0,0.0,0.0,0.0,0.0,0.0,0.0,0.0,0.0,0.0,0.0,0.0,0.0,5.0803,5.37,5.4935,5.4465,5.409,5.3233,5.1794,5.035,4.8105,0.0,0.0,0.0,0.0,0.0,0.0,0.0,0.0,0.0,0.0,0.0,0.0,0.0,0.0,0.0,0.0,0.0,0.0,0.0,0.0,0.0,0.0,0.0,0.0,0.0,0.0,0.0,0.0,0.0,0.0,0.0,0.0,0.0,0.0,0.0,0.0,0.0,0.0,0.0,0.0,0.0,4.9795,4.8983,4.9525,4.9712,0.0,0.0,4.96,4.8895,5.075,5.0923,4.6877,0.0,0.0,0.0,0.0,0.0,0.0,0.0,0.0,0.0,0.0,0.0,0.0,0.0,0.0,0.0,0.0,0.0,0.0,0.0,0.0,0.0,0.0,0.0,0.0,0.0,0.0,0.0,0.0,0.0,0.0,0.0,0.0,0.0,0.0,0.0,0.0,0.0,0.0,0.0,0.0,0.0,0.0,0.0,0.0,0.0,0.0,0.0,0.0,0.0,0.0,0.0,0.0,0.0,4.9539,4.9431,5.3189,5.4602,5.3549,5.3191,5.253,5.166,4.979,4.7495,0.0,0.0,0.0,0.0,0.0,0.0,0.0,0.0,0.0,0.0,0.0,0.0,0.0,0.0,0.0,0.0,0.0,0.0,0.0,0.0,0.0,0.0,0.0,0.0,0.0,0.0,0.0,0.0,3.9672,3.9901,3.9775,0.0,0.0,0.0,0.0,0.0,0.0,0.0,0.0,0.0,0.0,5.1171,5.1909,5.1836,0.0,0.0,5.1014,5.0975,5.1171,5.1131,5.0181,4.7484,4.6183,0.0,0.0,0.0,0.0,0.0,0.0,0.0,0.0,0.0,0.0,0.0,0.0,0.0,0.0,0.0,0.0,0.0,0.0,0.0,0.0,0.0,0.0,0.0,0.0,0.0,0.0,0.0,0.0,0.0,0.0,0.0,0.0,0.0,0.0,0.0,0.0,0.0,0.0,0.0,0.0,0.0,0.0,0.0,0.0,0.0,0.0,0.0,0.0,0.0,0.0,0.0,0.0,4.8959,4.8626,5.2509,5.3816,5.2441,5.2238,5.1747,5.1007,4.928,4.7154,0.0,0.0,0.0,0.0,0.0,0.0,0.0,0.0,0.0,0.0,0.0,0.0,0.0,0.0,0.0,0.0,0.0,0.0,0.0,0.0,0.0,0.0,0.0,0.0,0.0,0.0,0.0,0.0,4.07,4.0617,3.9554,0.0,0.0,0.0,0.0,0.0,0.0,0.0,0.0,0.0,0.0,5.2323,5.3771,5.3468,5.3002,5.2761,5.2205,5.1893,5.2259,5.1521,5.0195,4.8213,0.0,0.0,0.0,0.0,0.0,0.0,0.0,0.0,0.0,0.0,0.0,0.0,0.0,0.0,0.0,0.0,0.0,0.0,0.0,0.0,0.0,0.0,0.0,0.0,0.0,0.0,0.0,0.0,0.0,0.0,0.0,0.0,0.0,0.0,0.0,0.0,0.0,0.0,0.0,0.0,0.0,0.0,0.0,0.0,0.0,0.0,0.0,0.0,0.0,0.0,0.0,0.0,0.0,0.0,4.9025,5.1907,5.2714,5.1393,5.1383,5.0884,4.982,4.9048,4.7225,4.4221,0.0,0.0,0.0,0.0,0.0,0.0,0.0,0.0,0.0,0.0,0.0,0.0,0.0,0.0,0.0,0.0,0.0,0.0,0.0,0.0,0.0,0.0,0.0,0.0,0.0,0.0,4.0972,4.105,4.0429,0.0,0.0,0.0,0.0,0.0,0.0,0.0,0.0,0.0,0.0,5.0962,5.2918,5.383,5.3938,5.3669,5.2833,5.2702,5.2386,5.1597,5.2106,5.1757,0.0,0.0,0.0,0.0,0.0,0.0,0.0,0.0,0.0,0.0,0.0,0.0,0.0,0.0,0.0,0.0,0.0,0.0,0.0,0.0,0.0,0.0,0.0,0.0,0.0,0.0,0.0,3.2727,3.2001,0.0,0.0,0.0,0.0,0.0,0.0,0.0,0.0,0.0,0.0,0.0,3.7623,3.7929,0.0,0.0,0.0,0.0,0.0,0.0,0.0,0.0,0.0,0.0,0.0,0.0,4.8,4.8831,5.1571,5.2301,5.0809,5.066,5.0168,4.9395,4.7832,4.5827,4.3311,0.0,0.0,0.0,0.0,0.0,0.0,0.0,0.0,0.0,0.0,0.0,0.0,0.0,0.0,0.0,0.0,0.0,0.0,0.0,0.0,0.0,0.0,0.0,0.0,0.0,4.1686,0.0,0.0,0.0,0.0,0.0,0.0,0.0,0.0,0.0,0.0,0.0,4.6856,5.0025,5.2194,5.3982,5.5432,5.5132,5.4513,0.0,0.0,0.0,0.0,0.0,0.0,0.0,0.0,0.0,0.0,0.0,0.0,0.0,0.0,4.7998,4.4421,4.326,4.2589,4.1725,0.0,0.0,0.0,0.0,0.0,0.0,0.0,0.0,0.0,0.0,0.0,0.0,0.0,0.0,0.0,0.0,3.3393,0.0,0.0,0.0,0.0,0.0,0.0,0.0,0.0,3.6555,3.7319,3.8017,3.8704,3.9289,0.0,3.9809,3.9476,0.0,0.0,0.0,0.0,0.0,0.0,0.0,0.0,4.7455,4.8785,5.1069,5.1556,5.0174,4.9944,4.9358,4.827,4.625,4.4478,4.3061,4.1638,4.0737,0.0,0.0,0.0,0.0,0.0,0.0,0.0,0.0,0.0,0.0,0.0,0.0,0.0,0.0,0.0,0.0,0.0,0.0,0.0,0.0,0.0,0.0,0.0,4.1922,0.0,0.0,0.0,0.0,0.0,0.0,0.0,0.0,0.0,4.4879,4.642,4.8683,5.2115,5.3588,5.496,5.6659,0.0,0.0,0.0,0.0,0.0,0.0,0.0,5.1886,5.0754,5.0334,4.9692,4.8427,4.9278,4.9993,4.9653,0.0,0.0,4.6074,4.5132,4.4654,4.3844,4.4592,4.4978,4.3936,4.4562,4.5047,0.0,0.0,0.0,0.0,0.0,0.0,0.0,0.0,3.3648,3.3942,0.0,3.3434,0.0,0.0,0.0,0.0,0.0,0.0,0.0,0.0,3.9137,3.9544,3.8236,4.0117,4.0968,4.068,4.1024,4.0951,4.0429,3.994,0.0,0.0,0.0,0.0,0.0,0.0,4.6794,4.8924,5.0309,5.0468,4.9292,4.9233,4.837,4.6499,4.4416,4.3323,4.3249,4.2055,4.0954,4.0185,3.9537,0.0,0.0,0.0,0.0,0.0,0.0,0.0,0.0,0.0,0.0,0.0,0.0,0.0,0.0,0.0,0.0,0.0,0.0,0.0,0.0,4.2141,0.0,0.0,0.0,0.0,0.0,0.0,0.0,0.0,0.0,0.0,4.7435,4.8989,5.123,5.4513,0.0,0.0,0.0,0.0,5.4287,5.5069,5.3852,5.3064,5.3791,5.3899,5.3347,5.1683,0.0,0.0,5.0144,5.0424,5.0642,4.9876,5.0275,5.0451,4.9566,4.8548,4.7684,4.6932,4.6852,4.6929,4.6912,4.681,4.6689,3.2302,0.0,0.0,0.0,0.0,3.2908,3.3666,3.4999,3.4824,3.4626,3.4317,3.4003,0.0,0.0,0.0,0.0,0.0,0.0,3.6966,3.7815,3.8828,3.9401,3.9632,4.0169,4.0713,4.1321,4.1552,4.169,4.1831,4.1341,4.0519,3.9376,0.0,0.0,0.0,0.0,4.6735,4.8643,4.9513,4.9539,4.8572,4.8444,4.7446,4.5549,4.4285,4.3498,4.3178,4.2333,4.1552,4.0841,4.0829,0.0,0.0,0.0,0.0,0.0,0.0,0.0,0.0,0.0,0.0,0.0,0.0,0.0,0.0,0.0,0.0,0.0,0.0,0.0,4.1091,4.1761,4.1781,0.0,0.0,0.0,0.0,0.0,0.0,0.0,0.0,0.0,5.0607,5.1403,5.2519,0.0,0.0,5.6153,5.67,5.6152,5.5537,5.5199,0.0,0.0,0.0,5.3448,5.2863,5.2278,5.1794,5.1244,5.0773,5.0758,5.0906,5.1239,5.0894,5.064,5.0905,4.989,4.874,4.7991,4.8183,4.8395,4.7894,4.7758,4.7545,3.3457,3.2688,3.32,3.3648,3.4001,3.4239,3.4966,3.5906,3.5276,3.5036,3.5026,3.4345,3.3547,3.2697,3.2546,0.0,0.0,0.0,3.735,3.8599,3.936,3.9772,3.9949,4.0615,4.1256,4.1869,4.1648,4.1868,4.2496,4.2095,4.1229,4.0034,0.0,0.0,4.3714,4.5168,4.6927,4.8744,4.9054,4.8866,4.8312,4.7117,4.5944,4.4856,4.3786,4.3077,4.2804,4.2559,4.2265,4.1827,4.1567,4.0577,0.0,0.0,0.0,0.0,0.0,0.0,0.0,0.0,0.0,0.0,0.0,3.9147,0.0,0.0,0.0,0.0,4.0307,4.1183,4.203,4.256,0.0,0.0,0.0,0.0,0.0,0.0,0.0,4.5735,4.7546,4.9744,5.2443,5.3374,5.4488,5.6213,5.69,5.7392,5.7767,0.0,5.667,5.6184,5.5831,5.5506,5.4952,5.418,5.3385,5.2562,5.1632,5.102,5.0983,5.1134,5.1432,5.1799,5.1698,5.1491,5.1676,5.0878,4.9963,4.9239,4.9411,4.9603,4.9183,4.8837,4.8318,3.4371,3.4558,3.5029,3.5003,3.4809,3.5953,3.6131,3.5665,3.5345,3.537,3.5506,3.4533,3.4195,3.4282,3.4011,0.0,0.0,3.6538,3.7622,3.9154,4.0451,4.0469,3.9476,4.1089,4.2004,4.2233,4.1437,4.1607,4.2469,4.2197,4.1598,4.0896,4.1555,4.2671,4.4227,4.5445,4.7093,4.8999,4.8607,4.8307,4.805,4.5492,4.4208,4.4352,4.303,4.2369,4.2374,4.2729,4.2847,4.2702,4.1962,4.0738,3.8961,0.0,0.0,0.0,0.0,0.0,0.0,0.0,0.0,0.0,0.0,0.0,0.0,0.0,0.0,0.0,4.1412,0.0,4.3943,4.3925,0.0,0.0,0.0,4.3111,4.341,4.4816,4.5841,4.6143,0.0,0.0,0.0,0.0,5.6732,5.8463,5.8684,5.8978,5.9754,5.8545,5.7642,5.7492,5.6942,5.6495,5.6232,5.5434,5.4186,5.2486,5.1552,5.1029,5.1006,5.1391,5.1818,5.1953,5.2368,5.2456,5.1767,5.1491,5.1262,5.0517,5.0423,5.0504,5.047,4.9855,4.9009,3.5126,3.5829,3.6305,3.6094,3.5488,3.6011,3.6292,3.6257,3.5966,3.5864,3.5801,3.5143,3.5029,3.5354,3.5491,3.6261,3.7375,3.8746,3.9658,4.0229,4.0507,4.0577,4.0365,4.0128,4.0621,4.151,4.112,4.1285,4.2072,4.1399,4.1044,4.114,4.2153,4.3246,4.4496,4.5111,4.6271,4.7983,4.7053,4.6481,4.6222,4.4431,4.3698,4.4025,4.2466,4.1788,4.2163,4.2251,4.1956,4.1144,4.2014,4.1162,3.8164,3.6002,0.0,0.0,0.0,0.0,0.0,0.0,0.0,0.0,0.0,3.8402,3.6839,0.0,3.9221,0.0,4.1288,4.2547,4.3063,4.3082,0.0,0.0,4.3923,4.4362,4.5533,4.6185,4.7349,4.9276,5.0254,5.1949,5.494,5.6213,5.7545,5.9205,5.897,5.869,5.8811,5.8638,5.822,5.7677,5.743,5.7097,5.6347,5.5058,5.343,5.1618,5.1121,5.0945,5.0935,5.093,5.1125,5.1662,5.1322,5.1109,5.1481,5.1037,5.0541,5.0344,5.0435,5.0521,5.0584,4.9931,4.9219,3.5318,3.6073,3.6428,3.6365,3.5974,3.6602,3.6712,3.6445,3.5859,3.561,3.555,3.5179,3.5521,3.6259,3.6374,3.714,3.8415,3.9287,4.008,4.0661,4.061,4.0562,4.0448,3.9916,4.0061,4.0918,4.0475,4.0575,4.1135,4.0862,4.0812,4.0994,4.213,4.3294,4.4292,4.5144,4.6027,4.6999,4.636,4.5651,4.4958,4.3784,4.327,4.3267,4.1796,4.1121,4.1421,4.1309,4.0942,4.0456,4.1324,4.0555,3.7877,3.6459,3.5286,0.0,0.0,0.0,0.0,0.0,0.0,0.0,0.0,0.0,0.0,0.0,3.8715,0.0,4.2385,0.0,4.4607,4.4326,4.444,4.5228,4.4821,4.512,4.6793,4.7221,4.8241,5.0355,5.1337,5.3012,5.5961,5.7117,5.8273,5.9926,5.984,5.9631,5.9611,5.9705,5.9503,5.87,5.828,5.73,5.5423,5.4255,5.301,5.1377,5.0945,5.0913,5.0919,5.1009,5.1201,5.1237,5.1047,5.0846,5.0912,5.0544,5.0163,5.0259,5.0367,5.0457,5.0521,4.9562,4.8659,3.5175,3.5996,3.623,3.6297,3.6357,3.7263,3.7152,3.6321,3.5491,3.5155,3.5278,3.5246,3.5879,3.7061,3.699,3.7849,3.9344,3.9207,3.9757,4.0665,4.0671,4.0417,4.0019,3.978,3.9845,4.0236,3.9688,3.9651,4.0091,4.0455,4.0674,4.0678,4.1748,4.2754,4.3595,4.4866,4.5571,4.5678,4.5648,4.5083,4.3975,4.3287,4.2777,4.2358,4.1051,4.0375,4.044,4.017,3.9976,4.0055,4.0311,3.961,3.7755,3.6954,3.5647,0.0,3.3426,0.0,0.0,0.0,0.0,0.0,0.0,0.0,0.0,3.7444,3.9082,4.2717,4.3896,4.5106,4.6732,4.6064,4.5942,4.6769,4.5833,4.5799,4.7562,4.8165,4.9081,5.0696,5.241,5.4451,5.6797,5.7879,5.8973,6.0339,6.0681,6.0696,6.0882,6.0923,6.0654,5.9994,5.8987,5.703,5.4293,5.3404,5.2763,5.1283,5.0919,5.0919,5.0863,5.126,5.139,5.0811,5.0941,5.0988,5.0278,5.0152,5.0114,5.0212,5.0298,5.0306,5.0342,4.9461,4.8269,3.5341,3.6744,3.6744,3.6813,3.7049,3.7198,3.6686,3.5683,3.5567,3.557,3.5664,3.6144,3.6773,3.7556,3.8099,3.897,4.0047,4.0186,4.0177,4.0146,3.9849,3.9531,3.9102,3.8547,3.8718,3.9501,3.8709,3.8964,4.0274,3.9519,3.9802,4.0888,4.1346,4.1573,4.1731,0.0,0.0,0.0,4.2888,4.3008,4.2963,4.2346,4.1788,4.1313,4.0457,0.0,3.9623,3.9523,3.9372,3.919,4.0022,0.0,0.0,0.0,0.0,0.0,0.0,0.0,0.0,0.0,0.0,0.0,3.6497,3.6894,3.8047,4.0184,4.2514,4.4992,4.4586,4.464,4.5731,4.5237,4.5115,4.5781,4.6403,4.717,4.8261,4.9746,5.12,5.2311,5.3989,5.5738,5.7604,5.8552,5.9409,6.0341,6.0506,6.0533,6.066,6.0804,6.0629,5.9843,5.8101,5.5952,5.3756,5.2884,5.2227,5.1095,5.0863,5.0846,5.0776,5.0779,5.0811,5.0457,5.0388,5.0317,5.0076,4.9986,5.0024,5.0089,5.0152,5.0226,5.039,5.0183,4.9893,3.4606,0.0,3.5962,3.6032,0.0,3.634,3.5917,3.5096,3.5264,3.5574,3.6069,3.643,3.7121,3.8219,3.8551,3.9204,3.998,4.0191,4.0101,3.9893,3.9532,3.9155,3.8702,3.8141,3.8153,3.858,3.822,3.84,3.9031,3.887,3.9269,4.0189,4.0213,4.0492,4.0986,4.0986,4.1245,4.1698,4.2038,4.217,4.2142,4.1868,4.1312,4.0458,0.0,0.0,0.0,0.0,0.0,0.0,0.0,0.0,0.0,0.0,0.0,3.4005,3.4055,3.4414,3.5217,3.5303,3.5769,3.6906,3.7632,3.8219,3.8714,4.097,4.3446,4.5909,4.5493,4.57,4.7047,4.6514,4.6327,4.7117,4.711,4.7654,4.9344,5.0328,5.1662,5.3683,5.4877,5.6266,5.8387,5.8936,5.9469,6.0217,6.037,6.0398,6.0518,6.066,6.0404,5.9258,5.7698,5.5731,5.3686,5.2974,5.2183,5.1105,5.0738,5.0738,5.0682,5.0586,5.05,5.039,5.0201,5.0012,5.0024,5.021,5.0372,5.0228,5.0469,5.0596,5.0397,5.0061,4.9755,3.3705,3.4484,3.4838,3.5008,3.5078,3.5357,3.5244,3.4785,0.0,0.0,0.0,3.6432,3.7285,3.8462,3.8682,3.8953,3.9485,3.9657,3.9581,3.942,3.9025,3.8654,3.815,3.7935,3.7735,3.7714,3.7823,3.7989,3.8121,3.8559,3.8914,3.9188,3.9182,3.957,4.0293,3.9768,4.0084,4.1197,4.1527,4.1591,4.1392,4.1305,4.07,3.9742,3.898,3.8347,3.7831,3.7361,3.6923,3.6577,3.7148,3.6782,3.5218,3.4418,3.3982,3.3975,3.4615,3.5337,3.6163,3.6243,3.6675,3.7656,3.9097,3.9808,3.9546,4.1356,4.3571,4.6089,4.617,4.676,4.8379,4.7787,4.7675,4.8709,4.7868,4.8203,5.0522,5.0875,5.1954,5.4432,5.5441,5.6588,5.8498,5.9081,5.9474,5.9968,6.0226,6.0352,6.037,6.0367,5.9903,5.8566,5.7274,5.5746,5.392,5.2927,5.2354,5.1125,5.0779,5.0664,5.0606,5.0525,5.0457,5.0283,5.0114,4.9986,4.9997,5.0344,5.0582,5.0164,5.0634,5.099,5.0403,4.9763,4.9381,3.3564,3.4369,3.4484,3.4555,3.4626,3.4838,3.4975,3.503,3.5112,3.5444,3.6006,3.6694,3.7286,3.7811,3.8486,3.8674,3.8612,3.8582,3.8364,0.0,3.7741,3.7466,3.6971,3.7151,3.7309,3.7404,3.7529,3.8105,3.887,3.8719,3.8723,3.9073,3.9033,3.8908,3.8713,3.8141,3.8363,3.9508,3.984,4.0256,4.0622,4.0007,3.9478,3.8936,3.8218,3.7589,3.718,3.704,3.7052,3.7175,3.6394,3.6007,3.6215,3.5789,3.5462,3.5263,3.5303,3.5732,3.6721,3.6794,3.7413,3.8865,4.0311,4.0999,4.0693,4.2809,4.4565,4.5435,4.5846,4.6323,4.702,4.6727,4.7093,4.8384,4.8637,4.9433,5.1448,5.2416,5.3156,5.405,5.5931,5.7224,5.7848,5.8856,5.9658,5.9777,5.995,6.0045,6.0141,5.9855,5.9216,5.8179,5.6736,5.5393,5.4104,5.2801,5.2001,5.1698,5.099,5.0606,5.0584,5.05,5.0405,5.0274,5.0024,4.989,4.9955,4.9844,5.0099,5.0149,5.0392,5.0456,5.0304,5.0062,4.9973,3.2681,3.3146,3.3406,3.3549,3.3577,3.4271,3.4882,3.528,3.5263,3.5839,3.6813,3.7205,3.7693,3.8282,3.8679,3.8588,3.8251,3.8322,3.7978,3.7231,3.7235,3.7052,3.6838,3.6923,3.7109,3.7411,3.7623,3.7965,3.8457,3.8573,3.862,3.8597,3.847,3.8184,3.7594,3.7987,3.8372,3.8764,3.8972,3.9328,3.9904,3.9924,3.9474,3.8584,3.8205,3.7776,3.7269,3.6934,3.6636,3.6376,3.638,3.6141,3.5616,3.5723,3.5687,3.5325,3.5787,3.6249,3.671,3.7538,3.851,3.9625,4.0738,4.1459,4.1758,4.3208,4.4841,4.6395,4.6415,4.6608,4.7529,4.7716,4.8159,4.9047,4.964,5.0673,5.2143,5.3273,5.4264,5.541,5.6942,5.8116,5.8438,5.916,5.9613,5.9616,5.9681,5.9847,6.0,5.9073,5.8307,5.7889,5.646,5.4893,5.3719,5.2877,5.1982,5.1245,5.0773,5.0542,5.0457,5.039,5.0427,5.0596,5.022,5.0062,5.0354,5.0837,5.0903,5.0806,5.1543,5.1722,5.1128,5.0495,5.0226,3.2036,3.2228,3.2489,3.2704,3.2901,3.3972,3.4767,3.518,3.5424,3.6091,3.7138,3.7151,3.7549,3.8179,3.8209,3.8001,3.7682,3.7734,3.7473,3.6935,3.6844,3.6839,3.6917,3.6902,3.7067,3.7302,3.7717,3.7796,3.7728,3.8267,3.8364,3.7913,3.7612,3.7364,3.7061,3.7653,3.8097,3.8369,3.8221,3.852,3.9344,3.9486,3.9058,3.8185,3.7922,3.7624,3.7128,3.6713,3.629,3.5893,3.6536,3.6443,3.5355,3.5715,3.5825,3.5615,3.6363,3.7005,3.7327,3.8543,3.958,4.0224,4.0971,4.1725,4.2494,4.3386,4.4941,4.7017,4.7175,4.7379,4.8166,4.8935,4.9601,5.0068,5.0741,5.1748,5.3161,5.4046,5.5085,5.6659,5.7667,5.8382,5.8913,5.9251,5.9438,5.9438,5.9395,5.9416,5.936,5.8173,5.7317,5.7082,5.6092,5.4683,5.3264,5.2831,5.2169,5.0864,5.055,5.0566,5.0535,5.0488,5.0506,5.0806,5.0326,5.0185,5.0828,5.1374,5.166,5.1575,5.2361,5.2769,5.1505,5.0888,5.0555,3.2036,3.2182,3.2372,3.2632,3.3071,3.3972,3.4466,3.4691,3.5554,3.5999,3.6212,3.5886,3.612,3.6503,3.659,3.6482,3.6143,3.5947,3.623,3.661,3.635,3.6514,3.7001,3.7126,3.6966,3.6814,3.731,3.7415,3.7123,3.7594,3.7685,3.7192,3.6384,3.6554,3.7444,3.6238,3.6411,3.8269,3.7184,3.7427,3.903,3.7908,3.7206,3.724,3.66,3.6233,3.6397,3.6429,3.6485,3.6457,3.6655,3.6736,3.6516,3.6591,3.6591,3.6596,3.7341,3.8274,3.9191,4.005,4.0593,4.0842,4.1392,4.1931,4.2394,4.3543,4.5036,4.6722,4.7806,4.8191,4.8524,4.9386,5.0286,5.1121,5.1669,5.2736,5.4348,5.4909,5.5395,5.6407,5.7302,5.7749,5.801,5.8532,5.9022,5.9103,5.8689,5.8384,5.8264,5.7129,5.6144,5.6116,5.5443,5.4696,5.3802,5.3069,5.2425,5.1596,5.0856,5.0756,5.0999,5.0697,5.0304,5.0799,5.0421,5.0174,5.0732,5.111,5.1488,5.2134,5.2399,5.2218,5.1339,5.1098,5.118,3.2372,3.2864,3.2626,3.2775,3.3127,3.4074,3.4622,3.4927,3.5508,3.5854,3.5906,3.5339,3.5565,3.6286,3.6286,3.6108,3.58,3.6153,3.6291,3.6238,3.636,3.6611,3.691,3.6585,3.6599,3.6816,3.7098,3.713,3.6921,3.6987,3.6947,3.6813,3.6105,3.6052,3.6662,3.6152,3.6443,3.7517,3.6898,3.6936,3.7537,3.7564,3.7352,3.7002,3.6706,3.657,3.659,3.6345,3.6191,3.6191,3.6402,3.6527,3.6602,3.6766,3.6926,3.7001,3.7747,3.843,3.8788,4.001,4.076,4.0742,4.1858,4.2679,4.2987,4.4147,4.5468,4.6507,4.7283,4.7787,4.8461,4.9361,5.0516,5.1863,5.274,5.3812,5.5212,5.5928,5.645,5.6788,5.7575,5.8095,5.8048,5.8471,5.8639,5.8463,5.8053,5.7791,5.7339,5.6324,5.5723,5.5601,5.5131,5.4489,5.3841,5.349,5.2862,5.2322,5.1865,5.1763,5.1178,5.1022,5.0761,5.0921,5.053,5.0614,5.1443,5.2076,5.2529,5.281,5.2364,5.2032,5.1752,5.1415,5.1592,3.2472,3.2919,3.2726,3.2704,3.3,3.3744,3.4205,3.4427,3.4799,3.4994,3.5106,3.4625,3.4909,3.5523,3.5722,3.5601,3.5458,3.6006,3.6251,3.6202,3.6394,3.6722,3.7003,3.6457,3.6403,3.6688,3.69,3.6864,3.6852,3.6369,3.6273,3.6322,3.5823,3.564,3.5915,3.5829,3.6013,3.6554,3.6237,3.6061,3.6303,3.6868,3.6962,3.6559,3.6571,3.6537,3.6537,3.6161,3.5932,3.5932,3.6148,3.6276,3.636,3.6609,3.6946,3.7521,3.8304,3.8831,3.9076,4.0418,4.1202,4.1227,4.2412,4.3335,4.3768,4.4624,4.5646,4.6702,4.6931,4.75,4.8611,4.9718,5.1056,5.2635,5.3499,5.441,5.5757,5.6581,5.6895,5.7161,5.7692,5.8186,5.8179,5.8356,5.8354,5.7776,5.7449,5.7116,5.6332,5.5584,5.506,5.5096,5.464,5.4171,5.3626,5.3252,5.2978,5.2351,5.182,5.1337,5.1026,5.0932,5.111,5.1096,5.0922,5.123,5.209,5.2849,5.2924,5.2843,5.2504,5.2059,5.1939,5.1722,5.2352,3.2063,3.2282,3.2372,3.2561,3.2731,3.2842,3.2842,3.3052,3.3167,3.3211,3.3421,3.3718,3.387,3.4025,3.4427,3.4583,3.4756,3.4932,3.5712,3.6663,3.6487,3.6764,3.751,3.695,3.648,3.6218,3.6536,3.6741,3.677,3.6081,3.5702,3.5763,3.5229,3.5225,3.5559,3.4611,3.4484,3.5527,3.5087,3.4886,3.5312,3.5425,3.5597,3.5678,3.569,3.5723,3.569,3.5745,3.58,3.58,3.5932,3.6019,3.6019,3.6096,3.6844,3.8328,3.9202,4.0054,4.0906,4.1745,4.2246,4.2382,4.3019,4.3729,4.4209,4.4663,4.5591,4.7247,4.728,4.7829,4.9075,5.0432,5.1844,5.3219,5.3592,5.4629,5.6327,5.6528,5.683,5.7267,5.751,5.7679,5.795,5.817,5.7899,5.7371,5.6718,5.606,5.5356,5.4577,5.4242,5.4241,5.4092,5.3829,5.3282,5.3208,5.2454,5.2058,5.1869,5.0657,5.0487,5.0581,5.1058,5.1337,5.1306,5.1688,5.2661,5.2779,5.2371,5.2258,5.2296,5.2108,5.2226,5.2961,5.3451,3.2372,3.2489,3.2561,3.2632,3.2731,3.2946,3.3065,3.3093,3.3403,3.3594,3.3586,3.3768,3.3959,3.4073,3.4163,3.4399,3.4785,3.5517,3.612,3.6545,3.6937,3.7016,3.6738,3.6429,3.6058,3.5817,3.6218,3.6561,3.6652,3.6058,3.5734,3.5581,3.5078,3.4966,3.511,3.4186,3.4098,3.504,3.4708,3.4643,3.4916,3.5011,3.5071,3.5165,3.5441,3.5622,3.5622,3.5667,3.5667,3.5667,3.58,3.5888,3.6053,3.6638,3.7534,3.8668,3.933,4.0089,4.0967,4.173,4.2439,4.2992,4.3765,4.4335,4.4605,4.5107,4.5908,4.6969,4.7701,4.8347,4.9362,5.0661,5.2157,5.3728,5.4611,5.5397,5.64,5.6711,5.6855,5.7051,5.7188,5.7437,5.7763,5.7904,5.7712,5.7205,5.6399,5.5665,5.4892,5.4158,5.3829,5.3831,5.3869,5.3833,5.3756,5.3737,5.3559,5.3402,5.3063,5.2548,5.2258,5.1845,5.2156,5.1855,5.178,5.2033,5.2897,5.2902,5.2419,5.1874,5.1911,5.2428,5.2582,5.3301,5.383,3.2417,3.2516,3.2561,3.2516,3.2544,3.2782,3.2973,3.3001,3.3261,3.3376,3.337,3.3532,3.3701,3.3931,3.4025,3.4264,3.4651,3.5601,3.6041,3.6043,3.6646,3.6626,3.6084,3.5978,3.5737,3.5413,3.5699,3.6052,3.6149,3.5703,3.5419,3.54,3.4842,3.4554,3.4498,3.4013,3.4091,3.4611,3.4632,3.4658,3.4874,3.4871,3.4916,3.4977,3.5304,3.552,3.5487,3.5577,3.5622,3.5656,3.5926,3.6253,3.6693,3.7556,3.8377,3.8974,3.98,4.0521,4.1202,4.2085,4.2881,4.3457,4.4268,4.4783,4.4888,4.5269,4.5927,4.6776,4.7469,4.834,4.9582,5.0978,5.252,5.3904,5.4916,5.5809,5.6616,5.6724,5.6671,5.6671,5.6829,5.7138,5.7437,5.7583,5.7408,5.6948,5.636,5.5779,5.5133,5.4658,5.4256,5.4337,5.4309,5.4275,5.4205,5.4164,5.3743,5.3515,5.3203,5.3178,5.315,5.2888,5.2738,5.2473,5.2432,5.2611,5.2761,5.2911,5.2476,5.1815,5.2148,5.2738,5.311,5.359,5.4312,3.2209,3.2309,3.2255,3.2282,3.2255,3.2309,3.2282,3.2336,3.2264,3.2372,3.2472,3.2786,3.317,3.3396,3.3813,3.4128,3.4408,3.4864,3.5153,3.5254,3.5571,3.5668,3.544,3.5629,3.5494,3.517,3.5107,3.5236,3.5357,3.5125,3.5001,3.4878,3.4546,3.4235,3.3723,3.3973,3.4125,3.4343,3.4494,3.4812,3.5143,3.4857,3.4772,3.5077,3.5265,3.5392,3.5358,3.5554,3.5678,3.5791,3.6401,3.7138,3.7853,3.8601,3.9214,3.9486,4.056,4.1325,4.1767,4.2945,4.3647,4.397,4.4565,4.4995,4.502,4.5192,4.5617,4.6563,4.7215,4.8037,4.9861,5.1466,5.2831,5.3616,5.4453,5.547,5.6223,5.6364,5.6288,5.6435,5.6635,5.6742,5.7021,5.7384,5.734,5.6864,5.6612,5.6418,5.5809,5.5527,5.5729,5.566,5.5221,5.4899,5.4721,5.4465,5.3795,5.3196,5.2813,5.2623,5.2746,5.2601,5.297,5.2819,5.2772,5.2881,5.2878,5.299,5.2663,5.226,5.2671,5.3157,5.3786,5.4378,5.5119,3.3001,3.3001,3.3001,3.2682,3.2209,3.2182,3.2182,3.2182,3.2182,3.2182,3.2228,3.2516,3.2775,3.3058,3.3269,3.3437,3.3662,3.4192,3.4659,3.4985,3.5058,3.5033,3.4952,3.5141,3.5251,3.5186,3.4873,3.4925,3.5172,3.5028,3.4984,3.5075,3.4785,3.4516,3.4334,3.4352,3.4234,3.4022,3.4265,3.4643,3.5001,3.459,3.4627,3.5235,3.5596,3.5789,3.5933,3.6169,3.6262,3.6308,3.7077,3.7916,3.869,3.9064,3.9676,4.0612,4.0933,4.1639,4.2605,4.3132,4.3728,4.4245,4.4763,4.4975,4.5118,4.5473,4.6088,4.6999,4.774,4.885,5.041,5.1716,5.2718,5.3233,5.462,5.5582,5.5865,5.5971,5.6069,5.6528,5.6944,5.7333,5.7567,5.7742,5.7637,5.7195,5.6828,5.6447,5.6273,5.6014,5.5698,5.5625,5.546,5.5544,5.5447,5.5273,5.4758,5.4092,5.3497,5.286,5.2753,5.2754,5.3088,5.3271,5.3155,5.315,5.311,5.3,5.2746,5.2823,5.3197,5.3792,5.4499,5.5168,5.5836,3.3485,3.3547,3.3281,3.2969,3.261,3.261,3.255,3.2361,3.2407,3.2299,3.2282,3.2345,3.2561,3.2846,3.2988,3.3058,3.3198,3.3633,3.4032,3.441,3.463,3.4523,3.4319,3.4492,3.474,3.4947,3.4556,3.447,3.4606,3.4603,3.4735,3.4949,3.4579,3.4442,3.46,3.4668,3.4568,3.4461,3.4773,3.511,3.539,3.5057,3.5104,3.5701,3.6156,3.6357,3.6505,3.6935,3.7211,3.7287,3.7922,3.8817,3.9749,3.9968,4.0443,4.1321,4.1735,4.2165,4.3004,4.3418,4.3721,4.4249,4.4553,4.4868,4.5196,4.5648,4.6225,4.7607,4.7946,4.8779,5.0359,5.1562,5.2313,5.3077,5.4513,5.5426,5.5507,5.5753,5.6129,5.6575,5.7034,5.7412,5.7636,5.7603,5.765,5.7325,5.6988,5.6806,5.6791,5.6685,5.6475,5.63,5.6287,5.6337,5.6233,5.5987,5.5743,5.5158,5.457,5.3867,5.3458,5.3346,5.3459,5.3572,5.3571,5.3532,5.3493,5.3384,5.32,5.3497,5.3646,5.4131,5.4727,5.562,5.6328,3.3629,3.3837,3.3095,3.2921,3.3141,3.3063,3.2844,3.2568,3.2589,3.2368,3.2236,3.2273,3.2489,3.2704,3.2775,3.2874,3.304,3.3238,3.3365,3.3515,3.3933,3.4121,3.3843,3.3904,3.4151,3.4534,3.4259,3.403,3.3788,3.3911,3.4088,3.4341,3.4208,3.4115,3.4528,3.494,3.5248,3.5276,3.5636,3.5958,3.6388,3.6062,3.6099,3.643,3.6776,3.6982,3.7184,3.7918,3.8321,3.8179,3.8783,3.9665,4.0673,4.1081,4.1249,4.1909,4.259,4.2858,4.316,4.3618,4.3987,4.4064,4.4212,4.4514,4.5345,4.5581,4.626,4.8001,4.7905,4.8303,4.9965,5.1065,5.2033,5.3141,5.4391,5.4957,5.5069,5.5741,5.6117,5.6571,5.6846,5.714,5.7477,5.7333,5.7208,5.7021,5.7065,5.7242,5.7352,5.7302,5.7653,5.7454,5.6988,5.6969,5.6867,5.6809,5.6535,5.5981,5.5475,5.4958,5.4186,5.4004,5.3899,5.398,5.3758,5.3796,5.3758,5.3609,5.3572,5.3646,5.3944,5.4353,5.5099,5.6033,5.6968,3.395,3.4644,3.3765,3.2978,3.2484,3.2458,3.214,3.1761,3.1883,3.2005,3.1963,3.2182,3.2372,3.2489,3.23,3.2445,3.2907,3.3024,3.3172,3.3271,3.37,3.4037,3.3965,3.3804,3.3882,3.4396,3.4052,3.3705,3.3633,3.3772,3.3951,3.402,3.4292,3.4471,3.4699,3.5224,3.5427,3.5309,3.546,3.591,3.6285,3.6031,3.6172,3.7178,3.7425,3.7722,3.8015,3.8905,3.9309,3.9261,3.9396,3.9967,4.0802,4.0936,4.1418,4.2322,4.2722,4.3032,4.3406,4.3789,4.3981,4.3956,4.4181,4.4465,4.5236,4.5771,4.6541,4.7642,4.7948,4.8946,5.0511,5.118,5.2289,5.4114,5.4574,5.4689,5.4884,5.4953,5.5403,5.6634,5.7246,5.7515,5.7848,5.7875,5.771,5.71,5.7021,5.7188,5.7289,5.7486,5.7583,5.7583,5.7375,5.747,5.7491,5.7519,5.7271,5.672,5.636,5.6066,5.5306,5.4691,5.4633,5.4684,5.3827,5.3643,5.372,5.3683,5.3757,5.3754,5.4237,5.4682,5.5767,5.6779,5.7602,3.406,3.4838,3.3775,3.3091,3.262,3.262,3.2175,3.1672,3.1691,3.1856,3.1944,3.2109,3.2228,3.2155,3.2036,3.2213,3.2702,3.2802,3.2986,3.326,3.3579,3.3894,3.4074,3.3855,3.4019,3.4498,3.3991,3.3803,3.3734,3.3677,3.3744,3.3951,3.4293,3.4496,3.4735,3.5264,3.5537,3.5581,3.5921,3.6445,3.6641,3.6753,3.7317,3.8092,3.8349,3.8723,3.9445,3.9984,4.008,3.9811,3.9729,4.0113,4.0976,4.1255,4.1843,4.2808,4.323,4.3661,4.3992,4.4464,4.4783,4.4737,4.4863,4.5263,4.5896,4.6624,4.7358,4.8189,4.8792,4.9957,5.1159,5.1796,5.2706,5.3955,5.436,5.4524,5.4853,5.4853,5.5464,5.6482,5.7074,5.7553,5.8245,5.7977,5.7484,5.7118,5.6886,5.6989,5.7036,5.7239,5.7437,5.7388,5.7437,5.751,5.7521,5.7543,5.7611,5.7125,5.6942,5.6759,5.5998,5.5251,5.4907,5.4589,5.3964,5.3484,5.3563,5.3602,5.3521,5.3702,5.4371,5.5158,5.6095,5.7144,5.8082,3.3854,3.463,3.3409,3.3013,3.3083,3.3027,3.241,3.1836,3.1856,3.192,3.1998,3.2164,3.2272,3.1998,3.2165,3.2204,3.2611,3.2725,3.2982,3.3307,3.3546,3.3861,3.4204,3.4199,3.4393,3.4675,3.425,3.3973,3.3896,3.3648,3.3677,3.3927,3.4146,3.439,3.4785,3.5251,3.5644,3.5993,3.6865,3.7341,3.7497,3.7991,3.8607,3.9055,3.9469,3.9903,4.0533,4.0877,4.0621,3.9893,3.9845,4.0421,4.1299,4.1914,4.2558,4.3295,4.4141,4.4632,4.4731,4.543,4.5851,4.5645,4.5781,4.6245,4.6709,4.7305,4.8099,4.8895,4.9791,5.0524,5.153,5.2504,5.3212,5.3821,5.4157,5.4462,5.5008,5.5144,5.5514,5.6601,5.6478,5.7108,5.7596,5.7409,5.6454,5.6736,5.6652,5.6671,5.676,5.6933,5.7138,5.7188,5.7289,5.7437,5.7486,5.7486,5.751,5.746,5.7375,5.7036,5.6223,5.5524,5.4972,5.4516,5.416,5.3723,5.3363,5.3359,5.3387,5.387,5.4621,5.5332,5.6158,5.7241,5.8219,3.3219,3.4445,3.2568,3.2018,3.2272,3.1832,3.1345,3.0981,3.1333,3.1655,3.1924,3.2395,3.2658,3.2813,3.2585,3.2856,3.3278,3.3057,3.3116,3.3604,3.3615,3.3946,3.4293,3.4419,3.4578,3.473,3.4519,3.4214,3.4001,3.4304,3.4269,3.3817,3.4589,3.4893,3.468,3.5503,3.6104,3.6394,3.7364,3.8004,3.824,3.8748,3.9344,3.9834,4.0378,4.071,4.0925,4.0958,4.086,4.0689,4.0532,4.0885,4.1802,4.2676,4.3394,4.4146,4.4966,4.552,4.5553,4.5656,4.5692,4.5821,4.5861,4.5832,4.6584,4.7441,4.8133,4.886,4.9689,5.0687,5.1558,5.226,5.3168,5.3975,5.4138,5.4472,5.5391,5.5173,5.5416,5.6406,5.6744,5.6893,5.7498,5.7596,5.6951,5.6467,5.6283,5.6308,5.6527,5.6653,5.6956,5.7169,5.7237,5.7427,5.7543,5.747,5.7351,5.7449,5.7437,5.7338,5.649,5.6079,5.5614,5.5139,5.4569,5.4179,5.3781,5.3482,5.3586,5.4265,5.4981,5.576,5.6583,5.7561,5.8122,3.2637,3.3196,3.1993,3.1525,3.1493,3.1316,3.0958,3.0851,3.1123,3.1495,3.1924,3.2482,3.2648,3.2653,3.2672,3.2986,3.329,3.327,3.3275,3.3615,3.3751,3.4089,3.4454,3.4794,3.4981,3.506,3.4886,3.4589,3.4483,3.4724,3.4735,3.4256,3.4934,3.5114,3.499,3.576,3.6149,3.6626,3.7879,3.8678,3.8666,3.9339,3.9945,4.0419,4.1045,4.1517,4.1549,4.1938,4.2037,4.194,4.1671,4.1727,4.261,4.3578,4.4388,4.494,4.5725,4.6185,4.6187,4.655,4.6814,4.668,4.6651,4.6815,4.7441,4.8233,4.8892,4.9519,5.0413,5.1446,5.1777,5.2335,5.3202,5.3473,5.4203,5.47,5.5081,5.4979,5.5306,5.6362,5.6577,5.7122,5.7489,5.7532,5.7297,5.6761,5.5801,5.5799,5.6205,5.6466,5.7009,5.728,5.7263,5.7388,5.7578,5.75,5.7152,5.7202,5.7202,5.7123,5.6732,5.6523,5.643,5.5822,5.5122,5.4883,5.4569,5.4188,5.4122,5.4876,5.5668,5.6331,5.6919,5.7516,5.7929,3.2118,3.2067,3.1681,3.1292,3.0978,3.1033,3.0958,3.0875,3.1224,3.1596,3.2025,3.2562,3.2738,3.2511,3.283,3.295,3.2976,3.3191,3.336,3.3641,3.3894,3.434,3.4703,3.5061,3.5359,3.5494,3.5217,3.4876,3.4879,3.5088,3.5305,3.5125,3.5395,3.5635,3.5729,3.6134,3.6654,3.6969,3.8485,3.929,3.9057,3.9897,4.0543,4.1087,4.1566,4.1949,4.211,4.259,4.3101,4.3197,4.2977,4.3105,4.3783,4.4788,4.5504,4.5537,4.629,4.6848,4.7111,4.7539,4.7902,4.8034,4.7968,4.8068,4.8332,4.8993,4.9618,5.034,5.1098,5.1993,5.2046,5.2393,5.2524,5.2828,5.4185,5.481,5.4721,5.4933,5.581,5.6443,5.6599,5.6952,5.7329,5.7423,5.7235,5.6934,5.5951,5.5469,5.5918,5.6329,5.6936,5.7448,5.756,5.7567,5.7675,5.7329,5.7021,5.7015,5.7015,5.6933,5.6848,5.6753,5.6559,5.6213,5.5702,5.5431,5.5195,5.4911,5.5066,5.5713,5.6161,5.6683,5.7116,5.751,5.773,3.2342,3.1836,3.1423,3.1214,3.1059,3.0727,3.0776,3.1224,3.1447,3.1743,3.2272,3.2993,3.3218,3.3198,3.361,3.3579,3.3148,3.3189,3.3496,3.3836,3.4147,3.4481,3.5059,3.5304,3.5656,3.5734,3.5456,3.5278,3.5607,3.5958,3.602,3.6043,3.6461,3.6736,3.6616,3.7134,3.7564,3.7774,3.9113,3.9695,3.9833,4.0411,4.1135,4.153,4.1916,4.2077,4.2269,4.2845,4.3229,4.3261,4.3645,4.4359,4.5174,4.6287,4.6552,4.6421,4.688,4.7605,4.7968,4.7802,4.8001,4.8134,4.8067,4.8198,4.8594,4.9189,4.9912,5.0555,5.1205,5.1754,5.1868,5.2366,5.2845,5.3411,5.424,5.5136,5.5319,5.5764,5.615,5.6554,5.66,5.6806,5.7225,5.7398,5.7256,5.6936,5.627,5.5876,5.6125,5.6475,5.6916,5.74,5.7846,5.7882,5.7853,5.7298,5.6865,5.6825,5.6825,5.6845,5.6776,5.6776,5.6608,5.6292,5.6128,5.5946,5.5713,5.5541,5.5862,5.6438,5.6694,5.6951,5.7271,5.7627,5.7664,3.1744,3.1086,3.0778,3.0624,3.0573,3.0496,3.0748,3.1272,3.1522,3.1931,3.2509,3.3005,3.3278,3.33,3.3591,3.3471,3.324,3.3326,3.3641,3.4089,3.4507,3.4812,3.5413,3.5656,3.5898,3.6053,3.5848,3.5697,3.6031,3.6722,3.6768,3.672,3.7186,3.7317,3.7285,3.7718,3.8098,3.8501,3.9335,4.0011,4.0112,4.0677,4.1278,4.1866,4.1907,4.191,4.2518,4.3055,4.3627,4.3939,4.4611,4.5298,4.603,4.6601,4.7104,4.7008,4.7533,4.8128,4.8559,4.8456,4.882,4.9158,4.889,4.9022,4.9453,4.9951,5.0336,5.0936,5.1173,5.1587,5.217,5.2595,5.2961,5.3448,5.4528,5.5115,5.5197,5.5777,5.6179,5.648,5.6535,5.6868,5.7345,5.7426,5.7226,5.6884,5.6501,5.6422,5.6379,5.6773,5.7227,5.7938,5.8425,5.8259,5.8131,5.7655,5.7155,5.7011,5.6973,5.6992,5.6831,5.6903,5.6776,5.6572,5.6436,5.6332,5.6588,5.6576,5.6864,5.7042,5.7225,5.7324,5.7543,5.7679,5.7679,3.1412,3.0548,3.0599,3.0445,3.0241,3.0368,3.0823,3.1347,3.1522,3.2064,3.2777,3.3061,3.3198,3.326,3.325,3.324,3.3154,3.3471,3.381,3.423,3.4647,3.5141,3.5575,3.5898,3.6298,3.6531,3.6536,3.64,3.6561,3.7035,3.7336,3.7519,3.7697,3.7886,3.7987,3.8263,3.8418,3.8781,3.9365,4.0011,4.0375,4.0786,4.1479,4.2379,4.1977,4.2077,4.2748,4.3409,4.3874,4.4338,4.5038,4.5823,4.6207,4.6679,4.716,4.7691,4.8184,4.838,4.8772,4.9104,4.9468,4.9912,4.9912,5.0047,5.0344,5.0669,5.1218,5.1704,5.1642,5.1826,5.2551,5.3188,5.3388,5.3519,5.46,5.5555,5.5053,5.528,5.5974,5.6244,5.648,5.6844,5.7352,5.7649,5.7457,5.7326,5.6987,5.6713,5.6812,5.7354,5.7855,5.8647,5.902,5.8697,5.8472,5.8089,5.7759,5.762,5.7585,5.764,5.7299,5.7012,5.685,5.6776,5.6737,5.6711,5.7166,5.7388,5.7364,5.7386,5.7558,5.7631,5.7631,5.7534,5.7437,3.2358,3.1137,3.1808,3.1448,3.0445,3.0622,3.1149,3.1743,3.1696,3.2213,3.3207,3.3423,3.3516,3.3498,3.3284,3.3205,3.3316,3.3649,3.41,3.4633,3.4941,3.5492,3.5952,3.6246,3.6563,3.6878,3.7232,3.7357,3.7368,3.7428,3.7767,3.8222,3.8546,3.8723,3.8779,3.8894,3.9188,3.9505,3.9869,4.0517,4.126,4.1604,4.2085,4.2559,4.2762,4.2872,4.3161,4.3725,4.4122,4.4372,4.4934,4.5708,4.6529,4.6834,4.7561,4.8117,4.8375,4.8317,4.8933,4.9401,4.9916,5.0397,5.027,5.034,5.0763,5.1237,5.1899,5.2994,5.2495,5.2462,5.3188,5.379,5.3874,5.4196,5.4843,5.5295,5.4985,5.5069,5.5814,5.6086,5.6323,5.668,5.7222,5.752,5.7819,5.762,5.7491,5.7291,5.726,5.7844,5.8354,5.9055,5.9369,5.9091,5.8874,5.8462,5.8281,5.8089,5.8116,5.814,5.7674,5.728,5.703,5.6958,5.692,5.6881,5.7138,5.7338,5.7534,5.7583,5.7583,5.7583,5.7583,5.7486,5.7289,3.2458,3.1552,3.1654,3.1473,3.1035,3.1055,3.1373,3.187,3.2314,3.2847,3.3571,3.4072,3.4301,3.4272,3.4123,3.4111,3.4287,3.4648,3.5107,3.5594,3.5991,3.6358,3.6552,3.6794,3.7032,3.736,3.7833,3.8083,3.811,3.8235,3.8561,3.9225,3.9341,3.9349,3.9409,3.9451,3.9836,4.0383,4.1024,4.1759,4.2375,4.2489,4.2592,4.3283,4.3149,4.3283,4.3697,4.3925,4.4611,4.4986,4.5391,4.5884,4.7308,4.8275,4.9084,4.8514,4.9119,4.9386,4.9636,5.0107,5.066,5.1074,5.1047,5.1074,5.1434,5.1843,5.2324,5.3175,5.3045,5.3207,5.3758,5.4179,5.4439,5.468,5.5134,5.5149,5.5196,5.536,5.5685,5.5927,5.6165,5.6603,5.6987,5.7331,5.7701,5.7712,5.7722,5.7658,5.7839,5.8324,5.8805,5.9346,5.9499,5.944,5.917,5.8895,5.8686,5.8579,5.8503,5.8366,5.785,5.7548,5.7369,5.7084,5.6867,5.6917,5.7087,5.7289,5.7486,5.7534,5.7534,5.7583,5.7583,5.7388,5.7338,3.2711,3.22,3.1733,3.1578,3.168,3.151,3.175,3.2307,3.2833,3.3506,3.4146,3.4709,3.4995,3.4997,3.483,3.478,3.506,3.5771,3.621,3.6645,3.7048,3.7229,3.7373,3.7564,3.7774,3.7848,3.8646,3.9151,3.9437,3.9445,3.9669,3.9936,3.9733,3.9696,3.9798,4.0009,4.0516,4.1298,4.1736,4.2505,4.3248,4.3137,4.355,4.3828,4.3902,4.3913,4.4545,4.4763,4.549,4.597,4.6077,4.6604,4.8035,4.9305,4.9941,4.9608,4.9757,5.0066,5.039,5.0821,5.1327,5.168,5.1884,5.1819,5.1827,5.2291,5.3136,5.392,5.3693,5.4017,5.4438,5.4697,5.4761,5.502,5.5213,5.5164,5.5196,5.5507,5.5718,5.5927,5.6165,5.6447,5.6834,5.7139,5.7439,5.7735,5.7881,5.7954,5.8243,5.8562,5.8875,5.9251,5.9482,5.9534,5.9453,5.9284,5.9082,5.9076,5.9041,5.893,5.8503,5.808,5.7815,5.7424,5.6994,5.6812,5.6933,5.7239,5.7486,5.7534,5.7534,5.7619,5.7571,5.7424,5.7388,3.3711,3.3376,3.2661,3.2296,3.2193,3.191,3.2407,3.311,3.332,3.4039,3.5006,3.5521,3.5517,3.5277,3.5288,3.5173,3.5251,3.5885,3.6455,3.6804,3.7016,3.7694,3.8006,3.8421,3.8774,3.9224,3.9607,4.0371,4.1077,4.0872,4.0368,3.9649,4.0262,4.0092,4.0284,4.0872,4.1389,4.2084,4.2328,4.2781,4.3525,4.3889,4.4427,4.5141,4.5603,4.5912,4.6374,4.6189,4.6408,4.6874,4.6842,4.7526,4.8794,4.9987,5.0422,5.0402,5.0241,5.0552,5.0876,5.1112,5.1359,5.181,5.2146,5.23,5.2137,5.2856,5.3758,5.4794,5.4503,5.46,5.5053,5.5345,5.5231,5.5181,5.5246,5.5246,5.531,5.5636,5.5848,5.6039,5.631,5.6711,5.6857,5.7272,5.7364,5.7662,5.7881,5.7954,5.8027,5.8314,5.8667,5.8978,5.9386,5.9551,5.9617,5.9564,5.9566,5.9717,5.9795,5.9692,5.9491,5.8979,5.8473,5.787,5.7442,5.7119,5.6917,5.7261,5.751,5.7571,5.7583,5.7583,5.7667,5.7583,5.7679,3.3403,3.3252,3.3311,3.3212,3.3031,3.2867,3.3101,3.3744,3.4131,3.494,3.6055,3.6175,3.6225,3.609,3.61,3.6192,3.6376,3.7104,3.7437,3.7909,3.8263,3.8569,3.8833,3.8922,3.9144,3.9629,4.0095,4.0495,4.1008,4.1662,4.1656,4.1247,4.137,4.124,4.1464,4.1924,4.2628,4.2952,4.3376,4.4,4.4141,4.4861,4.5294,4.5542,4.6315,4.6422,4.659,4.6573,4.7088,4.7432,4.7512,4.8247,4.9346,5.0397,5.0788,5.082,5.0693,5.0908,5.107,5.1199,5.1242,5.148,5.2085,5.265,5.2704,5.3512,5.4341,5.4956,5.5183,5.515,5.528,5.5409,5.5328,5.5328,5.5328,5.5328,5.5457,5.5783,5.6173,5.6497,5.6836,5.7206,5.7288,5.7363,5.7499,5.7588,5.7808,5.7988,5.8056,5.8133,5.849,5.8771,5.9115,5.9319,5.9453,5.9718,6.0008,6.0234,6.0423,6.0184,5.9941,5.9763,5.9259,5.853,5.7961,5.7711,5.7565,5.7478,5.7546,5.7607,5.7619,5.7583,5.7631,5.7726,5.7904,3.3506,3.362,3.4027,3.4032,3.3815,3.352,3.3726,3.4343,3.4734,3.5566,3.6731,3.6675,3.6698,3.6633,3.6777,3.6964,3.7284,3.7861,3.8342,3.8675,3.8952,3.9311,3.9412,3.9589,3.9873,4.0142,4.0641,4.1163,4.1725,4.2227,4.2393,4.2545,4.2886,4.2652,4.2263,4.2963,4.3661,4.4018,4.4202,4.4967,4.5046,4.5556,4.6238,4.6329,4.7043,4.7305,4.733,4.7404,4.78,4.8164,4.8434,4.8765,4.974,5.0557,5.0896,5.0896,5.0972,5.1199,5.1199,5.1275,5.1372,5.1664,5.2107,5.2941,5.3772,5.4244,5.4632,5.5247,5.5377,5.5409,5.5409,5.5409,5.5409,5.5328,5.5328,5.5442,5.5668,5.6027,5.6597,5.7036,5.7263,5.7503,5.7686,5.7763,5.8035,5.7992,5.7983,5.8191,5.8281,5.8366,5.8419,5.8701,5.8909,5.9047,5.9251,5.9551,5.9943,5.9978,6.0199,6.0371,6.02,6.006,5.9857,5.9259,5.8765,5.8429,5.8322,5.8368,5.8028,5.7607,5.7667,5.7715,5.7763,5.7857,5.7997,3.4372,3.4787,3.476,3.4539,3.4148,3.3771,3.4196,3.504,3.533,3.5971,3.6811,3.7001,3.6845,3.664,3.6828,3.7201,3.7598,3.8239,3.8666,3.8935,3.9203,3.953,3.9913,4.0262,4.0576,4.1339,4.1785,4.2222,4.2862,4.316,4.3223,4.3533,4.4004,4.4,4.2786,4.2994,4.3747,4.4657,4.4445,4.506,4.5739,4.622,4.6952,4.7463,4.7978,4.8208,4.8132,4.8142,4.8542,4.9054,4.9358,4.9741,5.0263,5.0749,5.098,5.0948,5.1145,5.1264,5.1264,5.1415,5.1707,5.1988,5.2259,5.3104,5.4405,5.4826,5.4729,5.5377,5.5409,5.5409,5.5409,5.5409,5.5409,5.5442,5.5442,5.5636,5.5977,5.6808,5.7527,5.7904,5.7738,5.7635,5.7918,5.8197,5.8571,5.8639,5.8361,5.8395,5.8612,5.8909,5.8999,5.8869,5.901,5.9013,5.9219,5.9586,5.9814,5.9849,6.0008,6.0282,6.0352,6.0225,5.9989,5.975,5.9459,5.902,5.9168,5.9348,5.8885,5.8458,5.8004,5.7904,5.7904,5.795,5.8088,3.3977,3.4116,3.4651,3.4644,3.441,3.4851,3.5274,3.5684,3.6576,3.7235,3.7403,3.7312,3.6922,3.6828,3.6947,3.732,3.7848,3.833,3.8782,3.9203,3.9407,3.9848,4.0198,4.0658,4.1,4.151,4.2215,4.3089,4.3604,4.3958,4.4406,4.4755,4.5033,4.5156,4.4799,4.4763,4.4962,4.5628,4.5615,4.5815,4.6265,4.7045,4.7715,4.8115,4.8618,4.8767,4.8687,4.8604,4.9037,4.979,5.0128,5.0403,5.0787,5.1136,5.1403,5.1417,5.1572,5.1985,5.2398,5.2649,5.2227,5.2215,5.2539,5.2896,5.2786,5.4405,5.4956,5.5345,5.5409,5.5409,5.5409,5.5409,5.5442,5.5507,5.5718,5.6075,5.6546,5.7838,5.8758,5.8905,5.8856,5.8767,5.8885,5.9009,5.9275,5.9937,5.9831,5.9445,5.9599,5.9831,5.9993,5.9549,5.9347,5.9217,5.9254,5.9554,5.9683,5.9783,6.0043,6.0388,6.0397,6.0235,6.0,5.9715,5.9652,5.9609,5.9473,5.9473,5.9605,5.9346,5.8809,5.828,5.8134,5.8107,5.8179,3.3715,3.3796,3.457,3.4722,3.4568,3.5523,3.6005,3.6522,3.7501,3.8048,3.8007,3.765,3.7322,3.7228,3.7296,3.7583,3.8057,3.8421,3.8962,3.9407,3.9612,3.9963,4.034,4.094,4.1426,4.1966,4.2878,4.3818,4.4317,4.4809,4.5263,4.5738,4.6113,4.647,4.6469,4.6466,4.6216,4.6667,4.6698,4.6931,4.737,4.7965,4.8482,4.8698,4.8929,4.9128,4.88,4.881,4.9109,5.005,5.0599,5.0938,5.134,5.1628,5.1869,5.1885,5.2076,5.2459,5.2684,5.3032,5.2547,5.2191,5.2883,5.2851,5.2462,5.397,5.481,5.5198,5.5328,5.5328,5.5409,5.5442,5.5701,5.588,5.6204,5.6676,5.7131,5.8394,5.9135,5.9398,5.9713,5.9724,5.971,5.9968,6.0125,6.0825,6.1374,6.0909,6.0419,6.0523,6.0437,5.9891,5.9521,5.9253,5.9253,5.9554,5.9617,5.9652,5.9978,6.036,6.0026,5.9734,5.9728,5.9526,5.9229,5.9081,5.9329,5.949,5.9729,5.9797,5.9542,5.9014,5.8464,5.8345,5.8415,3.3688,3.3769,3.4543,3.4667,3.4748,3.5787,3.6684,3.7451,3.7972,3.8374,3.8463,3.8366,3.8023,3.7642,3.7859,3.8117,3.8345,3.8655,3.9276,3.9721,4.0068,4.0304,4.0876,4.1592,4.2109,4.2711,4.3573,4.4579,4.5084,4.5763,4.6386,4.6806,4.7136,4.7715,4.8075,4.8168,4.7792,4.7774,4.7757,4.8022,4.8401,4.8779,4.9095,4.9282,4.9434,4.9396,4.9213,4.914,4.9594,5.0154,5.059,5.1183,5.1745,5.2213,5.2295,5.2377,5.2507,5.2731,5.2794,5.3198,5.3326,5.3132,5.3337,5.3642,5.3758,5.4019,5.468,5.5067,5.5196,5.5278,5.536,5.583,5.6219,5.6561,5.6969,5.7293,5.7651,5.8339,5.9049,5.953,5.9878,6.0008,6.0064,6.0257,6.0796,6.1511,6.2029,6.1934,6.134,6.0779,6.0549,5.986,5.9455,5.9219,5.9286,5.952,5.9652,5.9652,5.9943,6.0227,5.9761,5.9399,5.9466,5.9266,5.8603,5.8552,5.9095,5.9562,5.9976,5.9993,6.0066,5.9622,5.9044,5.8731,5.8725,3.3144,3.3122,3.3512,3.3957,3.4699,3.6493,3.8047,3.9097,3.948,3.9578,3.9321,3.9016,3.8582,3.791,3.8556,3.8751,3.899,3.9402,4.0185,4.0597,4.0775,4.1318,4.1924,4.2502,4.2879,4.3545,4.4384,4.5427,4.5973,4.6773,4.7577,4.805,4.8333,4.909,4.9644,4.9962,4.9457,4.9029,4.8839,4.9011,4.9265,4.9504,4.9694,4.9819,5.0016,4.9895,4.9823,4.9943,5.0607,5.1452,5.1684,5.2156,5.2629,5.2827,5.2879,5.2859,5.3259,5.3672,5.3776,5.393,5.4031,5.4195,5.4406,5.3937,5.4034,5.4309,5.4824,5.4934,5.5113,5.5196,5.5425,5.583,5.6316,5.682,5.7261,5.7651,5.8125,5.8834,5.9395,5.976,6.0109,6.0554,6.0531,6.0859,6.148,6.2198,6.2514,6.2317,6.2056,6.1307,6.0621,5.9898,5.9526,5.9323,5.9253,5.9386,5.952,5.9718,6.0008,6.0129,5.9804,5.9541,5.9345,5.8852,5.821,5.8438,5.9095,5.949,5.9757,6.0468,6.0579,6.011,5.9706,5.9309,5.8924,3.2766,3.2631,3.3213,3.4272,3.5697,3.7597,3.8927,3.952,3.9984,4.006,3.9886,3.986,3.9343,3.8846,3.9414,3.9823,3.9769,4.035,4.0995,4.1446,4.1625,4.2177,4.2754,4.3538,4.3889,4.456,4.5404,4.6337,4.683,4.7819,4.8775,4.8738,4.9315,5.0078,5.0511,5.0672,5.0738,5.0485,5.02,5.0087,5.0136,5.0358,5.0454,5.056,5.0787,5.0746,5.0673,5.0917,5.1553,5.2371,5.248,5.2869,5.326,5.3439,5.3184,5.3161,5.3553,5.3773,5.3828,5.4147,5.4549,5.4749,5.5031,5.4744,5.46,5.4744,5.487,5.4896,5.5031,5.5228,5.5489,5.5733,5.6316,5.6867,5.7404,5.791,5.8619,5.9362,5.9792,5.9957,6.0423,6.0853,6.1198,6.1561,6.1648,6.1656,6.1695,6.1708,6.1581,6.128,6.0696,5.997,5.9701,5.9461,5.9424,5.9386,5.9586,5.9783,5.9943,5.9995,5.9777,5.9205,5.8623,5.8165,5.7652,5.8087,5.8646,5.9019,5.9379,6.0053,6.0457,6.0089,5.9725,5.9612,5.9227,3.2597,3.2364,3.3506,3.5183,3.724,3.8564,3.9187,3.9222,3.9951,4.015,4.0228,4.0605,4.0337,3.9736,4.0357,4.0718,4.0869,4.1278,4.1874,4.2328,4.2418,4.2857,4.3678,4.4234,4.476,4.5639,4.6399,4.7013,4.7688,4.8657,4.9382,4.9213,5.0144,5.0943,5.1285,5.148,5.1561,5.1628,5.155,5.1503,5.1375,5.1534,5.1757,5.1796,5.182,5.1748,5.1696,5.1768,5.1903,5.2511,5.291,5.3278,5.353,5.3664,5.3434,5.3502,5.3803,5.4047,5.4197,5.4553,5.4718,5.4825,5.4783,5.496,5.5063,5.5178,5.5153,5.5589,5.5854,5.5712,5.591,5.6349,5.6867,5.7307,5.7716,5.8203,5.8808,5.9507,5.9924,6.0205,6.0654,6.1086,6.128,6.1542,6.1614,6.1215,6.1143,6.1331,6.093,6.094,6.0527,5.994,5.9563,5.9357,5.9457,5.9453,5.9617,5.9814,5.9908,5.9615,5.9222,5.8545,5.7797,5.7752,5.7759,5.7693,5.8016,5.8368,5.8696,5.9151,5.9566,5.9736,5.9669,5.9641,5.9381,3.2554,3.2482,3.4029,3.5451,3.675,3.8291,3.9307,3.9954,4.0747,4.0746,4.041,4.0788,4.0754,4.027,4.1248,4.1512,4.1408,4.2186,4.2879,4.3153,4.3336,4.3777,4.4629,4.5194,4.5665,4.6197,4.6784,4.7688,4.8334,4.9402,5.0359,5.0375,5.1296,5.1999,5.2167,5.2282,5.2448,5.2549,5.2758,5.2536,5.225,5.2041,5.2168,5.2207,5.223,5.2492,5.2596,5.277,5.2934,5.3215,5.3246,5.334,5.3552,5.344,5.3632,5.3975,5.4068,5.4496,5.4894,5.5222,5.5367,5.5732,5.5843,5.5474,5.5421,5.5485,5.591,5.6498,5.6731,5.644,5.6459,5.688,5.7385,5.7664,5.7975,5.8528,5.8993,5.9585,6.0205,6.0571,6.0853,6.1152,6.1313,6.1468,6.1503,6.1545,6.1578,6.1502,6.0621,6.032,6.0186,5.9702,5.9323,5.915,5.9284,5.9453,5.9617,5.9574,5.9534,5.9137,5.864,5.8325,5.7977,5.8,5.8003,5.8104,5.8016,5.765,5.8014,5.8724,5.9091,5.9445,5.9454,5.9384,5.9139,3.2632,3.2869,3.4472,3.5808,3.6977,3.8267,3.9339,4.018,4.0858,4.0844,4.0648,4.1123,4.1115,4.0827,4.1861,4.2436,4.2207,4.3166,4.3678,4.3891,4.4231,4.4767,4.5389,4.5956,4.6344,4.6785,4.7638,4.843,4.9047,5.0273,5.1209,5.1141,5.209,5.2838,5.2869,5.3007,5.3207,5.3164,5.3545,5.3418,5.3006,5.2962,5.2911,5.2965,5.3165,5.3364,5.3341,5.3601,5.3765,5.3928,5.3934,5.3757,5.3819,5.3819,5.3885,5.4286,5.4598,5.5152,5.5705,5.601,5.6189,5.6373,5.643,5.582,5.597,5.6217,5.7355,5.7817,5.7397,5.7126,5.7093,5.7385,5.7688,5.7979,5.843,5.8873,5.9414,5.9997,6.0351,6.045,6.0835,6.1219,6.1447,6.1575,6.1627,6.1511,6.1722,6.1223,6.045,5.9976,5.9771,5.9563,5.9253,5.9251,5.9453,5.952,5.9652,5.9474,5.9294,5.901,5.8717,5.8517,5.8378,5.8508,5.8681,5.8821,5.8628,5.8211,5.8368,5.9103,5.9256,5.9283,5.9225,5.9197,5.8989,3.2913,3.3366,3.4864,3.6287,3.7515,3.8521,3.948,4.0336,4.0675,4.0924,4.102,4.1505,4.1571,4.1796,4.2387,4.2873,4.3396,4.3854,4.4219,4.462,4.4869,4.5417,4.5898,4.6403,4.6933,4.7608,4.8404,4.9326,5.0192,5.1215,5.1692,5.1499,5.2184,5.3027,5.3228,5.3344,5.3439,5.3999,5.4315,5.4378,5.4094,5.3862,5.3904,5.4125,5.4324,5.4356,5.4387,5.4396,5.4624,5.4549,5.4563,5.4383,5.4383,5.4383,5.466,5.5,5.5556,5.5928,5.6298,5.6514,5.6541,5.6568,5.6441,5.6473,5.6657,5.7274,5.8332,5.847,5.8023,5.7871,5.7806,5.7935,5.8152,5.8313,5.8766,5.9251,5.9814,6.043,6.0463,6.0463,6.0802,6.1252,6.1499,6.1628,6.1728,6.1579,6.134,6.0779,6.0275,6.0079,5.9875,5.9632,5.9388,5.9453,5.9586,5.9652,5.9718,5.9509,5.9394,5.9114,5.8892,5.8738,5.8828,5.9136,5.9277,5.9409,5.949,5.9204,5.9439,5.9562,5.9414,5.9335,5.9343,5.9249,5.8967,3.3912,3.404,3.5208,3.6636,3.8318,3.9222,4.0209,4.1267,4.1366,4.1421,4.1469,4.1603,4.1696,4.1696,4.2776,4.3259,4.3451,4.4143,4.4676,4.5046,4.5344,4.5834,4.6431,4.7111,4.7698,4.8434,4.9174,4.9682,5.0831,5.1704,5.2368,5.2854,5.3208,5.3907,5.4522,5.4482,5.4378,5.4853,5.5106,5.5083,5.5574,5.532,5.4861,5.5114,5.5493,5.5683,5.5809,5.5778,5.5606,5.543,5.5189,5.5007,5.5098,5.5189,5.5559,5.59,5.6458,5.6927,5.7176,5.721,5.727,5.7273,5.7273,5.7428,5.7551,5.7856,5.8542,5.869,5.8446,5.8517,5.8571,5.8885,5.9088,5.8949,5.9123,5.9556,6.0022,6.0463,6.0717,6.075,6.0835,6.1252,6.1662,6.1723,6.1761,6.1748,6.1664,6.1143,6.0587,6.0286,6.0082,5.977,5.9627,5.9652,5.9748,5.9748,5.9714,5.9604,5.9459,5.9243,5.9089,5.9056,5.9168,5.9608,5.9752,5.9809,5.9895,5.9973,5.978,5.9799,5.9475,5.9365,5.9465,5.9561,5.9469]},{"header":{"parameterUnit":"m.s-1","parameterCategory":1,"la1":31.0,"la2":29.5877,"lo1":-88.7671,"lo2":-86.6584,"dy":0.0162,"dx":0.0185,"nx":115,"ny":88,"refTime":"2023-03-20T12:00:00:Z","depth":0,"parameterNumber":3,"parameterNumberName":"V-component_of_WINDS"},"data":[0.0,0.0,0.0,0.0,0.0,0.0,0.0,0.0,0.0,0.0,0.0,0.0,0.0,0.0,0.0,0.0,0.0,0.0,0.0,0.0,0.0,0.0,0.0,0.0,0.0,0.0,0.0,0.0,0.0,0.0,0.0,0.0,0.0,0.0,0.0,0.0,0.0,0.0,0.0,0.0,0.0,0.0,0.0,0.0,0.0,0.0,0.0,0.0,0.0,0.0,0.0,0.0,0.0,0.0,0.0,0.0,0.0,0.0,0.0,0.0,0.0,0.0,0.0,0.0,0.0,0.0,0.0,0.0,0.0,0.0,0.0,0.0,0.0,0.0,0.0,0.0,0.0,0.0,0.0,0.0,0.0,0.0,0.0,0.0,0.0,0.0,0.0,0.0,0.0,0.0,0.0,0.0,0.0,0.0,0.0,0.0,0.0,0.0,0.0,0.0,0.0,0.0,0.0,0.0,0.0,0.0,0.0,0.0,0.0,0.0,0.0,0.0,0.0,0.0,0.0,0.0,0.0,0.0,0.0,0.0,0.0,0.0,0.0,0.0,0.0,0.0,0.0,0.0,0.0,0.0,0.0,0.0,0.0,0.0,0.0,0.0,0.0,0.0,0.0,0.0,0.0,0.0,0.0,0.0,0.0,0.0,0.0,0.0,0.0,0.0,0.0,0.0,0.0,0.0,0.0,0.0,0.0,0.0,0.0,0.0,0.0,0.0,0.0,0.0,0.0,0.0,0.0,0.0,0.0,0.0,0.0,0.0,0.0,0.0,0.0,0.0,0.0,0.0,0.0,0.0,0.0,0.0,0.0,0.0,0.0,0.0,0.0,0.0,0.0,0.0,0.0,0.0,0.0,0.0,0.0,0.0,0.0,0.0,0.0,0.0,0.0,0.0,0.0,0.0,0.0,0.0,0.0,0.0,0.0,0.0,0.0,0.0,0.0,0.0,0.0,0.0,0.0,0.0,0.0,0.0,0.0,0.0,0.0,0.0,0.0,0.0,0.0,0.0,0.0,0.0,0.0,0.0,0.0,0.0,0.0,0.0,0.0,0.0,0.0,0.0,0.0,0.0,0.0,0.0,0.0,0.0,0.0,0.0,0.0,0.0,0.0,0.0,0.0,0.0,0.0,0.0,0.0,0.0,0.0,0.0,0.0,0.0,0.0,0.0,0.0,0.0,0.0,0.0,0.0,0.0,0.0,0.0,0.0,0.0,0.0,0.0,0.0,0.0,0.0,0.0,0.0,0.0,0.0,0.0,0.0,0.0,0.0,0.0,0.0,0.0,0.0,0.0,0.0,0.0,0.0,0.0,0.0,0.0,0.0,0.0,0.0,0.0,0.0,0.0,0.0,0.0,0.0,0.0,0.0,0.0,0.0,0.0,0.0,0.0,0.0,0.0,0.0,0.0,0.0,0.0,0.0,0.0,0.0,0.0,0.0,0.0,0.0,0.0,0.0,0.0,0.0,0.0,0.0,0.0,0.0,0.0,0.0,0.0,0.0,0.0,0.0,0.0,0.0,0.0,0.0,0.0,0.0,0.0,0.0,0.0,0.0,0.0,0.0,0.0,0.0,0.0,0.0,0.0,0.0,0.0,0.0,0.0,0.0,0.0,0.0,0.0,0.0,0.0,0.0,0.0,0.0,0.0,0.0,0.0,0.0,0.0,0.0,0.0,0.0,0.0,0.0,0.0,0.0,0.0,0.0,0.0,0.0,0.0,0.0,0.0,0.0,0.0,0.0,0.0,0.0,0.0,0.0,0.0,0.0,0.0,0.0,0.0,0.0,0.0,0.0,0.0,0.0,0.0,0.0,0.0,0.0,0.0,0.0,0.0,0.0,0.0,0.0,0.0,0.0,0.0,0.0,0.0,0.0,0.0,0.0,0.0,0.0,0.0,0.0,0.0,0.0,0.0,0.0,0.0,0.0,0.0,0.0,0.0,0.0,0.0,0.0,0.0,0.0,0.0,0.0,0.0,0.0,0.0,0.0,0.0,0.0,0.0,0.0,0.0,0.0,0.0,0.0,0.0,0.0,0.0,0.0,0.0,0.0,0.0,0.0,0.0,0.0,0.0,0.0,0.0,0.0,0.0,0.0,0.0,0.0,0.0,0.0,0.0,0.0,0.0,0.0,0.0,0.0,0.0,0.0,0.0,0.0,0.0,0.0,0.0,0.0,0.0,0.0,0.0,0.0,0.0,0.0,0.0,0.0,0.0,0.0,0.0,0.0,0.0,0.0,0.0,0.0,0.0,0.0,0.0,0.0,0.0,0.0,0.0,0.0,0.0,0.0,0.0,0.0,0.0,0.0,0.0,0.0,0.0,0.0,0.0,0.0,0.0,0.0,0.0,0.0,0.0,0.0,0.0,0.0,0.0,0.0,0.0,0.0,0.0,0.0,0.0,0.0,0.0,0.0,0.0,0.0,0.0,0.0,0.0,0.0,0.0,0.0,0.0,0.0,0.0,0.0,0.0,0.0,0.0,0.0,0.0,0.0,0.0,0.0,0.0,0.0,0.0,0.0,0.0,0.0,0.0,0.0,0.0,0.0,0.0,0.0,0.0,0.0,0.0,0.0,0.0,0.0,0.0,0.0,0.0,0.0,0.0,0.0,0.0,0.0,0.0,0.0,0.0,0.0,0.0,0.0,0.0,0.0,0.0,0.0,0.0,0.0,0.0,0.0,0.0,0.0,0.0,0.0,0.0,0.0,0.0,0.0,0.0,0.0,0.0,0.0,0.0,0.0,0.0,0.0,0.0,0.0,0.0,0.0,0.0,0.0,0.0,0.0,0.0,0.0,0.0,0.0,0.0,0.0,0.0,0.0,0.0,0.0,0.0,0.0,0.0,0.0,0.0,0.0,0.0,0.0,0.0,0.0,0.0,0.0,0.0,0.0,0.0,0.0,0.0,0.0,0.0,0.0,0.0,0.0,0.0,0.0,0.0,0.0,0.0,0.0,0.0,0.0,0.0,0.0,0.0,0.0,0.0,0.0,0.0,0.0,0.0,0.0,0.0,0.0,0.0,0.0,0.0,0.0,0.0,0.0,0.0,0.0,0.0,0.0,0.0,0.0,0.0,0.0,0.0,0.0,0.0,0.0,0.0,0.0,0.0,0.0,0.0,0.0,0.0,0.0,0.0,0.0,0.0,0.0,0.0,0.0,0.0,0.0,0.0,0.0,0.0,0.0,0.0,0.0,0.0,0.0,0.0,0.0,0.0,0.0,0.0,0.0,0.0,0.0,0.0,0.0,0.0,0.0,0.0,0.0,0.0,0.0,0.0,0.0,0.0,0.0,0.0,0.0,0.0,0.0,0.0,0.0,0.0,0.0,0.0,0.0,0.0,0.0,0.0,0.0,0.0,0.0,0.0,0.0,0.0,0.0,0.0,0.0,0.0,0.0,0.0,0.0,0.0,0.0,0.0,0.0,0.0,0.0,0.0,0.0,0.0,0.0,0.0,0.0,0.0,0.0,0.0,0.0,0.0,0.0,0.0,0.0,0.0,0.0,0.0,0.0,0.0,0.0,0.0,0.0,0.0,0.0,0.0,0.0,0.0,0.0,0.0,0.0,0.0,0.0,0.0,0.0,0.0,0.0,0.0,0.0,0.0,0.0,0.0,0.0,0.0,0.0,0.0,0.0,0.0,0.0,0.0,0.0,0.0,0.0,0.0,0.0,0.0,0.0,0.0,0.0,0.0,0.0,0.0,0.0,0.0,0.0,0.0,0.0,0.0,0.0,0.0,0.0,0.0,0.0,0.0,0.0,0.0,0.0,0.0,0.0,0.0,0.0,0.0,0.0,0.0,0.0,0.0,0.0,0.0,0.0,0.0,0.0,0.0,0.0,0.0,0.0,0.0,0.0,0.0,0.0,0.0,0.0,0.0,0.0,0.0,0.0,0.0,0.0,0.0,0.0,0.0,0.0,0.0,0.0,0.0,0.0,0.0,0.0,0.0,0.0,0.0,0.0,0.0,0.0,0.0,0.0,0.0,0.0,0.0,0.0,0.0,0.0,0.0,0.0,0.0,0.0,0.0,0.0,0.0,0.0,0.0,0.0,0.0,0.0,0.0,0.0,0.0,0.0,0.0,0.0,0.0,0.0,0.0,0.0,0.0,0.0,0.0,0.0,0.0,0.0,0.0,0.0,0.0,0.0,0.0,0.0,0.0,0.0,0.0,0.0,0.0,0.0,0.0,0.0,0.0,0.0,0.0,0.0,0.0,0.0,0.0,0.0,0.0,0.0,0.0,0.0,0.0,0.0,0.0,0.0,0.0,0.0,0.0,-0.055,0.0,0.0,0.0,0.0,0.0,0.0,0.0,0.0,0.0,0.0,0.0,0.0,0.0,0.0,0.0,0.0,0.0,0.0,0.0,0.0,0.0,0.0,0.0,0.0,0.0,0.0,0.0,0.0,0.0,0.0,0.0,0.0,0.0,0.0,0.0,0.0,0.0,0.0,0.0,0.0,0.0,0.0,0.0,0.0,0.0,0.0,0.0,0.0,0.0,0.0,0.0,0.0,0.0,0.0,0.0,0.0,0.0,0.0,0.0,0.0,0.0,0.0,0.0,0.0,0.0,0.0,0.0,0.0,0.0,0.0,0.0,0.0,0.0,0.0,0.0,0.0,0.0,0.0,0.0,0.0,0.0,0.0,0.0,0.0,0.0,0.0,0.0,0.0,0.0,0.0,0.0,0.0,0.0,0.0,0.0,0.0,0.0,0.0,0.0,0.0,0.0,0.0,0.0,0.0,0.0,0.0,0.0,0.0,0.0,0.0,0.5001,0.4284,0.2803,0.1202,-0.0555,0.0,0.0,0.0,0.0,0.0,0.0,0.0,0.0,0.0,0.0,0.0,0.0,0.0,0.0,0.0,0.0,0.0,0.0,0.0,0.0,0.0,0.0,0.0,0.0,0.0,0.0,0.0,0.0,0.0,0.0,0.0,0.0,0.0,0.0,0.0,0.0,0.0,0.0,0.0,0.0,0.0,0.0,0.0,0.0,0.0,0.0,0.0,0.0,0.0,0.0,0.0,0.0,0.0,0.0,0.0,0.0,0.0,0.0,0.0,0.0,0.0,0.0,0.0,0.0,0.0,0.0,0.0,0.0,0.0,0.0,0.0,0.0,0.0,0.0,0.0,0.0,0.0,0.0,0.0,0.0,0.0,0.0,0.0,0.0,0.0,0.0,0.0,0.0,0.0,0.0,0.0,0.0,0.0,0.0,0.0,0.0,0.0,0.0,0.0,0.0,0.0,0.0,0.0,0.0,0.0,0.0,0.0,0.0,0.0,0.0,0.0,0.0,0.332,0.1587,-0.0832,0.0,0.0,0.0,0.0,0.0,0.0,0.0,0.0,0.0,0.0,0.0,0.0,0.0,0.0,0.0,0.0,0.0,0.0,0.0,0.0,0.0,0.0,0.0,0.0,0.0,0.0,0.0,0.0,0.0,0.0,0.0,0.0,0.0,0.0,0.0,0.0,0.0,0.0,0.0,0.0,0.0,0.0,0.0,0.0,0.0,0.0,0.0,0.0,0.0,0.0,0.0,0.0,0.0,0.0,0.0,0.0,0.0,0.0,0.0,0.0,0.0,0.0,0.0,0.0,0.0,0.0,0.0,0.0,0.0,0.0,0.0,0.0,0.0,0.0,0.0,0.0,0.0,0.0,0.0,0.0,0.0,0.0,0.0,0.0,0.0,0.0,0.0,0.0,0.0,0.0,0.0,0.0,0.0,0.0,0.0,0.0,0.0,0.0,0.0,0.0,0.0,0.0,0.0,0.0,0.0,0.0,0.0,0.0,0.0,0.0,0.5022,0.471,0.4041,0.0,-0.1019,0.0,0.0,0.0,0.0,0.0,0.0,0.0,0.0,0.0,0.0,0.0,0.0,0.0,0.0,0.0,0.0,0.0,0.0,0.0,0.0,0.0,0.0,0.0,0.0,0.0,0.0,0.0,0.0,0.0,0.0,0.0,0.0,0.0,0.0,0.0,0.0,0.0,0.0,0.0,0.0,0.0,0.0,0.0,0.0,0.0,0.0,0.0,0.0,0.0,0.0,0.0,0.0,0.0,0.0,0.0,0.0,0.0,0.0,0.0,0.0,0.0,0.0,0.0,0.0,0.0,0.0,0.0,0.0,0.0,0.0,0.0,0.0,0.0,0.0,0.0,0.0,0.0,0.0,0.0,0.0,0.0,0.0,0.0,0.0,0.0,0.0,0.0,0.0,0.0,0.0,0.0,0.0,0.0,0.0,0.0,0.0,0.0,0.0,0.0,0.0,0.0,0.0,0.0,0.0,0.0,0.0,0.0,0.0,0.0,0.0,0.4839,0.4138,0.2938,0.1235,0.0,0.0,0.0,0.0,0.0,0.0,0.0,0.0,0.0,0.0,0.0,0.0,0.0,0.0,0.0,0.0,0.0,0.0,0.0,0.0,0.0,0.0,0.0,0.0,0.0,0.0,0.0,0.0,0.0,0.0,0.0,0.0,0.0,0.0,0.0,0.0,0.0,0.0,0.0,0.0,0.0,0.0,0.0,0.0,0.0,0.0,0.0,0.0,0.0,0.0,0.0,0.0,0.0,0.0,0.0,0.0,0.0,0.0,0.0,0.0,0.0,0.0,0.0,0.0,0.0,0.0,0.0,0.0,0.0,0.0,0.0,0.0,0.0,0.0,0.0,0.0,0.0,0.0,0.0,0.0,0.0,0.0,0.0,0.0,0.0,0.0,0.0,0.0,0.0,0.0,0.0,0.0,0.0,0.0,0.0,0.0,0.0,0.0,0.0,0.0,0.0,0.0,0.0,0.0,0.0,0.0,0.0,0.0,0.0,0.0,0.534,0.4638,0.3629,0.2553,0.1145,-0.0651,0.0,0.0,0.0,0.0,0.0,0.0,0.0,0.0,0.0,0.0,0.0,0.0,0.0,0.0,0.0,0.0,0.0,0.0,0.0,0.0,0.0,0.0,0.0,0.0,0.0,0.0,0.0,0.0,0.0,0.0,0.0,0.0,0.0,0.0,0.0,0.0,0.0,0.0,0.0,0.0,0.0,0.0,0.0,0.0,0.0,0.0,0.0,0.0,0.0,0.0,0.0,0.0,0.0,0.0,0.0,0.0,0.0,0.0,0.0,0.0,0.0,0.0,0.0,0.0,0.0,0.0,0.0,0.0,0.0,0.0,0.0,0.0,0.0,0.0,0.0,0.0,0.0,0.0,0.0,0.0,0.0,0.0,0.0,0.0,0.0,0.0,0.0,0.0,0.0,0.0,0.0,0.0,0.0,0.0,0.0,0.0,0.0,0.0,0.0,0.0,0.0,0.0,0.0,0.0,0.0,0.0,0.0,0.0,0.6337,0.5536,0.4634,0.3629,0.3823,0.2567,0.0,0.0,0.0,0.0,0.0,0.0,0.0,0.0,0.0,0.0,0.0,0.0,0.0,0.0,0.0,0.0,0.0,0.0,0.0,0.0,0.0,0.0,0.0,0.0,0.0,0.0,0.0,0.0,0.0,0.0,0.0,0.0,0.0,0.0,0.0,0.0,0.0,0.0,0.0,0.0,0.0,0.0,0.0,0.0,0.0,0.0,0.0,0.0,0.0,0.0,0.0,0.0,0.0,0.0,0.0,0.0,0.0,0.0,0.0,0.0,0.0,0.0,0.0,0.0,0.0,0.0,0.0,0.0,0.0,0.0,0.0,0.0,0.0,0.0,0.0,0.0,0.0,0.0,0.0,0.0,0.0,0.0,0.0,0.0,0.0,0.0,0.0,0.0,0.0,0.0,0.0,0.0,0.0,0.0,0.0,0.0,0.0,0.0,0.0,0.0,0.0,0.0,0.0,0.0,0.0,0.0,0.0,0.0,0.0,0.5837,0.4634,0.3934,0.383,0.2956,0.1738,0.0,0.0,0.0,0.0,0.0,0.0,0.0,0.0,0.0,0.0,0.0,0.0,0.0,0.0,0.0,0.0,0.0,0.0,0.0,0.0,0.0,0.0,0.0,0.0,0.0,0.0,0.0,0.0,0.0,0.0,0.0,0.0,0.0,0.0,0.0,0.0,0.0,0.0,0.0,0.0,0.0,0.0,0.0,0.0,0.0,0.0,0.0,0.0,0.0,0.0,0.0,0.0,0.0,0.0,0.0,0.0,0.0,0.0,0.0,0.0,0.0,0.0,0.0,0.0,0.0,0.0,0.0,0.0,0.0,0.0,0.0,0.0,0.0,0.0,0.0,0.0,0.0,0.0,0.0,0.0,0.0,0.0,0.0,0.0,0.0,0.0,0.0,0.0,0.0,0.0,0.0,0.0,0.0,0.0,0.0,0.0,0.0,0.0,0.0,0.0,0.0,0.0,0.0,0.0,0.0,0.0,0.0,0.0,0.0,0.5636,0.0,0.3833,0.3827,0.3033,0.1917,0.0,0.0,0.0,0.0,0.0,0.0,0.0,0.0,0.0,0.0,0.0,0.0,0.0,0.0,0.0,0.0,0.0,0.0,0.0,0.0,0.0,0.0,0.0,0.0,0.0,0.0,0.0,0.0,0.0,0.0,0.0,0.0,0.0,0.0,0.0,0.0,0.0,0.0,0.0,0.0,0.0,0.0,0.0,0.0,0.0,0.0,0.0,0.0,0.0,0.0,0.0,0.0,0.0,0.0,0.0,0.0,0.0,0.0,0.0,0.0,0.0,0.0,0.0,0.0,0.0,0.0,0.0,0.0,0.0,0.0,0.0,0.0,0.0,0.0,0.0,0.0,0.0,0.0,0.0,0.0,0.0,0.0,0.0,0.0,0.0,0.0,0.0,0.0,0.0,0.0,0.0,0.0,0.0,0.0,0.0,0.0,0.0,0.0,0.0,0.0,0.0,0.0,0.0,0.0,0.0,0.0,0.0,0.0,0.6836,0.5636,0.5336,0.4638,0.3729,0.3963,0.3109,0.0,0.0,0.0,0.0,0.0,0.0,0.0,0.0,0.0,0.0,0.0,0.0,0.0,0.0,0.0,0.0,0.0,0.0,0.0,0.0,0.0,0.0,0.0,0.0,0.0,0.0,0.0,0.0,0.0,0.0,0.0,0.0,0.0,0.0,0.0,0.0,0.0,0.0,0.0,0.0,0.0,0.0,0.0,0.0,0.0,0.0,0.0,0.0,0.0,0.0,0.0,0.0,0.0,0.0,0.0,0.0,0.0,0.0,0.0,0.0,0.0,0.0,0.0,0.0,0.0,0.0,0.0,0.0,0.0,0.0,0.0,0.0,0.0,0.0,0.0,0.0,0.0,0.0,0.0,0.0,0.0,0.0,0.0,0.0,0.0,0.0,0.0,0.0,0.0,0.0,0.0,0.0,0.0,0.0,0.0,0.0,0.0,0.0,0.0,0.0,0.0,0.0,0.0,0.0,0.0,0.0,0.0,0.0,0.0,0.4839,0.4839,0.4762,0.4303,0.3445,0.2796,0.0,0.0,0.0,0.0,0.0,0.0,0.0,0.0,0.0,0.0,0.0,0.0,0.0,0.0,0.0,0.0,0.0,0.0,0.0,0.0,0.0,0.0,0.0,0.0,0.0,0.0,0.0,0.0,0.0,0.0,0.0,0.0,0.0,0.0,0.0,0.0,0.0,0.0,0.0,0.0,0.0,0.0,0.0,0.0,0.0,0.0,0.0,0.0,0.0,0.0,0.0,0.0,0.0,0.0,0.0,0.0,0.0,0.0,0.0,0.0,0.0,0.0,0.0,0.0,0.0,0.0,0.0,0.0,0.0,0.0,0.0,0.0,0.0,0.0,0.0,0.0,0.0,0.0,0.0,0.0,0.0,0.0,0.0,0.0,0.0,0.0,0.0,0.0,0.0,0.0,0.0,0.0,0.0,0.0,0.0,0.0,0.0,0.0,0.0,0.0,0.0,0.0,0.0,0.0,0.0,0.0,0.0,0.0,0.0,0.5394,0.5293,0.5116,0.4656,0.4051,0.3184,0.2129,0.0,0.0,0.0,0.0,0.0,0.0,0.0,0.0,0.0,0.0,0.0,0.0,0.0,0.0,0.0,0.0,0.0,0.0,0.0,0.0,0.0,0.0,0.0,0.0,0.0,0.0,0.0,0.0,0.0,0.0,0.0,0.0,0.0,0.0,0.0,0.0,0.0,0.0,0.0,0.0,0.0,0.0,0.0,0.0,0.0,0.0,0.0,0.0,0.0,0.0,0.0,0.0,0.0,0.0,0.0,0.0,0.0,0.0,0.0,0.0,0.0,0.0,0.0,0.0,0.0,0.0,0.0,0.0,0.0,0.0,0.0,0.0,0.0,0.0,0.0,0.0,0.0,0.0,0.0,0.0,0.0,0.0,0.0,0.0,0.0,0.0,0.0,0.0,0.0,0.0,0.0,0.0,0.0,0.0,0.0,0.0,0.0,0.0,0.0,0.0,0.0,0.0,0.0,0.0,0.0,0.0,0.0,0.0,0.6741,0.6546,0.5822,0.4775,0.5418,0.4291,0.0,0.0,0.0,0.0,0.0,0.0,0.0,0.0,0.0,0.0,0.0,0.0,0.0,0.0,0.0,0.0,0.0,0.0,0.0,0.0,0.0,0.0,0.0,0.0,0.0,0.0,0.0,0.0,0.0,0.0,0.0,0.0,0.0,0.0,0.0,0.0,0.0,0.0,0.0,0.0,0.0,0.0,0.0,0.0,0.0,0.0,0.0,0.0,0.0,0.0,0.0,0.0,0.0,0.0,0.0,0.0,0.0,0.0,0.0,0.0,0.0,0.0,0.0,0.0,0.0,0.0,0.0,0.0,0.0,0.0,0.0,0.0,0.0,0.0,0.0,0.0,0.0,0.0,0.0,0.0,0.0,0.0,0.0,0.0,0.0,0.0,0.0,0.0,0.0,0.0,0.0,0.0,0.0,0.0,0.0,0.0,0.0,0.0,0.0,0.0,0.0,0.0,0.0,0.0,0.0,0.0,0.0,0.0,0.0,0.7736,0.8259,0.7726,0.5803,0.5346,0.3997,0.0,0.0,0.0,0.0,0.0,0.0,0.0,0.0,0.0,0.0,0.0,0.0,0.0,0.0,0.0,0.0,0.0,0.0,0.0,0.0,0.0,0.0,0.0,0.0,0.0,0.0,0.0,0.0,0.0,0.0,0.0,0.0,0.0,0.0,0.0,0.0,0.0,0.0,0.0,0.0,0.0,0.0,0.0,0.0,0.0,0.0,0.0,0.0,0.0,0.0,0.0,0.0,0.0,0.0,0.0,0.0,0.0,0.0,0.0,0.0,0.0,0.0,0.0,0.0,0.0,0.0,0.0,0.0,0.0,0.0,0.0,0.0,0.0,0.0,0.0,0.0,0.0,0.0,0.0,0.0,0.0,0.0,0.0,0.0,0.0,0.0,0.0,0.0,0.0,0.0,0.0,0.0,0.0,0.0,0.0,0.0,0.0,0.0,0.0,0.0,0.0,0.0,0.0,0.0,0.0,0.0,0.0,0.0,1.0031,0.9019,0.9392,0.8659,0.6603,0.5277,0.3669,0.0,0.0,0.0,0.0,0.0,0.0,0.0,0.0,0.0,0.0,0.0,0.0,0.0,0.0,0.0,0.0,0.0,0.0,0.0,0.0,0.0,0.0,0.0,0.0,0.0,0.0,0.0,0.0,0.0,0.0,0.0,0.0,0.0,0.0,0.0,0.0,0.0,0.0,0.0,0.0,0.0,0.0,0.0,0.0,0.0,0.0,0.0,0.0,0.0,0.0,0.0,0.0,0.0,0.0,0.0,0.0,0.0,0.0,0.0,0.0,0.0,0.0,0.0,0.0,0.0,0.0,0.0,0.0,0.0,0.0,0.0,0.0,0.0,0.0,0.0,0.0,0.0,0.0,0.0,0.0,0.0,0.0,0.0,0.0,0.0,0.0,0.0,0.0,0.0,0.0,0.0,0.0,0.0,0.0,0.0,0.0,0.0,0.0,0.0,0.0,0.0,0.0,0.0,0.0,0.0,0.0,0.0,0.0,1.0852,1.0609,1.0241,0.9085,0.7154,0.5186,0.342,0.0,0.0,0.0,0.0,0.0,0.0,0.0,0.0,0.0,0.0,0.0,0.0,0.0,0.0,0.0,0.0,0.0,0.0,0.0,0.0,0.0,0.0,0.0,0.0,0.0,0.0,0.0,0.0,0.0,0.0,0.0,0.0,0.0,0.0,0.0,0.0,0.0,0.0,0.0,0.0,0.0,0.0,0.0,0.0,0.0,0.0,0.0,0.0,0.0,0.0,0.0,0.0,0.0,0.0,0.0,0.0,0.0,0.0,0.0,0.0,0.0,0.0,0.0,0.0,0.0,0.0,0.0,0.0,0.0,0.0,0.0,0.0,0.0,0.0,0.0,0.0,0.0,0.0,0.0,0.0,0.0,0.0,0.0,0.0,0.0,0.0,0.0,0.0,0.0,0.0,0.0,0.0,0.0,0.0,0.0,0.0,0.0,0.0,0.0,0.0,0.0,0.0,0.0,0.0,0.0,0.0,0.0,0.0,1.2755,1.1507,1.1454,1.0133,0.7398,0.5218,0.3335,0.0,0.0,0.0,0.0,0.0,0.0,0.0,0.0,0.0,0.0,0.0,0.0,0.0,0.0,0.0,0.0,0.0,0.0,0.0,0.0,0.0,0.0,0.0,0.0,0.0,0.0,0.0,0.0,0.0,0.0,0.0,0.0,0.0,0.0,0.0,0.0,0.0,0.0,0.0,0.0,0.0,0.0,0.0,0.0,0.0,0.0,0.0,0.0,-0.4127,0.0,0.0,0.0,0.0,0.0,0.0,0.0,0.0,0.0,0.0,0.0,0.0,0.0,0.0,0.0,0.0,0.0,0.0,0.0,0.0,0.0,0.0,0.0,0.0,0.0,0.0,0.0,0.0,0.0,0.0,0.0,0.0,0.0,0.0,0.0,0.0,0.0,0.0,0.0,0.0,0.0,0.0,0.0,0.0,0.0,0.0,0.0,0.0,0.0,0.0,0.0,0.0,0.0,0.0,0.0,0.0,0.0,0.0,0.0,1.3639,1.2593,1.1923,1.0333,0.7879,0.5932,0.4215,0.0,0.0,0.0,0.0,0.0,0.0,0.0,0.0,0.0,0.0,0.0,0.0,0.0,0.0,0.0,0.0,0.0,0.0,0.0,0.0,0.0,0.0,0.0,0.0,0.0,0.0,0.0,0.0,0.0,0.0,0.0,0.0,0.0,0.0,0.0,0.0,0.0,0.0,0.0,0.0,0.0,0.0,0.0,0.0,0.0,0.0,0.0,0.0,0.0,0.0,0.0,0.0,0.0,0.0,0.0,0.0,0.0,0.0,0.0,0.0,0.0,0.0,0.0,0.0,0.0,0.0,0.0,0.0,0.0,0.0,0.0,0.0,0.0,0.0,0.0,0.0,0.0,0.0,0.0,0.0,0.0,0.0,0.0,0.0,0.0,0.0,0.0,0.0,0.0,0.0,0.0,0.0,0.0,0.0,0.0,0.0,0.0,0.0,0.0,0.0,0.0,0.0,0.0,0.0,0.0,0.0,0.0,1.4338,1.4251,1.37,1.2179,1.047,0.8597,0.6916,0.5456,0.4041,0.0,0.0,0.0,0.0,0.0,0.0,0.0,0.0,0.0,0.0,0.0,0.0,0.0,0.0,0.0,0.0,0.0,0.0,0.0,0.0,0.0,0.0,0.0,0.0,0.0,0.0,0.0,0.0,0.0,0.0,0.0,0.0,0.0,0.0,0.0,0.0,0.0,0.0,-0.5069,-0.4743,0.0,0.0,0.0,0.0,0.0,0.0,0.0,0.0,-0.2319,0.0,0.0,0.0,0.0,0.0,0.0,0.0,0.0,0.0,0.0,0.0,0.0,0.0,0.0,0.0,0.0,0.0,0.0,0.0,0.0,0.0,0.0,0.0,0.0,0.0,0.0,0.0,0.0,0.0,0.0,0.0,0.0,0.0,0.0,0.0,0.0,0.0,0.0,0.0,0.0,0.0,0.0,0.0,0.0,0.0,0.0,0.0,0.0,0.0,0.0,0.0,0.0,0.0,0.0,0.0,0.0,1.6066,1.6163,1.5681,1.4498,1.3651,1.1938,0.9449,0.8022,0.6681,0.5363,0.0,0.0,0.0,0.0,0.0,0.0,0.0,0.0,0.0,0.0,0.0,0.0,0.0,0.0,0.0,0.0,0.0,0.0,0.0,0.0,0.0,0.0,0.0,0.0,0.0,0.0,0.0,0.0,0.0,0.0,0.0,0.0,0.0,0.0,0.0,0.0,0.0,0.0,0.0,-0.3594,-0.3538,0.0,0.0,0.0,0.0,0.0,0.0,0.0,0.0,-0.1489,0.0,0.0,0.0,0.0,0.0,0.0,0.0,0.0,0.0,0.0,0.0,0.0,0.0,0.0,0.0,0.0,0.0,0.0,0.0,0.0,0.0,0.0,0.0,0.0,0.0,0.0,0.0,0.0,0.0,0.0,0.0,0.0,0.0,0.0,0.0,0.0,0.0,0.0,0.0,0.0,0.0,0.0,0.0,0.0,0.0,0.0,0.0,0.0,0.0,0.0,0.0,0.0,0.0,0.0,0.0,1.6794,1.7152,1.6594,1.5192,1.3907,1.2299,1.0062,0.862,0.7457,0.0,0.0,0.0,0.0,0.0,0.0,0.0,0.0,0.0,0.0,0.0,0.0,0.0,0.0,0.0,0.0,0.0,0.0,0.0,0.0,0.0,0.0,0.0,0.0,0.0,0.0,0.0,0.0,0.0,0.0,0.0,0.0,0.0,0.0,0.0,0.0,0.0,0.0,0.0,0.0,-0.3448,-0.3442,-0.3181,0.0,0.0,0.0,0.0,0.0,0.0,-0.1322,-0.1212,0.0,0.0,0.0,0.0,0.0,0.0,0.0,0.0,0.0,0.0,0.0,0.0,0.0,0.0,0.0,0.0,0.0,0.0,0.0,0.0,0.0,0.0,0.0,0.0,0.0,0.0,0.0,0.0,0.0,0.0,0.0,0.0,0.0,0.0,0.0,0.0,0.0,0.0,0.0,0.0,0.0,0.0,0.0,0.0,0.0,0.0,0.0,0.0,0.0,0.0,0.0,0.0,0.0,0.0,0.0,1.7449,1.785,1.7353,1.5861,1.4232,1.2471,1.0862,0.9432,0.8335,0.0,0.0,0.0,0.0,0.0,0.0,0.0,0.0,0.0,0.0,0.0,0.0,0.0,0.0,0.0,0.0,0.0,0.0,0.0,0.0,0.0,0.0,0.0,0.0,0.0,0.0,0.0,0.0,0.0,0.0,0.0,0.0,0.0,0.0,0.0,0.0,0.0,0.0,0.0,0.0,0.0,-0.3448,-0.2907,-0.3025,0.0,0.0,0.0,0.0,-0.1661,-0.1444,0.0,0.0,0.0,0.0,0.0,0.0,0.0,0.0,0.0,0.0,0.0,0.0,0.0,0.0,0.0,0.0,0.0,0.0,0.0,0.0,0.0,0.0,0.0,0.0,0.0,0.0,0.0,0.0,0.0,0.0,0.0,0.0,0.0,0.0,0.0,0.0,0.0,0.0,0.0,0.0,0.0,0.0,0.0,0.0,0.0,0.0,0.0,0.0,0.0,0.0,0.0,0.0,0.0,0.0,0.0,0.0,1.8536,1.8367,1.789,1.6823,1.5308,1.3673,1.202,1.0884,0.9738,0.0,0.0,0.0,0.0,0.0,0.0,0.0,0.0,0.0,0.0,0.0,0.0,0.0,0.0,0.0,0.0,0.0,0.0,0.0,0.0,0.0,0.0,0.0,0.0,0.0,0.0,0.0,0.0,0.0,0.0,0.0,0.0,0.0,0.0,0.0,0.0,0.0,0.0,0.0,0.0,0.0,-0.29,-0.229,-0.2854,-0.3399,0.0,0.0,0.0,-0.2752,-0.2515,0.0,0.0,0.0,0.0,0.0,0.0,0.0,0.0,0.0,0.0,0.0,0.0,0.0,0.0,0.0,0.0,0.0,0.0,0.0,0.0,0.0,0.0,0.0,0.0,0.0,0.0,0.0,0.0,0.0,0.0,0.0,0.0,0.0,0.0,0.0,0.0,0.0,0.0,0.0,0.0,0.0,0.0,0.0,0.0,0.0,0.0,0.0,0.0,0.0,0.0,0.0,0.0,0.0,0.0,0.0,1.8779,1.8735,1.9018,1.8491,1.7043,1.5861,1.4417,1.2726,1.174,1.0852,0.0,0.0,0.0,0.0,0.0,0.0,0.0,0.0,0.0,0.0,0.0,0.0,0.0,0.0,0.0,0.0,0.0,0.0,0.0,0.0,0.0,0.0,0.0,0.0,0.0,0.0,0.0,0.0,0.0,0.0,0.0,0.0,0.0,0.0,0.0,0.0,0.0,0.0,0.0,0.0,0.0,0.0,-0.2249,-0.2634,0.0,0.0,0.0,-0.1006,-0.1846,0.0,0.0,0.0,0.0,0.0,0.0,0.0,0.0,0.0,0.0,0.0,0.0,0.0,0.0,0.0,0.0,0.0,0.0,0.0,0.0,0.0,0.0,0.0,0.0,0.0,0.0,0.0,0.0,0.0,0.0,0.0,0.0,0.0,0.0,0.0,0.0,0.0,0.0,0.0,0.0,0.0,0.0,0.0,0.0,0.0,0.0,0.0,0.0,0.0,0.0,0.0,0.0,0.0,0.0,0.0,0.0,0.0,1.944,1.9786,1.9259,1.7575,1.6549,1.5237,1.3754,1.2612,0.0,0.0,0.0,0.0,0.0,0.0,0.0,0.0,0.0,0.0,0.0,0.0,0.0,0.0,0.0,0.0,0.0,0.0,0.0,0.0,0.0,0.0,0.0,0.0,0.0,0.0,0.0,0.0,0.0,0.0,0.0,0.0,0.0,0.0,0.0,0.0,0.0,0.0,0.0,0.0,0.0,0.0,-0.1637,-0.174,-0.2049,-0.1928,0.0,0.0,-0.0623,-0.1061,-0.0949,-0.1136,0.0,0.0,0.0,0.0,0.0,0.0,0.0,0.0,0.0,0.0,0.0,0.0,0.0,0.0,0.0,0.0,0.0,0.0,0.0,0.0,0.0,0.0,0.0,0.0,0.0,0.0,0.0,0.0,0.0,0.0,0.0,0.0,0.0,0.0,0.0,0.0,0.0,0.0,0.0,0.0,0.0,0.0,0.0,0.0,0.0,0.0,0.0,0.0,0.0,0.0,0.0,0.0,0.0,0.0,0.0,2.1173,2.0883,2.0267,1.9153,1.7705,1.6402,1.5219,1.3727,1.2441,0.0,0.0,0.0,0.0,0.0,0.0,0.0,0.0,0.0,0.0,0.0,0.0,0.0,0.0,0.0,0.0,0.0,0.0,0.0,0.0,0.0,0.0,0.0,0.0,0.0,0.0,0.0,0.0,0.0,0.0,0.0,0.0,0.0,0.0,0.0,0.0,0.0,0.0,0.0,0.0,0.0,-0.0978,-0.0321,-0.0756,-0.1193,0.0,0.0,-0.0974,-0.1067,-0.1772,-0.2335,-0.2662,0.0,0.0,0.0,0.0,0.0,0.0,0.0,0.0,0.0,0.0,0.0,0.0,0.0,0.0,0.0,0.0,0.0,0.0,0.0,0.0,0.0,0.0,0.0,0.0,0.0,0.0,0.0,0.0,0.0,0.0,0.0,0.0,0.0,0.0,0.0,0.0,0.0,0.0,0.0,0.0,0.0,0.0,0.0,0.0,0.0,0.0,0.0,0.0,0.0,0.0,0.0,0.0,0.0,2.1156,2.111,2.122,2.0823,1.9623,1.8056,1.6815,1.5671,1.4277,1.306,0.0,0.0,0.0,0.0,0.0,0.0,0.0,0.0,0.0,0.0,0.0,0.0,0.0,0.0,0.0,0.0,0.0,0.0,0.0,0.0,0.0,0.0,0.0,0.0,0.0,0.0,0.0,0.0,-0.2079,-0.2178,-0.2346,0.0,0.0,0.0,0.0,0.0,0.0,0.0,0.0,0.0,0.0,0.0335,0.068,0.0,0.0,0.0,0.0445,0.0445,0.0223,-0.0446,-0.1204,-0.2281,-0.1613,0.0,0.0,0.0,0.0,0.0,0.0,0.0,0.0,0.0,0.0,0.0,0.0,0.0,0.0,0.0,0.0,0.0,0.0,0.0,0.0,0.0,0.0,0.0,0.0,0.0,0.0,0.0,0.0,0.0,0.0,0.0,0.0,0.0,0.0,0.0,0.0,0.0,0.0,0.0,0.0,0.0,0.0,0.0,0.0,0.0,0.0,0.0,0.0,0.0,0.0,0.0,0.0,2.1415,2.1396,2.175,2.1334,2.013,1.8884,1.7692,1.645,1.5302,1.3968,0.0,0.0,0.0,0.0,0.0,0.0,0.0,0.0,0.0,0.0,0.0,0.0,0.0,0.0,0.0,0.0,0.0,0.0,0.0,0.0,0.0,0.0,0.0,0.0,0.0,0.0,0.0,0.0,-0.0533,-0.0798,-0.1122,0.0,0.0,0.0,0.0,0.0,0.0,0.0,0.0,0.0,0.0,0.1484,0.1408,0.0933,0.0809,0.1151,0.1481,0.1472,0.0798,0.045,-0.0219,-0.1684,0.0,0.0,0.0,0.0,0.0,0.0,0.0,0.0,0.0,0.0,0.0,0.0,0.0,0.0,0.0,0.0,0.0,0.0,0.0,0.0,0.0,0.0,0.0,0.0,0.0,0.0,0.0,0.0,0.0,0.0,0.0,0.0,0.0,0.0,0.0,0.0,0.0,0.0,0.0,0.0,0.0,0.0,0.0,0.0,0.0,0.0,0.0,0.0,0.0,0.0,0.0,0.0,0.0,0.0,2.2601,2.257,2.197,2.0764,2.037,1.9278,1.7642,1.6769,1.5573,1.3943,0.0,0.0,0.0,0.0,0.0,0.0,0.0,0.0,0.0,0.0,0.0,0.0,0.0,0.0,0.0,0.0,0.0,0.0,0.0,0.0,0.0,0.0,0.0,0.0,0.0,0.0,0.0626,0.0627,0.0265,0.0,0.0,0.0,0.0,0.0,0.0,0.0,0.0,0.0,0.0,0.2336,0.231,0.1997,0.2237,0.2109,0.1383,0.184,0.1944,0.0675,0.0568,0.0226,0.0,0.0,0.0,0.0,0.0,0.0,0.0,0.0,0.0,0.0,0.0,0.0,0.0,0.0,0.0,0.0,0.0,0.0,0.0,0.0,0.0,0.0,0.0,0.0,0.0,0.0,0.0,2.0749,2.0289,0.0,0.0,0.0,0.0,0.0,0.0,0.0,0.0,0.0,0.0,0.0,2.1395,2.1569,0.0,0.0,0.0,0.0,0.0,0.0,0.0,0.0,0.0,0.0,0.0,0.0,2.2766,2.3291,2.3231,2.2741,2.1961,2.0597,1.9509,1.8468,1.6938,1.5445,1.3968,0.0,0.0,0.0,0.0,0.0,0.0,0.0,0.0,0.0,0.0,0.0,0.0,0.0,0.0,0.0,0.0,0.0,0.0,0.0,0.0,0.0,0.0,0.0,0.0,0.0,0.1638,0.0,0.0,0.0,0.0,0.0,0.0,0.0,0.0,0.0,0.0,0.0,0.1329,0.2294,0.2735,0.2947,0.2905,0.2648,0.2499,0.0,0.0,0.0,0.0,0.0,0.0,0.0,0.0,0.0,0.0,0.0,0.0,0.0,0.0,0.7066,0.6144,0.5984,0.5986,0.5957,0.0,0.0,0.0,0.0,0.0,0.0,0.0,0.0,0.0,0.0,0.0,0.0,0.0,0.0,0.0,0.0,2.1376,0.0,0.0,0.0,0.0,0.0,0.0,0.0,0.0,2.2953,2.2982,2.2506,2.2571,2.1779,0.0,1.9957,1.9041,0.0,0.0,0.0,0.0,0.0,0.0,0.0,0.0,2.3531,2.419,2.395,2.336,2.2339,2.12,2.0067,1.8893,1.7062,1.5641,1.4722,1.3429,1.2649,0.0,0.0,0.0,0.0,0.0,0.0,0.0,0.0,0.0,0.0,0.0,0.0,0.0,0.0,0.0,0.0,0.0,0.0,0.0,0.0,0.0,0.0,0.0,0.3023,0.0,0.0,0.0,0.0,0.0,0.0,0.0,0.0,0.0,0.0587,0.152,0.2551,0.3416,0.363,0.3602,0.3341,0.0,0.0,0.0,0.0,0.0,0.0,0.0,0.1699,0.1662,0.1318,0.1844,0.4024,0.5723,0.6915,0.7089,0.0,0.0,0.6989,0.6947,0.6973,0.6846,0.6863,0.6923,0.6762,0.7058,0.7236,0.0,0.0,0.0,0.0,0.0,0.0,0.0,0.0,2.2483,2.2466,0.0,2.1816,0.0,0.0,0.0,0.0,0.0,0.0,0.0,0.0,2.6151,2.6174,2.4242,2.3867,2.3178,2.2087,2.1356,2.0641,1.9937,1.9157,0.0,0.0,0.0,0.0,0.0,0.0,2.423,2.5468,2.481,2.3668,2.2204,2.2049,2.0907,1.8905,1.7272,1.6414,1.6278,1.4996,1.4002,1.3348,1.2942,0.0,0.0,0.0,0.0,0.0,0.0,0.0,0.0,0.0,0.0,0.0,0.0,0.0,0.0,0.0,0.0,0.0,0.0,0.0,0.0,0.4522,0.0,0.0,0.0,0.0,0.0,0.0,0.0,0.0,0.0,0.0,0.2486,0.3318,0.4257,0.5249,0.0,0.0,0.0,0.0,0.3083,0.373,0.3176,0.2549,0.1996,0.2235,0.2329,0.1918,0.0,0.0,0.5713,0.6638,0.7343,0.7454,0.8188,0.8556,0.8406,0.856,0.873,0.8275,0.8051,0.8064,0.8166,0.7833,0.7604,2.5465,0.0,0.0,0.0,0.0,2.435,2.4572,2.5196,2.4158,2.3687,2.3585,2.2936,0.0,0.0,0.0,0.0,0.0,0.0,2.5525,2.5387,2.57,2.5465,2.4885,2.3779,2.3152,2.2787,2.2444,2.2518,2.2831,2.3152,2.246,2.1047,0.0,0.0,0.0,0.0,2.5507,2.6,2.5092,2.4162,2.3559,2.2461,2.0877,1.8751,1.823,1.7574,1.6791,1.5828,1.5124,1.4563,1.376,0.0,0.0,0.0,0.0,0.0,0.0,0.0,0.0,0.0,0.0,0.0,0.0,0.0,0.0,0.0,0.0,0.0,0.0,0.0,0.4773,0.4758,0.4576,0.0,0.0,0.0,0.0,0.0,0.0,0.0,0.0,0.0,0.465,0.495,0.5173,0.0,0.0,0.4913,0.4462,0.3927,0.3762,0.4102,0.0,0.0,0.0,0.2684,0.2655,0.3312,0.4531,0.5725,0.6684,0.736,0.7949,0.8345,0.8974,0.95,0.978,0.9472,0.9033,0.857,0.8604,0.8751,0.8445,0.8314,0.817,2.7457,2.6235,2.6408,2.6407,2.6208,2.6154,2.623,2.6207,2.5279,2.4876,2.4754,2.4161,2.3599,2.3108,2.3322,0.0,0.0,0.0,2.7012,2.7279,2.6799,2.6325,2.5696,2.4404,2.3699,2.3568,2.3324,2.3808,2.4908,2.6176,2.6014,2.4533,0.0,0.0,2.6526,2.6606,2.6686,2.688,2.5809,2.4898,2.4088,2.2348,2.0696,1.9388,1.8812,1.8285,1.7621,1.6765,1.6118,1.5951,1.4618,1.3282,0.0,0.0,0.0,0.0,0.0,0.0,0.0,0.0,0.0,0.0,0.0,0.6288,0.0,0.0,0.0,0.0,0.5665,0.6155,0.6563,0.6456,0.0,0.0,0.0,0.0,0.0,0.0,0.0,0.5413,0.5733,0.6108,0.6555,0.6672,0.657,0.628,0.6106,0.5906,0.569,0.0,0.4336,0.4545,0.4027,0.3638,0.3722,0.3551,0.3733,0.4714,0.5769,0.6604,0.7165,0.7756,0.8376,0.8784,0.9582,1.0242,1.0514,1.012,0.9712,0.9126,0.9269,0.9305,0.8783,0.8721,0.8737,2.9226,2.9126,2.862,2.7843,2.6952,2.8089,2.7475,2.5675,2.5916,2.5816,2.5561,2.5437,2.5303,2.5252,2.5745,0.0,0.0,2.8164,2.8869,2.9371,2.8854,2.7944,2.6627,2.5427,2.4742,2.4506,2.4165,2.4877,2.6537,2.8462,2.9398,2.9171,2.8294,2.8244,2.8721,2.826,2.7879,2.7863,2.6805,2.555,2.4088,2.1943,2.0732,2.0329,1.9271,1.8643,1.8535,1.7699,1.7203,1.7145,1.5481,1.4027,1.2942,0.0,0.0,0.0,0.0,0.0,0.0,0.0,0.0,0.0,0.0,0.0,0.0,0.0,0.0,0.0,0.805,0.0,0.894,0.8837,0.0,0.0,0.0,0.7214,0.6584,0.7198,0.7466,0.6793,0.0,0.0,0.0,0.0,0.8352,0.7827,0.7335,0.685,0.694,0.5766,0.4916,0.5283,0.4857,0.457,0.4426,0.4606,0.4979,0.5864,0.6444,0.6831,0.7282,0.8139,0.8671,0.8811,0.9824,1.0792,1.065,1.0827,1.0779,0.9934,0.9801,0.9588,0.9127,0.9015,0.9083,3.0267,3.0466,3.0871,3.0152,2.8737,2.8773,2.8354,2.7696,2.698,2.6659,2.6613,2.6123,2.6276,2.6884,2.7729,2.8203,2.8549,2.9197,2.9479,2.9362,2.8232,2.737,2.6844,2.5197,2.4771,2.5562,2.582,2.6939,2.8646,3.0078,3.121,3.1854,3.1621,3.099,2.9872,2.9296,2.8633,2.7983,2.6622,2.5237,2.3806,2.2761,2.1787,2.1117,2.0483,1.982,1.9104,1.8812,1.8026,1.6728,1.655,1.539,1.2862,1.0494,0.0,0.0,0.0,0.0,0.0,0.0,0.0,0.0,0.0,0.8338,0.6579,0.0,0.9145,0.0,0.9912,1.0019,0.8957,0.8667,0.0,0.0,0.8438,0.8222,0.916,0.8456,0.7924,0.8246,0.8072,0.8112,0.8702,0.8903,0.8986,0.898,0.8156,0.7596,0.7873,0.707,0.6248,0.6189,0.553,0.487,0.493,0.5301,0.5852,0.6224,0.673,0.716,0.7499,0.8295,0.9015,0.9342,1.0092,1.0747,1.106,1.1081,1.0974,1.0586,1.0147,0.9706,0.9375,0.9254,0.9233,3.0701,3.1083,3.1388,3.0922,3.0052,2.9905,2.9333,2.8474,2.7765,2.7448,2.7526,2.7239,2.7627,2.8585,2.9193,2.9675,3.0013,3.0419,3.0477,3.0225,2.8833,2.7878,2.7282,2.5675,2.5522,2.6572,2.7172,2.8543,3.0438,3.1639,3.2463,3.3048,3.3063,3.2182,3.0726,3.045,2.9606,2.7961,2.6497,2.5045,2.3779,2.3158,2.2286,2.1337,2.0611,1.9945,1.9315,1.8717,1.7908,1.6757,1.6801,1.5669,1.2858,1.1147,0.9869,0.0,0.0,0.0,0.0,0.0,0.0,0.0,0.0,0.0,0.0,0.0,0.9742,0.0,1.1456,0.0,1.0812,1.0642,1.0669,1.1067,1.0245,0.9797,1.0374,0.9286,0.8723,0.9106,0.8706,0.8634,0.9239,0.943,0.9621,1.0163,0.9478,0.8779,0.8643,0.8258,0.7702,0.7207,0.6769,0.6402,0.6315,0.6542,0.6744,0.6878,0.716,0.7382,0.761,0.8536,0.9259,0.9496,1.027,1.104,1.1287,1.1321,1.1236,1.0798,1.0476,1.0036,0.9706,0.9522,0.9458,3.0984,3.1291,3.108,3.1001,3.1052,3.1129,3.022,2.8633,2.8484,2.8341,2.8187,2.8415,2.9184,3.0146,3.0357,3.0787,3.1296,3.1467,3.1342,3.1063,2.9685,2.8564,2.7633,2.6455,2.6498,2.7525,2.8309,2.9879,3.2176,3.2906,3.338,3.3682,3.3357,3.2511,3.124,3.127,3.002,2.7582,2.609,2.4862,2.3877,2.3259,2.2387,2.1235,2.0355,1.9692,1.9289,1.8201,1.7486,1.7106,1.6698,1.5404,1.3092,1.1918,1.0729,0.0,0.927,0.0,0.0,0.0,0.0,0.0,0.0,0.0,0.0,0.951,1.0198,1.2856,1.3003,1.304,1.318,1.31,1.2957,1.2751,1.2174,1.1525,1.0871,1.0128,0.954,0.9625,0.9595,0.9724,1.0143,1.0076,1.0399,1.1183,1.0836,1.0293,0.9643,0.9377,0.9065,0.8165,0.8028,0.7635,0.7751,0.7624,0.7415,0.755,0.761,0.761,0.7715,0.8693,0.9525,0.9647,1.0596,1.1304,1.1261,1.1463,1.1455,1.1017,1.0806,1.0578,1.0014,0.9838,0.982,3.1267,3.18,3.18,3.172,3.1504,3.163,3.0783,2.9546,2.9319,2.9192,2.9139,2.9663,3.0313,3.0959,3.1406,3.1699,3.1855,3.168,3.1249,3.039,2.9352,2.8327,2.7379,2.6741,2.711,2.8436,2.9569,3.1272,3.3496,3.3604,3.3994,3.4768,3.3482,3.2189,3.088,0.0,0.0,0.0,2.5012,2.4333,2.3692,2.3112,2.2336,2.1392,2.0837,0.0,1.9005,1.8852,1.8255,1.704,1.668,0.0,0.0,0.0,0.0,0.0,0.0,0.0,0.0,0.0,0.0,0.0,1.142,1.1192,1.073,1.219,1.4019,1.5712,1.4595,1.3648,1.3546,1.2865,1.2724,1.3236,1.276,1.2309,1.2145,1.1485,1.0883,1.0524,1.0494,1.0708,1.0936,1.1381,1.1682,1.2003,1.2173,1.2041,1.138,1.0585,0.9738,0.8944,0.8166,0.7739,0.7914,0.7668,0.7573,0.775,0.7715,0.7826,0.8269,0.8954,0.9647,1.0036,1.094,1.1617,1.1791,1.2001,1.201,1.1564,1.1463,1.1135,1.0366,1.021,1.0264,3.1849,0.0,3.2098,3.2019,0.0,3.1729,3.1084,3.0241,2.9985,2.9982,2.9999,3.0298,3.0873,3.1506,3.1779,3.2031,3.2376,3.2113,3.1472,3.0336,2.9386,2.8448,2.7606,2.7584,2.8361,2.9738,3.095,3.2508,3.4229,3.3938,3.3836,3.4022,3.2709,3.1352,2.9915,2.8433,2.6785,2.5179,2.4762,2.4224,2.348,2.3089,2.2314,2.1174,0.0,0.0,0.0,0.0,0.0,0.0,0.0,0.0,0.0,0.0,0.0,1.1626,1.1477,1.1515,1.1698,1.1812,1.2142,1.2798,1.3326,1.3067,1.1652,1.3709,1.5279,1.5808,1.5332,1.4959,1.4721,1.4332,1.4274,1.463,1.3843,1.3216,1.3106,1.2083,1.1335,1.1411,1.104,1.1064,1.1614,1.1857,1.237,1.28,1.2832,1.27,1.2312,1.138,1.0379,0.9651,0.9268,0.8952,0.9104,0.8627,0.8382,0.8437,0.8263,0.8263,0.8595,0.9147,0.9816,1.0366,1.1244,1.1891,1.201,1.2402,1.2559,1.1827,1.1652,1.1449,1.0712,1.0413,1.0349,3.2407,3.2724,3.2346,3.222,3.2143,3.1836,3.1318,3.0776,0.0,0.0,0.0,3.0842,3.1286,3.2131,3.2172,3.2397,3.2549,3.2401,3.1625,3.0248,2.9541,2.8733,2.8101,2.8586,2.9615,3.0951,3.2162,3.3462,3.4778,3.4115,3.353,3.3028,3.1871,3.0501,2.8874,2.6824,2.5413,2.4876,2.4706,2.4134,2.3062,2.2896,2.2213,2.0688,2.0292,1.9644,1.8759,1.8121,1.7315,1.6477,1.6249,1.5518,1.3873,1.3558,1.3386,1.3297,1.3374,1.3565,1.3701,1.3822,1.3895,1.4173,1.5106,1.4884,1.304,1.4746,1.5858,1.5645,1.601,1.6215,1.6187,1.5989,1.5952,1.6062,1.4978,1.4278,1.413,1.2802,1.1994,1.2192,1.1784,1.1642,1.2434,1.2693,1.2913,1.3569,1.349,1.3104,1.2832,1.1871,1.0967,1.0458,1.0357,1.0458,1.0237,0.9809,0.9467,0.9015,0.8725,0.8706,0.9037,0.9478,1.0036,1.0688,1.1455,1.2001,1.2119,1.2669,1.2846,1.1928,1.1806,1.1655,1.1059,1.0691,1.0609,3.2554,3.2901,3.2724,3.2648,3.2573,3.2346,3.1909,3.1265,3.0522,3.0675,3.1576,3.1618,3.2128,3.3014,3.3308,3.303,3.2256,3.2231,3.1206,0.0,2.9354,2.8879,2.8241,2.9157,3.0212,3.1386,3.2623,3.3861,3.4999,3.4406,3.381,3.3224,3.2177,3.0398,2.8126,2.6091,2.4913,2.4567,2.4176,2.3477,2.2517,2.2176,2.1435,2.0377,1.9895,1.9153,1.8134,1.8066,1.7772,1.7236,1.6971,1.641,1.5653,1.5654,1.5327,1.4697,1.4804,1.4892,1.4743,1.4772,1.5116,1.59,1.68,1.6669,1.5417,1.6006,1.6884,1.7669,1.7027,1.6632,1.723,1.6547,1.633,1.6778,1.6156,1.5468,1.4874,1.4167,1.35,1.2976,1.317,1.3474,1.3888,1.4538,1.4874,1.5043,1.467,1.4277,1.3333,1.2042,1.1242,1.1046,1.09,1.0642,1.0517,1.0263,0.9873,0.9582,0.9106,0.9037,0.9375,0.9816,1.0484,1.0916,1.201,1.2555,1.2455,1.2891,1.284,1.2156,1.1982,1.1881,1.1498,1.1328,1.1193,3.3112,3.3146,3.2828,3.2682,3.2709,3.2664,3.2528,3.2328,3.1473,3.1292,3.172,3.2342,3.2911,3.3425,3.3623,3.325,3.2382,3.2298,3.1307,2.9748,2.9618,2.9472,2.9302,3.0437,3.1554,3.2521,3.358,3.4485,3.4931,3.4276,3.3572,3.2819,3.1013,2.8905,2.694,2.5622,2.4682,2.3988,2.3649,2.3051,2.2119,2.2244,2.1768,2.0624,2.0421,1.998,1.9092,1.8717,1.8266,1.7644,1.7547,1.7142,1.6419,1.6374,1.6076,1.5543,1.5561,1.5574,1.5488,1.5837,1.6247,1.682,1.7397,1.7598,1.7084,1.7457,1.8003,1.8745,1.8167,1.7775,1.777,1.7603,1.7528,1.7368,1.7092,1.6465,1.5693,1.5025,1.4667,1.4459,1.4461,1.476,1.5385,1.5713,1.5834,1.5974,1.5574,1.4922,1.4128,1.3096,1.2393,1.1909,1.1872,1.1543,1.1051,1.0878,1.0576,1.0077,0.9639,0.9596,1.0036,1.0366,1.0949,1.1797,1.2521,1.283,1.2788,1.3266,1.3164,1.2432,1.2374,1.2298,1.1921,1.1542,1.1135,3.3466,3.3227,3.2917,3.2704,3.2616,3.2806,3.2993,3.3239,3.246,3.2071,3.2,3.2581,3.3075,3.3482,3.3508,3.3034,3.2326,3.2086,3.1304,3.0177,3.0103,3.0233,3.0568,3.1796,3.2794,3.3587,3.441,3.4786,3.4571,3.3856,3.2911,3.1813,2.9518,2.7522,2.6071,2.5278,2.4388,2.3512,2.3079,2.2577,2.1921,2.2227,2.1873,2.0949,2.0697,2.0428,1.995,1.9316,1.8691,1.8092,1.8117,1.7775,1.7244,1.7035,1.6896,1.6608,1.6571,1.6573,1.6522,1.6959,1.7416,1.7699,1.8134,1.836,1.8257,1.8752,1.9192,1.9596,1.942,1.9022,1.8731,1.8907,1.8916,1.8223,1.7968,1.7566,1.6634,1.6009,1.5795,1.6113,1.5993,1.6191,1.6615,1.6711,1.6623,1.6623,1.6193,1.5505,1.4938,1.437,1.376,1.3047,1.2821,1.2499,1.1687,1.1471,1.1208,1.058,1.017,1.0288,1.0626,1.0847,1.1313,1.2432,1.2898,1.2979,1.3145,1.3526,1.336,1.274,1.2813,1.279,1.2365,1.1748,1.1092,3.3466,3.3326,3.3086,3.2775,3.2499,3.2806,3.3138,3.3355,3.301,3.2699,3.2463,3.1889,3.2097,3.2723,3.2802,3.2277,3.1419,3.1525,3.108,3.0448,3.0637,3.1048,3.1741,3.2846,3.3725,3.4179,3.4792,3.4738,3.4017,3.326,3.1902,2.9984,2.8299,2.7172,2.6341,2.479,2.3758,2.3451,2.2453,2.2046,2.2082,2.1447,2.0943,2.0642,2.0184,1.9878,1.9659,1.9268,1.8993,1.8877,1.8576,1.8416,1.8506,1.8443,1.8443,1.8346,1.8516,1.8564,1.8275,1.8464,1.8499,1.8613,1.9192,1.933,1.8875,1.9844,2.0524,2.068,2.0539,2.0332,2.0348,2.0204,2.0062,1.9752,1.919,1.8416,1.7921,1.7841,1.7732,1.7245,1.7656,1.7931,1.8013,1.8175,1.8045,1.7367,1.6829,1.6329,1.5885,1.5441,1.5044,1.4382,1.3695,1.3131,1.2669,1.2374,1.1862,1.1085,1.081,1.0904,1.1073,1.1355,1.1845,1.2783,1.3157,1.3327,1.3357,1.3456,1.3556,1.324,1.3308,1.3383,1.3038,1.2386,1.1698,3.3522,3.3589,3.3056,3.2632,3.2554,3.3485,3.3875,3.3729,3.414,3.4173,3.3777,3.2667,3.2305,3.2672,3.2672,3.2228,3.1396,3.1705,3.1547,3.095,3.1468,3.2249,3.3088,3.3967,3.458,3.509,3.5359,3.4928,3.3832,3.2294,3.0592,2.8891,2.783,2.6799,2.5552,2.45,2.378,2.333,2.2171,2.1648,2.1781,2.1578,2.124,2.0828,2.0556,2.048,2.0282,1.9837,1.9548,1.9548,1.9152,1.8913,1.8851,1.8531,1.821,1.8146,1.8309,1.833,1.8397,1.8551,1.8791,1.9107,1.9853,2.0129,1.9931,2.0586,2.1081,2.144,2.1052,2.0779,2.0695,2.0572,2.0538,2.043,2.0113,1.9586,1.9146,1.8985,1.9025,1.9001,1.8986,1.9157,1.9422,1.9139,1.8489,1.7735,1.7334,1.6981,1.6577,1.6151,1.5978,1.555,1.4901,1.3965,1.3175,1.2965,1.2569,1.1959,1.1855,1.195,1.2051,1.2367,1.2774,1.3406,1.3658,1.3799,1.4025,1.4076,1.4198,1.3904,1.3908,1.3942,1.3625,1.3058,1.2505,3.348,3.3645,3.3012,3.2704,3.2571,3.3597,3.3908,3.3684,3.4197,3.4388,3.405,3.2858,3.2269,3.2409,3.2306,3.1915,3.1371,3.1576,3.1652,3.147,3.2199,3.3064,3.4205,3.49,3.5462,3.5896,3.579,3.4982,3.3328,3.1337,2.9505,2.8124,2.7364,2.6372,2.4915,2.4281,2.3724,2.3175,2.2206,2.1668,2.1491,2.1609,2.1448,2.0895,2.0796,2.0777,2.0777,2.0251,2.002,2.002,1.9627,1.939,1.9231,1.8754,1.8521,1.8504,1.8682,1.8939,1.9059,1.9062,1.9322,1.9996,2.0686,2.1019,2.1111,2.1404,2.1894,2.2401,2.2009,2.1522,2.1137,2.1232,2.1279,2.1132,2.1074,2.0886,2.0294,2.0315,2.0708,2.0664,2.0572,2.0462,2.0602,2.0094,1.9242,1.8494,1.7976,1.7598,1.7088,1.6729,1.6571,1.6451,1.5926,1.515,1.3869,1.3277,1.3086,1.2689,1.256,1.2562,1.2841,1.3053,1.3456,1.3811,1.4002,1.4207,1.4323,1.4656,1.4677,1.4531,1.4437,1.4437,1.4282,1.3738,1.3174,3.3494,3.3283,3.3086,3.2846,3.2731,3.2842,3.2842,3.2908,3.2736,3.2636,3.27,3.1998,3.1723,3.1729,3.1408,3.1003,3.075,3.0905,3.1319,3.2012,3.2566,3.3541,3.4979,3.5683,3.6163,3.6536,3.6218,3.4714,3.2246,3.041,2.8782,2.7442,2.6789,2.5947,2.5015,2.4122,2.3479,2.3182,2.2569,2.2012,2.1322,2.1286,2.1073,2.0703,2.0605,2.0625,2.0605,2.043,2.0255,2.0255,2.002,1.9863,1.9863,1.9803,1.9901,2.0272,2.0625,2.0851,2.073,2.036,2.0491,2.1362,2.1919,2.2161,2.2162,2.239,2.298,2.3685,2.3444,2.2942,2.2494,2.2718,2.2812,2.218,2.2199,2.1933,2.134,2.2124,2.2529,2.227,2.2076,2.1853,2.1235,2.0742,2.0219,1.9475,1.884,1.8215,1.7853,1.7339,1.6973,1.6713,1.6667,1.6457,1.5278,1.4381,1.3565,1.3221,1.3173,1.2865,1.3057,1.3317,1.38,1.4116,1.4228,1.4456,1.4604,1.4761,1.477,1.4738,1.4749,1.4696,1.4852,1.3943,1.3451,3.3086,3.2917,3.2846,3.2775,3.2731,3.3234,3.3501,3.3529,3.3991,3.4186,3.4029,3.3184,3.2651,3.2475,3.158,3.0973,3.0776,3.1423,3.2097,3.2618,3.3699,3.4821,3.5789,3.627,3.6693,3.6929,3.6536,3.4847,3.2143,3.0256,2.868,2.755,2.6795,2.623,2.5509,2.4385,2.3765,2.3635,2.2864,2.2176,2.1818,2.1665,2.1492,2.1339,2.0876,2.0566,2.0566,2.0489,2.0489,2.0489,2.0255,2.0098,1.9882,1.9789,1.9852,2.0129,2.0802,2.1204,2.1212,2.0919,2.1159,2.2142,2.3026,2.3202,2.285,2.2983,2.3391,2.3803,2.3913,2.3842,2.381,2.3624,2.3358,2.3083,2.29,2.2946,2.3074,2.3346,2.3405,2.334,2.3106,2.248,2.174,2.1362,2.0863,1.9837,1.942,1.9031,1.8633,1.8121,1.775,1.7491,1.7373,1.7103,1.6563,1.5536,1.4727,1.4559,1.4467,1.4573,1.4738,1.4622,1.4955,1.4869,1.4848,1.4675,1.4919,1.5045,1.5031,1.5366,1.5377,1.5281,1.5451,1.4782,1.4172,3.2988,3.2945,3.2846,3.2945,3.2973,3.3505,3.3701,3.3729,3.4293,3.4562,3.4405,3.3532,3.2973,3.2624,3.1729,3.1123,3.0927,3.1915,3.2594,3.3172,3.4473,3.568,3.6559,3.6772,3.7007,3.7155,3.617,3.4362,3.2123,3.0494,2.9068,2.7782,2.71,2.6514,2.5878,2.4825,2.4317,2.4122,2.347,2.294,2.2539,2.2109,2.1818,2.1645,2.1108,2.0819,2.0799,2.0644,2.0566,2.0586,2.0429,2.0407,2.0339,2.0391,2.0513,2.0723,2.1497,2.1887,2.2023,2.2025,2.2441,2.3107,2.391,2.4189,2.3492,2.3691,2.4035,2.435,2.4711,2.4897,2.5127,2.4864,2.4351,2.414,2.3878,2.3978,2.4178,2.4224,2.4348,2.4348,2.3976,2.323,2.248,2.2104,2.1464,2.0447,2.0235,1.9889,1.9253,1.8954,1.8682,1.8445,1.804,1.7766,1.7221,1.6431,1.5792,1.5598,1.513,1.55,1.587,1.5792,1.5747,1.5543,1.5407,1.521,1.5254,1.5297,1.5669,1.5965,1.5943,1.5747,1.5732,1.562,1.4935,3.3354,3.3311,3.3255,3.3283,3.3255,3.3311,3.3283,3.3339,3.341,3.3522,3.348,3.2786,3.2454,3.2109,3.1669,3.1272,3.1254,3.2087,3.2925,3.3896,3.4804,3.5981,3.7183,3.7056,3.7078,3.7224,3.5107,3.3292,3.1836,3.0804,2.9631,2.8496,2.7726,2.6989,2.5993,2.5601,2.5136,2.4837,2.4491,2.4038,2.3481,2.2637,2.2046,2.1706,2.1399,2.1265,2.1245,2.0839,2.0703,2.0664,2.07,2.0905,2.1307,2.1729,2.2074,2.2227,2.2948,2.3261,2.3271,2.3805,2.407,2.4373,2.483,2.4941,2.4571,2.4665,2.5026,2.5413,2.5769,2.6218,2.6372,2.6507,2.6054,2.5144,2.5103,2.5133,2.4885,2.5242,2.5504,2.5274,2.492,2.4378,2.3619,2.3039,2.2298,2.1686,2.1026,2.0535,2.0037,1.9663,1.9325,1.9165,1.8879,1.8369,1.7912,1.7434,1.6833,1.6391,1.5769,1.5588,1.6126,1.6333,1.6195,1.6022,1.5632,1.5539,1.5412,1.5445,1.5725,1.5978,1.6103,1.6252,1.606,1.585,1.5675,3.3729,3.3729,3.3729,3.3549,3.3354,3.3326,3.3326,3.3326,3.3326,3.3326,3.3227,3.2945,3.2632,3.2345,3.2128,3.2009,3.1944,3.3309,3.406,3.423,3.5211,3.6437,3.7482,3.7519,3.6985,3.5962,3.4121,3.2711,3.1808,3.0854,3.0012,2.9301,2.8548,2.8075,2.7679,2.6839,2.6032,2.5405,2.501,2.4484,2.3831,2.3113,2.2703,2.2772,2.2351,2.2039,2.1805,2.1411,2.1253,2.1174,2.1406,2.1671,2.189,2.2101,2.2448,2.3094,2.3633,2.4283,2.4722,2.4902,2.5119,2.516,2.5197,2.5058,2.4881,2.5206,2.5547,2.5918,2.6191,2.6523,2.7086,2.7209,2.6717,2.5676,2.5761,2.5918,2.605,2.61,2.6444,2.666,2.5951,2.5078,2.4436,2.3918,2.3141,2.2242,2.1672,2.1245,2.104,2.0388,1.9998,1.9971,1.9503,1.9261,1.8822,1.836,1.7924,1.7445,1.6868,1.6287,1.676,1.6887,1.6738,1.6414,1.6124,1.587,1.5732,1.5825,1.6126,1.6276,1.6518,1.6446,1.6402,1.6211,1.6011,3.4074,3.4287,3.4164,3.414,3.4214,3.4214,3.4002,3.3804,3.3705,3.3593,3.3283,3.3058,3.2846,3.2561,3.2417,3.2345,3.2482,3.3928,3.4632,3.4863,3.6175,3.7347,3.8115,3.7641,3.6609,3.51,3.3663,3.2568,3.1849,3.1156,3.0596,3.0114,2.9403,2.89,2.8649,2.7824,2.7007,2.6443,2.5966,2.5509,2.478,2.4094,2.3678,2.363,2.3145,2.2829,2.259,2.2413,2.2028,2.1745,2.1894,2.2298,2.2949,2.296,2.3232,2.3977,2.4584,2.5085,2.5585,2.5575,2.5754,2.5935,2.5723,2.5644,2.5701,2.609,2.642,2.7072,2.7265,2.7458,2.7914,2.7996,2.7669,2.7044,2.6883,2.6883,2.7073,2.7193,2.7224,2.7289,2.6595,2.5862,2.536,2.4451,2.3732,2.287,2.2448,2.1948,2.1658,2.1053,2.0835,2.0631,2.0209,1.995,1.9775,1.9415,1.8922,1.8456,1.7995,1.7633,1.7628,1.7591,1.7499,1.702,1.6634,1.6494,1.6355,1.6576,1.6902,1.6868,1.6915,1.6938,1.6862,1.6608,1.6418,3.4371,3.504,3.4723,3.4996,3.5539,3.5611,3.5068,3.447,3.4342,3.396,3.3382,3.3129,3.2917,3.2704,3.2632,3.2588,3.2753,3.3824,3.5006,3.6098,3.7358,3.8397,3.859,3.749,3.6145,3.4685,3.352,3.2577,3.1924,3.1622,3.1373,3.0921,3.0132,2.9525,2.9101,2.842,2.7912,2.756,2.7221,2.6729,2.6075,2.5251,2.4579,2.4227,2.3769,2.3447,2.3348,2.335,2.2912,2.2154,2.2279,2.3016,2.4078,2.4078,2.4177,2.5057,2.5591,2.5752,2.5933,2.6079,2.63,2.6476,2.6304,2.6483,2.6844,2.6983,2.7522,2.8416,2.8501,2.8595,2.8848,2.8891,2.8842,2.8853,2.8163,2.8002,2.8211,2.8096,2.8132,2.7744,2.7266,2.6645,2.6194,2.5078,2.4283,2.3619,2.3201,2.2548,2.2159,2.1853,2.1699,2.1339,2.1024,2.0735,2.0557,2.0257,1.9743,1.955,1.9102,1.8924,1.8526,1.8332,1.8034,1.7539,1.7337,1.7091,1.7079,1.716,1.7277,1.7301,1.7268,1.7399,1.7373,1.7131,1.701,3.4548,3.5563,3.5272,3.521,3.5295,3.5267,3.4922,3.4209,3.4041,3.3873,3.3536,3.3326,3.3086,3.2917,3.3157,3.3452,3.3928,3.4952,3.6043,3.7114,3.8091,3.8472,3.8222,3.7053,3.5861,3.4547,3.3172,3.2125,3.1917,3.177,3.1522,3.1447,3.0742,3.0364,3.0163,2.9426,2.8688,2.8086,2.7705,2.7184,2.6484,2.5701,2.5093,2.4724,2.442,2.4032,2.3639,2.3608,2.3619,2.3242,2.3322,2.366,2.4395,2.4476,2.4887,2.5808,2.6052,2.637,2.673,2.6703,2.6688,2.6805,2.681,2.6718,2.718,2.7502,2.7965,2.8485,2.881,2.912,2.9309,2.94,2.9584,2.9842,2.9324,2.8773,2.8571,2.8607,2.8841,2.9012,2.823,2.7587,2.6975,2.6071,2.5093,2.4237,2.3619,2.3106,2.2856,2.2355,2.2104,2.2104,2.1881,2.163,2.1352,2.0935,2.0704,2.0504,2.0235,2.013,1.9585,1.9099,1.8546,1.79,1.788,1.7689,1.7455,1.7443,1.7467,1.7726,1.7885,1.8031,1.7851,1.763,1.7611,3.4659,3.5919,3.5747,3.5798,3.607,3.607,3.5578,3.4715,3.4433,3.4013,3.3662,3.3396,3.3227,3.3297,3.3466,3.3945,3.4612,3.564,3.6635,3.7594,3.8458,3.8649,3.8177,3.7271,3.6322,3.5105,3.3403,3.2643,3.2434,3.2098,3.1743,3.1522,3.1149,3.0924,3.0596,2.9985,2.9294,2.8684,2.8445,2.7965,2.6989,2.6703,2.6251,2.5815,2.5503,2.5147,2.4888,2.4985,2.4682,2.3921,2.3754,2.4102,2.4865,2.5157,2.5767,2.6879,2.7013,2.7282,2.7489,2.7247,2.7175,2.7549,2.7492,2.7737,2.8125,2.8432,2.8879,2.9242,2.9754,3.0017,3.0135,3.0207,3.043,3.0526,3.0443,3.0068,2.9628,2.9628,2.9646,2.956,2.8924,2.8226,2.7781,2.6881,2.5894,2.4984,2.444,2.3897,2.3479,2.2981,2.248,2.2606,2.248,2.2076,2.1937,2.1658,2.1254,2.1216,2.1148,2.108,2.0659,1.9973,1.9309,1.8796,1.845,1.8286,1.8052,1.7935,1.8298,1.8491,1.8589,1.8456,1.8362,1.8292,1.8174,3.4752,3.6175,3.5983,3.6505,3.7229,3.7331,3.6312,3.5357,3.4917,3.438,3.3718,3.3452,3.3565,3.3718,3.4044,3.4383,3.5125,3.6186,3.6953,3.7813,3.859,3.8782,3.8323,3.7486,3.6721,3.5751,3.425,3.3532,3.3164,3.2636,3.2098,3.1776,3.1426,3.1101,3.0776,3.0241,2.9777,2.9539,2.9455,2.8913,2.8128,2.7856,2.7538,2.6967,2.6497,2.6411,2.6448,2.6419,2.5878,2.4089,2.3941,2.4649,2.5681,2.6318,2.6982,2.7715,2.7986,2.8161,2.8223,2.7839,2.7823,2.8384,2.8607,2.8897,2.9187,2.9559,2.991,3.011,3.0962,3.1113,3.1115,3.1237,3.1344,3.1387,3.1742,3.1761,3.144,3.0882,3.0456,3.0254,2.94,2.8941,2.8403,2.7537,2.6175,2.5558,2.5075,2.4641,2.4239,2.3728,2.323,2.3106,2.2856,2.248,2.2355,2.2355,2.2076,2.1769,2.1881,2.1894,2.1723,2.1036,2.028,1.9708,1.9312,1.9024,1.8635,1.8765,1.9037,1.9076,1.8941,1.8917,1.879,1.8875,1.8776,3.455,3.6297,3.5854,3.619,3.6799,3.6457,3.5742,3.4864,3.4495,3.4094,3.3788,3.3988,3.4115,3.4128,3.5096,3.6014,3.6476,3.72,3.7929,3.8488,3.8841,3.8708,3.8086,3.7071,3.6278,3.5807,3.4974,3.4065,3.3559,3.3418,3.2949,3.1951,3.1695,3.1418,3.0953,3.0727,3.0565,3.0403,3.0392,3.0094,2.9475,2.8935,2.8454,2.7763,2.7107,2.6818,2.6704,2.6726,2.6662,2.6423,2.5946,2.6046,2.7147,2.745,2.7778,2.8124,2.8509,2.8582,2.8603,2.8807,2.8969,2.8911,2.9358,2.9764,2.9677,3.0078,3.0517,3.0829,3.12,3.1519,3.1595,3.1869,3.2105,3.2431,3.269,3.2892,3.2954,3.2015,3.1513,3.1427,3.0649,2.9617,2.9297,2.8403,2.7317,2.6331,2.5798,2.5365,2.4873,2.4487,2.4176,2.3973,2.3708,2.3348,2.2957,2.2928,2.2591,2.2341,2.248,2.2731,2.2537,2.209,2.1348,2.0616,2.0132,1.972,1.9442,1.9466,1.9636,1.9483,1.9335,1.9472,1.9483,1.9399,1.9447,3.4242,3.5754,3.5689,3.5947,3.6389,3.6026,3.5457,3.4718,3.4264,3.3922,3.3788,3.4229,3.4555,3.4711,3.5812,3.6635,3.7463,3.8105,3.8618,3.8841,3.8826,3.853,3.8098,3.7149,3.6541,3.6465,3.5655,3.474,3.4183,3.3826,3.3252,3.2225,3.2011,3.1756,3.1368,3.1086,3.0874,3.0733,3.0811,3.0628,3.0073,2.9644,2.9155,2.8697,2.821,2.8003,2.8025,2.8287,2.8488,2.8422,2.7844,2.7618,2.8337,2.8571,2.8688,2.8768,2.899,2.914,2.9283,2.9513,2.968,2.9453,2.9863,2.9968,3.0078,3.0433,3.0998,3.1395,3.1808,3.2147,3.2354,3.2862,3.3244,3.3252,3.3706,3.4015,3.3919,3.3035,3.2253,3.2377,3.1522,3.0853,3.0247,2.9314,2.8567,2.7531,2.6915,2.6466,2.606,2.5585,2.5233,2.4906,2.475,2.436,2.3702,2.3377,2.3091,2.2966,2.2966,2.337,2.3499,2.298,2.2371,2.1568,2.0884,2.052,2.0132,2.026,2.0101,1.9973,1.985,2.0086,2.0296,2.0367,2.0371,3.4142,3.5148,3.5496,3.5839,3.6111,3.5857,3.5301,3.4593,3.4225,3.3882,3.3747,3.4314,3.4954,3.5324,3.6302,3.7243,3.8102,3.869,3.906,3.887,3.8649,3.8306,3.7872,3.7434,3.7098,3.7078,3.6151,3.5336,3.4727,3.4181,3.3503,3.2611,3.2434,3.2227,3.1889,3.1549,3.1305,3.1297,3.1304,3.1113,3.0652,3.0201,2.9727,2.9307,2.924,2.9237,2.9349,2.9684,3.018,3.0247,2.9537,2.9349,2.9393,2.9504,2.9551,2.9572,2.9775,2.9845,2.9868,2.9995,3.0078,3.0015,3.012,3.0182,3.0348,3.0912,3.1458,3.207,3.2553,3.2964,3.3317,3.3862,3.3947,3.398,3.4686,3.5086,3.4861,3.4159,3.37,3.3248,3.2513,3.1732,3.1127,3.0372,2.9636,2.8853,2.8201,2.7505,2.7122,2.6717,2.6248,2.5878,2.5628,2.5031,2.4482,2.3893,2.3619,2.3325,2.3325,2.3728,2.4131,2.3653,2.2995,2.2285,2.1661,2.1278,2.0911,2.0667,2.0588,2.0416,2.0441,2.0491,2.0788,2.1074,2.1155,3.4682,3.5357,3.5673,3.5908,3.5887,3.5347,3.4785,3.4225,3.402,3.3744,3.3565,3.4767,3.5467,3.6071,3.7492,3.8458,3.8984,3.9205,3.9046,3.8752,3.8427,3.8127,3.7596,3.7366,3.7084,3.6682,3.608,3.5432,3.4991,3.4573,3.3884,3.3172,3.3119,3.2932,3.2538,3.2423,3.2225,3.1978,3.1956,3.1858,3.1685,3.1009,3.0438,2.9897,2.976,2.96,2.9734,3.0001,3.027,3.0292,3.0561,3.063,3.0614,3.0637,3.0376,3.029,3.0444,3.0474,3.0412,3.06,3.0433,3.0223,3.0475,3.0706,3.0958,3.1186,3.1797,3.2674,3.3253,3.377,3.3523,3.4333,3.4812,3.5018,3.5392,3.5806,3.6097,3.5697,3.5086,3.4656,3.3673,3.2467,3.1884,3.1327,3.0604,2.9956,2.9292,2.8778,2.8289,2.785,2.73,2.6919,2.6514,2.5771,2.5155,2.4469,2.3991,2.3683,2.3683,2.3837,2.41,2.41,2.3593,2.3029,2.2393,2.1897,2.1526,2.132,2.1025,2.0821,2.0916,2.101,2.1271,2.1546,2.156,3.4491,3.5136,3.5406,3.554,3.5481,3.5082,3.4601,3.4128,3.3951,3.3943,3.4257,3.5239,3.6158,3.6983,3.8135,3.9017,3.9265,3.9192,3.887,3.853,3.8156,3.7825,3.7317,3.7084,3.685,3.6369,3.5691,3.5233,3.4947,3.4848,3.4286,3.3647,3.3483,3.3161,3.2843,3.2644,3.2682,3.2449,3.2425,3.24,3.2337,3.1496,3.0965,3.0697,3.0308,3.0171,3.0328,3.0853,3.1263,3.1632,3.1968,3.2013,3.1784,3.1433,3.103,3.082,3.1016,3.1105,3.1085,3.1317,3.1402,3.1016,3.1147,3.123,3.1354,3.1517,3.2222,3.3236,3.3871,3.4307,3.4204,3.4977,3.5555,3.5881,3.6091,3.648,3.6708,3.6396,3.6135,3.5809,3.4985,3.3833,3.2941,3.2325,3.1721,3.1046,3.0359,2.9842,2.9505,2.9083,2.8532,2.779,2.74,2.655,2.5882,2.5219,2.4704,2.4347,2.4037,2.4192,2.427,2.4301,2.41,2.3578,2.3089,2.2617,2.2291,2.2001,2.1686,2.1327,2.1395,2.1575,2.1658,2.1853,2.1853,3.4582,3.5141,3.5355,3.5333,3.5096,3.4935,3.4534,3.4059,3.3951,3.4085,3.454,3.5453,3.6548,3.7594,3.8588,3.9265,3.9337,3.9017,3.8723,3.8352,3.7976,3.7519,3.7162,3.685,3.6457,3.6056,3.5437,3.4846,3.4847,3.4687,3.4362,3.393,3.3498,3.3225,3.3168,3.2969,3.2668,3.2541,3.245,3.24,3.2259,3.1865,3.1541,3.1646,3.1204,3.1135,3.1344,3.1829,3.2317,3.2808,3.3175,3.3292,3.2959,3.2082,3.1511,3.1417,3.1591,3.172,3.1977,3.2041,3.2125,3.1797,3.1797,3.173,3.1918,3.228,3.2944,3.406,3.4506,3.4793,3.5114,3.5707,3.618,3.6611,3.6828,3.6946,3.7134,3.6937,3.6524,3.6178,3.5809,3.5005,3.3783,3.3116,3.2508,3.2104,3.1426,3.1114,3.0686,3.0336,2.9798,2.8921,2.8151,2.7371,2.6647,2.6167,2.5565,2.5203,2.489,2.4764,2.4766,2.4642,2.4425,2.41,2.3792,2.3346,2.2952,2.2606,2.202,2.1742,2.195,2.1978,2.1978,2.223,2.248,3.5623,3.5819,3.627,3.5859,3.5023,3.4765,3.4293,3.3744,3.3842,3.3945,3.4237,3.522,3.6416,3.7697,3.8971,3.9397,3.9354,3.9224,3.8884,3.8463,3.8131,3.7565,3.6906,3.6563,3.6246,3.5925,3.5332,3.5142,3.4846,3.4146,3.4005,3.3965,3.3656,3.3513,3.3267,3.3073,3.3028,3.271,3.2574,3.2519,3.2527,3.2213,3.2293,3.2509,3.237,3.216,3.223,3.2651,3.3098,3.3285,3.3707,3.3977,3.365,3.2339,3.2383,3.2608,3.2783,3.259,3.3005,3.3009,3.2726,3.2416,3.218,3.207,3.2496,3.3274,3.4189,3.5577,3.5408,3.5386,3.5707,3.6282,3.6854,3.7074,3.7166,3.7473,3.779,3.732,3.6767,3.6423,3.6055,3.5418,3.4383,3.3882,3.3214,3.2932,3.2527,3.2085,3.174,3.1243,3.0701,2.9766,2.8956,2.8185,2.7454,2.6951,2.6407,2.6167,2.5723,2.528,2.5078,2.4906,2.4797,2.4471,2.4161,2.3852,2.323,2.2731,2.223,2.2104,2.2104,2.2104,2.2104,2.2355,2.2856,3.5267,3.5663,3.6094,3.5889,3.5234,3.4641,3.4088,3.3731,3.3903,3.4312,3.4916,3.6219,3.7763,3.9253,4.0308,4.0472,4.0323,3.9858,3.9507,3.9015,3.8596,3.798,3.7358,3.6955,3.655,3.5764,3.5435,3.505,3.4616,3.4126,3.3817,3.3947,3.3452,3.3018,3.3068,3.2957,3.2984,3.2995,3.3073,3.3217,3.3256,3.3047,3.2978,3.3362,3.296,3.2913,3.3078,3.31,3.3617,3.3899,3.4205,3.4263,3.4372,3.396,3.3892,3.3343,3.3287,3.3311,3.3638,3.3639,3.3372,3.3168,3.2992,3.3168,3.3402,3.399,3.4962,3.5867,3.578,3.5889,3.626,3.6544,3.7066,3.7405,3.7363,3.755,3.7758,3.7517,3.7032,3.6667,3.63,3.5541,3.4922,3.4278,3.365,3.332,3.2991,3.2787,3.2226,3.1668,3.1103,3.0401,2.9665,2.8991,2.8381,2.7777,2.721,2.6696,2.62,2.5834,2.5455,2.5172,2.5094,2.4673,2.4285,2.3867,2.3355,2.2856,2.2355,2.223,2.223,2.2104,2.2104,2.2606,2.2731,3.4925,3.5449,3.5554,3.5536,3.5339,3.4387,3.3899,3.3748,3.4,3.4545,3.5826,3.7548,3.9554,4.0795,4.1143,4.1083,4.105,4.0432,4.0039,3.9642,3.9211,3.8552,3.7866,3.74,3.6797,3.576,3.588,3.5562,3.4891,3.4289,3.403,3.3958,3.3046,3.2723,3.2661,3.2835,3.2956,3.3293,3.3497,3.3659,3.3789,3.3551,3.372,3.3935,3.3839,3.3696,3.4027,3.4193,3.4592,3.4799,3.4722,3.4801,3.49,3.5007,3.4645,3.4095,3.3878,3.377,3.3988,3.4118,3.4134,3.3883,3.3855,3.3813,3.3657,3.4447,3.5504,3.6369,3.6216,3.6435,3.6719,3.6894,3.7286,3.7462,3.7594,3.7736,3.7758,3.744,3.7054,3.6667,3.63,3.5788,3.517,3.4673,3.4173,3.367,3.3418,3.3292,3.2785,3.2128,3.1635,3.1009,3.0307,2.9683,2.9319,2.8595,2.8022,2.7391,2.6906,2.6392,2.62,2.5707,2.5439,2.4968,2.4486,2.4115,2.3728,2.2981,2.2355,2.223,2.223,2.2118,2.2244,2.262,2.2606,3.5215,3.548,3.5025,3.4938,3.4979,3.407,3.3705,3.384,3.3907,3.479,3.6409,3.8765,4.0499,4.1122,4.1317,4.1364,4.1092,4.0383,4.0134,3.9814,3.9349,3.8863,3.8339,3.7756,3.728,3.6577,3.6452,3.6191,3.5865,3.4908,3.4174,3.3269,3.2896,3.2611,3.2621,3.295,3.3367,3.3625,3.382,3.3877,3.4006,3.3983,3.4245,3.511,3.5151,3.5389,3.6069,3.5925,3.5771,3.5805,3.5459,3.5328,3.5451,3.5328,3.4979,3.4802,3.4208,3.4098,3.4316,3.4314,3.4155,3.3968,3.4026,3.429,3.4183,3.515,3.626,3.6959,3.6762,3.6828,3.7134,3.733,3.7429,3.7572,3.7616,3.7616,3.7659,3.7527,3.714,3.6566,3.622,3.5955,3.5356,3.4754,3.4298,3.3796,3.3418,3.3292,3.3165,3.2657,3.2019,3.1525,3.075,3.0343,3.0213,2.9535,2.8731,2.8324,2.7883,2.7361,2.6955,2.6568,2.5881,2.5313,2.4828,2.4393,2.3867,2.3135,2.2509,2.2244,2.2104,2.2104,2.1992,2.2104,2.1853,3.459,3.4735,3.4949,3.5151,3.5267,3.4184,3.3684,3.3597,3.3983,3.5711,3.8161,4.0176,4.1489,4.207,4.2268,4.2189,4.2031,4.1389,4.1035,4.0653,4.0321,3.9592,3.9003,3.8416,3.7966,3.7117,3.6902,3.6462,3.5647,3.5426,3.4645,3.3851,3.3203,3.2804,3.2835,3.3198,3.3756,3.4165,3.4195,3.4222,3.4487,3.4579,3.4912,3.5421,3.5699,3.5944,3.6237,3.6386,3.6296,3.6232,3.5803,3.5864,3.5688,3.5288,3.5069,3.5091,3.4516,3.4338,3.4447,3.4534,3.4401,3.4398,3.4474,3.4683,3.4884,3.5925,3.6653,3.7068,3.7221,3.7199,3.7287,3.7374,3.7495,3.7495,3.7495,3.7495,3.7583,3.7449,3.7357,3.6865,3.6558,3.6269,3.5624,3.498,3.4378,3.3922,3.3544,3.3311,3.335,3.3058,3.2422,3.191,3.1267,3.0879,3.062,3.01,2.943,2.9053,2.8659,2.8064,2.7475,2.6921,2.6229,2.5754,2.5202,2.4795,2.4139,2.3223,2.2523,2.2258,2.2118,2.2104,2.1978,2.1727,2.1362,3.4545,3.4815,3.5236,3.5395,3.517,3.4259,3.3726,3.3602,3.3984,3.6192,3.9562,4.1091,4.2216,4.2892,4.2871,4.271,4.2327,4.1864,4.1478,4.1113,4.0689,4.0178,3.9585,3.9074,3.8505,3.7597,3.7404,3.7063,3.5953,3.5907,3.5102,3.4299,3.3808,3.3473,3.302,3.3265,3.3959,3.439,3.4535,3.4504,3.4722,3.4956,3.5479,3.5872,3.6098,3.6462,3.6812,3.7036,3.6844,3.6625,3.6332,3.6084,3.5808,3.54,3.498,3.498,3.4869,3.4534,3.4534,3.4423,3.4488,3.4684,3.4653,3.5374,3.6099,3.6588,3.685,3.7265,3.7352,3.7374,3.7374,3.7374,3.7374,3.7495,3.7495,3.7396,3.7549,3.7436,3.7283,3.704,3.6833,3.6457,3.5871,3.5224,3.4699,3.416,3.3476,3.3428,3.3819,3.3359,3.2549,3.2038,3.1653,3.1396,3.1009,3.0343,2.9561,2.9578,2.9036,2.8312,2.7752,2.7213,2.6807,2.6229,2.5704,2.5103,2.4456,2.373,2.3004,2.2258,2.1992,2.1866,2.174,2.1488,2.1109,3.5283,3.6023,3.5995,3.5611,3.4901,3.4067,3.3751,3.3837,3.4267,3.6286,3.9648,4.1638,4.2761,4.309,4.293,4.2607,4.231,4.1731,4.1283,4.1029,4.0773,4.0402,3.9913,3.9393,3.8843,3.8549,3.8122,3.752,3.6607,3.6377,3.563,3.4939,3.4535,3.4222,3.3428,3.3289,3.372,3.4267,3.4413,3.4576,3.4781,3.4987,3.5703,3.6256,3.6483,3.6825,3.7436,3.7613,3.7416,3.7133,3.6858,3.6472,3.6018,3.5535,3.5202,3.518,3.4823,3.4578,3.4578,3.4354,3.4549,3.4902,3.4918,3.5483,3.6697,3.6981,3.6915,3.7352,3.7374,3.7374,3.7374,3.7374,3.7374,3.7396,3.7396,3.7527,3.758,3.7601,3.7359,3.7424,3.696,3.6541,3.6016,3.5489,3.502,3.4369,3.3525,3.3544,3.4182,3.3669,3.2872,3.2464,3.2206,3.1709,3.1322,3.0361,2.9822,2.9839,2.943,2.8592,2.7982,2.7605,2.7181,2.6759,2.6163,2.551,2.4963,2.4431,2.3493,2.244,2.1543,2.1362,2.1362,2.1235,2.0856,3.5339,3.5638,3.5883,3.5563,3.4863,3.4699,3.4213,3.4012,3.5787,3.8056,4.011,4.1989,4.285,4.293,4.2879,4.2555,4.2034,4.1647,4.1227,4.0773,4.063,4.0198,3.9848,3.9435,3.9078,3.8709,3.8346,3.7955,3.7242,3.6885,3.6282,3.56,3.5184,3.4963,3.4531,3.4193,3.419,3.4539,3.4686,3.4681,3.4863,3.5451,3.6119,3.6754,3.6803,3.7252,3.7868,3.7974,3.7798,3.7519,3.7263,3.6957,3.6561,3.6139,3.5826,3.5669,3.5445,3.5395,3.5343,3.5179,3.4897,3.5054,3.5272,3.5511,3.5605,3.6697,3.7068,3.733,3.7374,3.7374,3.7374,3.7374,3.7396,3.744,3.7406,3.7645,3.7783,3.774,3.7613,3.7889,3.7676,3.6722,3.6085,3.5807,3.544,3.4779,3.4023,3.4148,3.4583,3.4023,3.3255,3.3009,3.2728,3.2152,3.1506,3.0508,3.0083,2.997,2.9447,2.8642,2.8163,2.7769,2.7344,2.6743,2.6403,2.5919,2.5245,2.4331,2.3479,2.2632,2.1842,2.1356,2.1303,2.1149,2.0602,3.5373,3.5458,3.5798,3.5488,3.4871,3.4908,3.4468,3.4206,3.6852,3.9228,4.0936,4.2368,4.3123,4.3205,4.3094,4.248,4.1897,4.1564,4.1057,4.063,4.0485,4.0138,3.9815,3.9536,3.9311,3.8964,3.8778,3.8427,3.7851,3.7267,3.6653,3.6057,3.5705,3.5497,3.5176,3.4856,3.4668,3.4848,3.4871,3.4886,3.5212,3.5655,3.6203,3.6697,3.7038,3.7358,3.7785,3.7964,3.8024,3.7887,3.7612,3.7349,3.713,3.6996,3.6658,3.6499,3.6295,3.6223,3.6378,3.5939,3.561,3.5369,3.567,3.5648,3.5386,3.6575,3.7144,3.7407,3.7495,3.7495,3.7374,3.7396,3.7571,3.7514,3.7732,3.787,3.8174,3.8103,3.8037,3.8206,3.7858,3.6958,3.6233,3.6032,3.577,3.5117,3.4547,3.4813,3.4883,3.4068,3.3501,3.3198,3.2655,3.2004,3.134,3.0508,3.0213,3.023,2.9578,2.879,2.831,2.8013,2.7377,2.6971,2.6681,2.615,2.5184,2.4187,2.3377,2.2655,2.2114,2.1625,2.1424,2.0948,2.04,3.5345,3.543,3.577,3.5432,3.4748,3.4862,3.466,3.4468,3.7153,3.9564,4.1791,4.2986,4.3549,4.3879,4.3744,4.2894,4.1846,4.1453,4.1028,4.0597,4.0419,4.0129,3.9994,3.9816,3.9612,3.9482,3.9233,3.8923,3.8336,3.7892,3.7063,3.6405,3.6169,3.6119,3.5899,3.5643,3.5364,3.519,3.5017,3.505,3.5327,3.5603,3.6163,3.6633,3.7082,3.7392,3.7762,3.8048,3.8227,3.8138,3.795,3.7873,3.7768,3.7588,3.7474,3.736,3.7109,3.7266,3.7311,3.6733,3.6479,3.6346,3.5976,3.6012,3.626,3.678,3.7405,3.767,3.7758,3.7637,3.7517,3.7658,3.792,3.7972,3.8065,3.8282,3.8521,3.8614,3.853,3.8291,3.7963,3.7315,3.6628,3.6385,3.617,3.5335,3.4738,3.4507,3.4528,3.369,3.3218,3.3011,3.245,3.1653,3.1027,3.049,3.023,3.023,2.9561,2.8888,2.8504,2.8173,2.7572,2.7165,2.7017,2.6376,2.5236,2.4216,2.3173,2.258,2.216,2.1553,2.1199,2.0798,2.0221,3.4623,3.4751,3.4702,3.4706,3.4851,3.5705,3.5948,3.6141,3.8292,4.0628,4.2912,4.3714,4.3994,4.3803,4.3965,4.2849,4.1995,4.134,4.1072,4.0775,4.0597,4.0603,4.0485,4.0333,4.0161,3.9902,3.9615,3.9316,3.8919,3.8386,3.8014,3.7541,3.692,3.6825,3.6735,3.6633,3.5933,3.5459,3.5321,3.5283,3.5466,3.5802,3.6271,3.6696,3.7348,3.7769,3.8058,3.867,3.8832,3.8948,3.877,3.8594,3.8413,3.8206,3.8067,3.8228,3.8341,3.8638,3.8358,3.7938,3.7658,3.7421,3.7044,3.6553,3.6618,3.6978,3.7679,3.7932,3.7878,3.7758,3.7561,3.7658,3.7986,3.8146,3.826,3.8521,3.8655,3.8573,3.8571,3.8439,3.8109,3.7472,3.6912,3.6749,3.6395,3.5549,3.4831,3.4543,3.4045,3.346,3.3086,3.2861,3.232,3.1543,3.1174,3.075,3.049,3.01,2.943,2.9003,2.8685,2.824,2.7831,2.7131,2.6374,2.5866,2.5236,2.4187,2.3088,2.2759,2.2349,2.1582,2.085,2.0566,2.0002,3.4228,3.4086,3.4393,3.4724,3.5233,3.6307,3.678,3.7176,3.8951,4.1303,4.3719,4.4269,4.4469,4.449,4.4354,4.3459,4.1907,4.1783,4.1535,4.1086,4.0905,4.073,4.0749,4.06,4.0394,4.0122,3.9818,3.9576,3.9295,3.8896,3.8451,3.7737,3.75,3.7395,3.7206,3.6985,3.6695,3.6177,3.5972,3.5727,3.5927,3.6086,3.6489,3.7072,3.7752,3.8067,3.8359,3.907,3.9202,3.9286,3.901,3.8943,3.8873,3.8826,3.9175,3.9337,3.9267,3.9428,3.9288,3.898,3.8551,3.8335,3.7998,3.7449,3.7176,3.7449,3.7887,3.8261,3.7998,3.778,3.7604,3.7593,3.7986,3.8357,3.8538,3.8695,3.8616,3.855,3.846,3.8565,3.8124,3.7657,3.7319,3.7173,3.6495,3.5239,3.4374,3.4029,3.361,3.31,3.2784,3.273,3.2078,3.145,3.1099,3.075,3.0361,2.997,2.9561,2.91,2.8833,2.8398,2.7805,2.6661,2.5518,2.5107,2.4894,2.3995,2.3091,2.2752,2.2454,2.1871,2.115,2.0526,1.9961,3.3903,3.3367,3.4545,3.503,3.5494,3.6596,3.7187,3.7547,3.9431,4.1759,4.4094,4.4702,4.4996,4.5112,4.4821,4.3856,4.2693,4.2189,4.1874,4.1415,4.1322,4.1206,4.0909,4.0711,4.0657,4.0201,3.9804,3.9624,3.9486,3.9226,3.8755,3.7762,3.7958,3.7868,3.7604,3.7402,3.729,3.6996,3.677,3.6567,3.6477,3.659,3.6748,3.7632,3.7996,3.8292,3.8428,3.8657,3.8934,3.9034,3.9151,3.9244,3.943,3.9709,4.0083,4.0317,4.0176,4.0176,4.0104,3.9817,3.9391,3.9107,3.8896,3.8305,3.8021,3.7923,3.8439,3.8564,3.8387,3.8111,3.7889,3.8008,3.8357,3.8472,3.8564,3.889,3.9109,3.8829,3.8544,3.854,3.827,3.7801,3.7185,3.6978,3.6475,3.4987,3.4242,3.3822,3.3254,3.2744,3.2522,3.2376,3.2004,3.1395,3.0952,3.062,3.0213,2.9822,2.9543,2.9076,2.8725,2.8239,2.7723,2.6624,2.5565,2.4936,2.4477,2.373,2.3121,2.2706,2.2271,2.2038,2.1423,2.0682,1.9869,3.3127,3.3198,3.4029,3.4535,3.4875,3.6656,3.7628,3.8081,4.057,4.2378,4.3715,4.4905,4.5461,4.5318,4.5014,4.4129,4.2879,4.2556,4.2137,4.1855,4.1666,4.1543,4.1435,4.1051,4.0937,4.0514,4.0134,3.9486,3.9315,3.9296,3.9345,3.9005,3.883,3.8478,3.825,3.8159,3.7931,3.7656,3.7632,3.7473,3.7269,3.7292,3.7383,3.793,3.8296,3.8665,3.8919,3.9405,3.9708,3.9919,3.9942,4.0012,3.9989,4.027,4.0598,4.0858,4.0929,4.088,4.0805,4.0491,4.0226,4.0121,3.9833,3.9205,3.8806,3.8851,3.8786,3.883,3.8627,3.8429,3.8262,3.8547,3.8707,3.8712,3.8738,3.9107,3.9605,3.9066,3.854,3.8402,3.8395,3.7842,3.7206,3.6569,3.6048,3.5354,3.4662,3.3916,3.3086,3.2411,3.1833,3.1744,3.1709,3.1285,3.0861,3.062,3.0213,2.9865,2.9683,2.9163,2.8759,2.7976,2.7344,2.6739,2.5977,2.5264,2.4477,2.3732,2.3145,2.2836,2.2535,2.2373,2.1787,2.1175,2.0219,3.2775,3.2869,3.3581,3.4278,3.509,3.6793,3.7989,3.9142,4.1396,4.3041,4.3973,4.5075,4.5663,4.5343,4.5087,4.4329,4.3138,4.2791,4.2549,4.2385,4.1973,4.1746,4.1591,4.1198,4.0642,4.0313,3.9973,3.9569,3.9365,3.9454,3.9651,3.9419,3.9075,3.892,3.8943,3.8689,3.848,3.8273,3.8547,3.8455,3.8159,3.7952,3.809,3.8481,3.8804,3.9128,3.9291,3.9663,3.9966,4.027,4.0458,4.0693,4.074,4.074,4.0975,4.1094,4.1329,4.1372,4.1219,4.1068,4.0823,4.0769,4.0624,4.0,3.9923,3.9914,3.9788,3.9737,3.8897,3.8532,3.851,3.8707,3.9095,3.9292,3.9042,3.9152,3.9325,3.9149,3.8819,3.8882,3.857,3.7883,3.7287,3.6998,3.6301,3.5335,3.4566,3.3937,3.2992,3.2226,3.1614,3.1172,3.1174,3.1009,3.062,3.049,3.023,2.9977,2.9725,2.9421,2.8956,2.7755,2.6758,2.6663,2.628,2.5576,2.4735,2.4112,2.373,2.358,2.3192,2.2905,2.2291,2.1692,2.0889,3.277,3.2645,3.323,3.4285,3.5601,3.7037,3.846,3.9986,4.2121,4.3503,4.4375,4.5096,4.5566,4.5413,4.4862,4.4397,4.3776,4.3095,4.2889,4.2528,4.2208,4.1617,4.1145,4.0694,4.0262,3.9948,3.9724,3.9766,3.9746,3.9834,3.9665,3.9338,3.9145,3.9059,3.885,3.8757,3.8826,3.9053,3.9281,3.9327,3.9121,3.8775,3.8984,3.9144,3.9469,3.9492,3.9515,3.9702,4.0052,4.0548,4.1116,4.1354,4.1354,4.1354,4.1376,4.1445,4.1485,4.1574,4.1468,4.1438,4.1268,4.1099,4.1007,4.103,4.0975,4.0853,4.0845,4.0373,3.9506,3.9034,3.8991,3.9078,3.9594,3.9704,3.9452,3.9218,3.9216,3.9057,3.9078,3.9078,3.8549,3.7904,3.7502,3.7213,3.636,3.5373,3.4528,3.369,3.3068,3.2282,3.1669,3.1208,3.0915,3.062,3.0361,3.023,3.01,2.9995,2.9613,2.9473,2.9042,2.8017,2.7276,2.7262,2.6858,2.5986,2.5405,2.4978,2.462,2.4216,2.3854,2.3523,2.3077,2.2448,2.1754,3.3036,3.3016,3.3265,3.4313,3.5889,3.7547,3.8999,4.0377,4.2649,4.384,4.4276,4.5006,4.5504,4.5504,4.449,4.4021,4.3832,4.319,4.2582,4.219,4.21,4.145,4.0898,4.0593,4.0023,3.9749,3.9643,3.9696,4.0072,4.0033,4.0002,4.0009,3.9732,3.9708,3.9794,3.9584,3.9327,3.9671,3.9854,4.002,4.0007,3.9825,3.9859,4.0043,4.0318,4.0456,4.0548,4.0525,4.0959,4.1392,4.1777,4.2018,4.1898,4.1777,4.1677,4.1742,4.1777,4.1932,4.1923,4.214,4.1992,4.2186,4.2186,4.2108,4.2005,4.1651,4.1565,4.1287,4.0545,4.003,3.988,3.9905,4.0232,3.9949,3.9692,3.9606,3.954,3.9078,3.8681,3.8702,3.857,3.7904,3.7233,3.6904,3.638,3.5471,3.5066,3.4242,3.3067,3.2393,3.1778,3.128,3.071,3.023,2.9952,2.9952,2.9935,2.9717,2.9483,2.9215,2.8819,2.8168,2.7748,2.7637,2.723,2.6628,2.6043,2.5766,2.5221,2.477,2.4635,2.4287,2.3724,2.3162,2.2531]}]]